     2.11           OBSERVATION DATA    G (GPS)             RINEX VERSION / TYPE
teqc 2010Oct21 OPUS Account 20111025 03:38:42UTC            PGM / RUN BY / DATE
C 1521                                                      MARKER NAME
1113                                                        MARKER NUMBER
CSMIDDLETON NGS                                             OBSERVER / AGENCY
4624K01583 TRIMBLE NETR5 4.41                               REC # / TYPE / VERS
60154430 TRM41249.00 NONE                                   ANT # / TYPE
  -740148.4197 -5463401.1666  3196378.0351                  APPROX POSITION XYZ
        2.0000        0.0000        0.0000                  ANTENNA: DELTA H/E/N
     1     1                                                WAVELENGTH FACT L1/2
     5    L1    L2    C1    P1    P2                        # / TYPES OF OBSERV
    15                                                      LEAP SECONDS
  2011     7    23    14    27   30.0000000     GPS         TIME OF FIRST OBS
                                                            END OF HEADER
 11  7 23 14 27 30.0000000  0  8G14G20G16G32G24G11G31G23
 125621577.83456  97886976.79053  23904992.2664                   23905000.8134
 112727914.52058  87839958.05155  21451409.2894                   21451415.4414
 113660413.55158  88566584.52255  21628857.2504                   21628865.1844
 109277117.78258  85151030.38156  20794744.8134                   20794752.1604
 124336363.15956  96885516.58854  23660423.2194                   23660433.7074
 133558856.36415                  25415415.719
 114895602.40418                  21863906.773
 122772939.70457  95667249.73654  23362914.4224                   23362920.2584
 11  7 23 14 28  0.0000000  0  8G14G20G16G32G24G11G31G23
 125682470.49046  97934425.56443  23916579.4384                   23916588.1414
 112675536.27448  87799143.83845  21441442.2274                   21441448.7894
 113573800.65348  88499093.98745  21612375.6484                   21612382.7734
 109264315.66948  85141054.70946  20792308.2274                   20792316.0904
 124396562.84246  96932425.32443  23671879.2584                   23671888.9924
 133616962.048 5                  25426471.172
 114963889.227 8                  21876901.617
 122697535.07947  95608492.90344  23348565.3134                   23348570.9024
 11  7 23 14 28 30.0000000  0  8G14G20G16G32G24G11G31G23
 125743512.26346  97981990.52843  23928195.2814                   23928203.8554
 112623644.31948  87758708.55745  21431567.3984                   21431574.2894
 113487569.25948  88431900.75645  21595966.2504                   21595973.2934
 109252006.42447  85131463.07346  20789966.5634                   20789973.9494
 124456952.59346  96979482.21343  23683370.6884                   23683381.4304
 133674961.478 5                  25437507.148
 115032276.930 8                  21889915.414
 122622104.06447  95549715.48944  23334211.0784                   23334217.4494
 11  7 23 14 29  0.0000000  0  8G14G20G16G32G24G11G31G23
 125804704.00946  98029672.27343  23939839.6804                   23939848.6254
 112572240.27948  87718653.45546  21421785.8134                   21421792.7774
 113401722.41848  88365007.14145  21579630.7034                   21579636.9414
 109240191.32948  85122256.50146  20787717.6954                   20787725.3954
 124517529.68647  97026685.07243  23694898.8834                   23694908.8094
 133732852.181 6                  25448524.523
 115100763.662 8                  21902947.703
 122546647.58447  95490918.27844  23319852.6094                   23319857.7704
 11  7 23 14 29 30.0000000  0  8G14G20G16G32G24G11G31G23
 125866045.62346  98077470.89043  23951512.6724                   23951521.5634
 112521326.32448  87678980.25345  21412097.1174                   21412103.3364
 113316263.20448  88298415.59345  21563367.3524                   21563374.3094
 109228871.13848  85113435.55346  20785563.7274                   20785571.3244
 124578291.33947  97074031.78143  23706462.2034                   23706471.3674
 133790631.568 5                  25459518.781
 115169347.719 8                  21915998.992
 122471166.25947  95432101.64844  23305488.0394                   23305494.6414
 11  7 23 14 30  0.0000000  0  8G14G20G16G32G24G11G31G23
 125927537.45546  98125386.54043  23963214.6094                   23963223.0274
 112470904.35748  87639690.42546  21402501.5314                   21402508.3674
 113231194.23348  88232128.12345  21547179.9924                   21547186.5164
 109218046.61048  85105000.84446  20783503.7034                   20783511.3984
 124639234.61447  97121519.97543  23718058.6334                   23718068.8594
 133848298.078 6                  25470493.406
 115238027.244 8                  21929068.422
 122395660.64547  95373266.11344  23291120.6644                   23291125.8954
 11  7 23 14 30 30.0000000  0  8G14G20G16G32G24G11G31G23
 125989179.98046  98173419.58143  23974943.7814                   23974953.5904
 112420975.93648  87600785.14545  21393000.8754                   21393007.6054
 113146518.34348  88166146.96845  21531066.1414                   21531073.0274
 109207718.66948  85096953.08946  20781538.5474                   20781546.2114
 124700356.60546  97169147.42943  23729690.2114                   23729699.6214
 133905848.921 5                  25481445.063
 115306800.326 8                  21942155.203
 122320131.50347  95314412.26144  23276747.8134                   23276753.4144
 11  7 23 14 31  0.0000000  0  8G14G20G16G32G24G11G31G23
 126050974.01646  98221570.65643  23986704.5084                   23986712.5204
 112371543.30748  87562266.22345  21383594.2584                   21383600.5664
 113062238.98448  88100474.77045  21515028.2424                   21515035.1414
 109197888.35948  85089293.09346  20779667.9694                   20779675.5004
 124761654.70647  97216912.14643  23741354.0944                   23741364.3874
 133963282.250 6                  25492373.234
 115375665.647 7                  21955259.805
 122244579.76847  95255540.81144  23262371.0314                   23262377.5314
 11  7 23 14 31 30.0000000  0  8G14G20G16G32G24G11G31G23
 126112919.71146  98269839.93043  23998491.8134                   23998500.1724
 112322608.38448  87524135.12545  21374282.0234                   21374289.4304
 112978358.86048  88035113.66246  21499066.7194                   21499073.4924
 109188556.65248  85082021.63446  20777891.8754                   20777899.7274
 124823125.89447  97264811.68243  23753052.2584                   23753061.9264
 134020595.898 5                  25503281.227
 115444621.623 7                  21968382.016
 122169006.02147  95196652.17744  23247989.5864                   23247995.9494
 11  7 23 14 32  0.0000000  0  8G14G20G16G32G24G11G31G23
 126175017.54046  98318227.76243  24010308.5784                   24010316.7934
 112274173.02348  87486393.29045  21365065.0084                   21365071.4104
 112894880.66348  87970065.77645  21483181.1804                   21483188.7854
 109179724.15448  85075139.15546  20776211.3754                   20776218.5824
 124884767.45446  97312844.04143  23764781.8054                   23764791.4384
 134077787.20115                  25514162.203
 115513666.579 8                  21981521.172
 122093411.26847  95137747.19644  23233604.5944                   23233610.4654
 11  7 23 14 32 30.0000000  0  8G14G20G16G32G24G11G31G23
 126237267.94146  98366734.48343  24022154.0634                   24022162.7734
 112226239.08348  87449042.17445  21355943.6094                   21355950.6684
 112811807.38548  87905333.39045  21467372.6174                   21467380.3134
 109171391.90348  85068646.47846  20774625.6484                   20774633.3444
 124946576.71147  97361007.01043  23776544.3834                   23776553.7974
 134134854.29515                  25525025.148
 115582798.450 8                  21994676.023
 122017795.72547  95078826.02344  23219214.9774                   23219221.4574
 11  7 23 14 33  0.0000000  0  8G14G20G16G32G24G11G31G23
 126299671.05446  98415360.16843  24034029.2034                   24034037.1054
 112178808.28448  87412083.09346  21346917.9064                   21346924.4534
 112729141.64348  87840918.58945  21451641.8984                   21451649.3954
 109163560.43248  85062544.02446  20773135.6174                   20773143.0594
 125008550.66847  97409298.37143  23788336.9694                   23788347.3164
 134191794.54615                  25535859.031
 115652015.927 7                  22007847.906
 121942160.34047  95019889.39844  23204822.1484                   23204828.7704
 11  7 23 14 33 30.0000000  0  8G14G20G16G32G24G11G31G23
 126362226.85447  98464104.87943  24045934.1954                   24045941.8554
 112131882.13148  87375517.26446  21337988.0474                   21337994.9024
 112646886.41748  87776823.63545  21435989.6954                   21435995.9694
 109156230.48348  85056832.37946  20771740.4924                   20771748.1524
 125070686.56147  97457715.91643  23800161.1564                   23800171.4304
                                  25546670.781
 115721317.068 8                  22021035.531
 121866505.91047  94960937.91544  23190425.5084                   23190431.0474
 11  7 23 14 34  0.0000000  0  7G14G20G16G32G24G31G23
 126424936.65346  98512969.58143  24057866.5864                   24057875.5204
 112085463.06848  87339346.56646  21329154.5944                   21329161.4264
 112565044.85748  87713051.01645  21420415.2424                   21420421.8714
 109149403.19948  85051512.40646  20770441.7894                   20770448.7194
 125132982.03847  97506257.78744  23812016.2194                   23812025.3754
 115790700.831 8                  22034239.031
 121790833.52547  94901972.42944  23176025.3594                   23176031.6214
 11  7 23 14 34 30.0000000  0  8G14G20G16G32G24G11G31G23
 126487799.81846  98561953.77743  24069828.7034                   24069838.4344
 112039552.16848  87303571.83946  21320418.1414                   21320425.2384
 112483619.40248  87649602.63446  21404920.5554                   21404927.0784
 109143078.87648  85046584.35946  20769238.2344                   20769245.6844
 125195433.38346  97554921.13644  23823899.0634                   23823910.3054
 134361829.20214                  25568221.664
 115860164.947 8                  22047457.227
 121715143.44847  94842993.14844  23161622.5164                   23161627.9264
 11  7 23 14 35  0.0000000  0  7G14G20G16G32G24G31G23
 126550817.27247  98611058.23543  24081821.5634                   24081830.1484
 111994151.54748  87268194.70046  21311778.8204                   21311785.2974
 112402612.98548  87586480.77745  21389505.5634                   21389512.4494
 109137258.45448  85042048.95146  20768130.5084                   20768137.5594
 125258038.26647  97603704.07544  23835813.3054                   23835823.9224
 115929708.491 8                  22060690.938
 121639436.57847  94784000.79544  23147215.4384                   23147220.9024
 11  7 23 14 35 30.0000000  0  7G14G20G16G32G24G31G23
 126613989.75546  98660283.46143  24093843.0944                   24093851.3444
 111949263.32648  87233216.87946  21303237.1414                   21303244.3324
 112322028.68448  87523687.84746  21374170.8364                   21374177.9344
 109131943.16748  85037907.17746  20767118.9924                   20767126.2704
 125320794.05746  97652604.60343  23847755.6804                   23847766.3674
 115999329.623 8                  22073939.555
 121563713.99647  94724996.18944  23132806.2344                   23132811.4454
 11  7 23 14 36  0.0000000  0  7G14G20G16G32G24G31G23
 126677316.90146  98709629.24143  24105893.6334                   24105902.1994
 111904888.34648  87198638.96846  21294792.7344                   21294799.3244
 112241868.57248  87461225.43846  21358916.9304                   21358924.0084
 109127132.39048  85034158.49746  20766203.2894                   20766210.9774
 125383697.10546  97701619.93443  23859725.2894                   23859735.9614
 116069025.962 8                  22087202.484
 121487976.02647  94665979.63244  23118393.6484                   23118399.5004
 11  7 23 14 36 30.0000000  0  7G14G20G16G32G24G31G23
 126740799.23046  98759095.89243  24117974.3444                   24117982.2974
 111861029.16948  87164462.98046  21286446.7504                   21286453.5434
 112162135.62648  87399095.89346  21343744.4144                   21343751.2544
 109122827.58748  85030804.10946  20765384.4924                   20765391.6564
 125446745.08046  97750748.16743  23871723.4384                   23871732.8754
 116138796.773 8                  22100479.086
 121412223.64247  94606951.81344  23103978.6724                   23103984.0984
 11  7 23 14 37  0.0000000  0  7G14G20G16G32G24G31G23
 126804437.05846  98808683.81143  24130084.6644                   24130091.7894
 111817686.92048  87130689.78546  21278198.8134                   21278205.8324
 112082833.00848  87337301.69246  21328653.6724                   21328660.9224
 109119029.36448  85027844.45446  20764661.5084                   20764669.2274
 125509935.15946  97799987.17443  23883747.4694                   23883758.0944
 116208640.078 8                  22113769.875
 121336457.75747  94547913.49744  23089560.9144                   23089566.3134
 11  7 23 14 37 30.0000000  0  7G14G20G16G32G24G31G23
 126868230.37346  98858392.76842  24142223.2114                   24142231.5354
 111774862.77848  87097320.33846  21270049.4304                   21270056.9024
 112003962.82648  87275844.45246  21313644.7584                   21313651.6094
 109115737.76648  85025279.56646  20764035.2974                   20764042.3634
 125573264.17146  97849334.42443  23895798.5944                   23895809.3364
 116278554.025 8                  22127074.086
 121260679.05947  94488865.18944  23075140.3054                   23075146.5274
 11  7 23 14 38  0.0000000  0  7G14G20G16G32G24G31G23
 126932179.63246  98908223.24643  24154392.7734                   24154400.7584
 111732558.48748  87064355.94946  21261998.9224                   21262006.0004
 111925527.68348  87214726.18946  21298718.8984                   21298726.2304
 109112953.71848  85023110.17846  20763505.7344                   20763512.8714
 125636729.36946  97898787.77843  23907876.1334                   23907886.6174
 116348537.122 8                  22140391.727
 121184888.38847  94429807.53144  23060718.0944                   23060723.8094
 11  7 23 14 38 30.0000000  0  7G14G20G16G32G24G31G23
 126996285.31446  98958175.67843  24166591.3754                   24166600.4924
 111690776.26448  87031798.36646  21254048.6254                   21254055.2974
 111847530.76748  87153949.39146  21283876.7664                   21283883.2584
 109110677.74448  85021336.67146  20763072.3674                   20763079.8524
 125700328.32746  97948345.28143  23919978.5784                   23919989.5084
 116418587.970 7                  22153722.133
 121109086.47047  94370741.11744  23046292.9304                   23046299.3674
 11  7 23 14 39  0.0000000  0  7G14G20G16G32G24G31G23
 127060547.55046  99008250.06343  24178820.3054                   24178829.0784
 111649517.74948  86999648.88446  21246197.1174                   21246203.7194
 111769975.05848  87093516.38146  21269118.6414                   21269125.0514
 109108910.69748  85019959.74146  20762736.0004                   20762743.5164
 125764057.96446  97998004.69043  23932105.5004                   23932115.7344
 116488705.300 8                  22167064.719
 121033274.52747  94311666.89844  23031867.1334                   23031872.6914
 11  7 23 14 39 30.0000000  0  7G14G20G16G32G24G31G23
 127124966.85046  99058446.91943  24191079.2114                   24191087.7114
 111608784.36548  86967908.60346  21238445.7584                   21238452.8094
 111692862.57048  87033428.75246  21254443.7814                   21254451.2074
 109107652.62748  85018979.42046  20762496.4144                   20762503.7704
 125827915.07247  98047763.42343  23944258.4064                   23944267.8134
 116558887.330 7                  22180420.086
 120957453.00847  94252585.21244  23017438.0084                   23017444.1994
 11  7 23 14 40  0.0000000  0  8G14G20G16G32G24G06G31G23
 127189543.23346  99108766.06743  24203367.5004                   24203376.8164
 111568577.34648  86936578.44146  21230794.9064                   21230801.4184
 111616195.80148  86973688.43946  21239854.9924                   21239861.6134
 109106904.36648  85018396.35046  20762354.6564                   20762362.0274
 125891897.21946  98097619.54544  23956433.0234                   23956443.7624
                                  24947638.289
 116629132.506 8                  22193786.992
 120881622.72547  94193496.71845  23003008.0314                   23003014.7074
 11  7 23 14 40 30.0000000  0  8G14G20G16G32G24G06G31G23
 127254277.22146  99159208.02543  24215685.5314                   24215695.2624
 111528898.45848  86905659.83146  21223244.3284                   21223250.8954
 111539978.23448  86914298.14546  21225351.1644                   21225358.4534
 109106666.43048  85018210.93746  20762309.2344                   20762316.5664
 125956001.50347  98147570.90743  23968631.7894                   23968642.3714
                                  24934320.000
 116699439.470 8                  22207166.000
 120805784.97947  94134402.40245  22988576.9224                   22988582.9344
 11  7 23 14 41  0.0000000  0  7G14G20G16G32G24G31G23
 127319169.05046  99209772.92643  24228034.9694                   24228043.3134
 111489749.36848  86875154.05946  21215794.0234                   21215800.7114
 111464212.56048  86855259.99746  21210933.4844                   21210940.4264
 109106939.42648  85018423.63846  20762360.9774                   20762368.0204
 126020225.08746  98197615.26543  23980852.9924                   23980863.2194
 116769806.681 8                  22220556.672
 120729940.60547  94075302.92644  22974143.8984                   22974149.6644
 11  7 23 14 41 30.0000000  0  8G14G20G16G32G24G06G31G23
 127384218.78046  99260460.99843  24240412.1804                   24240422.1134
 111451131.39848  86845062.12746  21208445.7504                   21208451.8054
 111388900.46948  86796575.28746  21196602.0474                   21196609.0164
 109107723.35847  85019034.48046  20762510.4224                   20762518.3134
 126084564.99546  98247750.18543  23993097.0234                   23993105.6094
                                  24907593.805
 116840232.493 8                  22233957.938
 120654090.42047  94016198.92344  22959710.5944                   22959716.3874
 11  7 23 14 42  0.0000000  0  8G14G20G16G32G24G06G31G23
 127449426.92745  99311272.41743  24252820.8674                   24252830.7194
 111413046.02248  86815385.21246  21201198.3984                   21201204.6454
 111314044.59548  86738246.06446  21182357.7584                   21182364.3364
 109109018.97048  85020044.03146  20762756.6644                   20762764.2774
 126149018.44346  98297973.61843  24005361.6724                   24005371.3244
 130819829.74714                  24894190.031
 116910715.546 8                  22247370.789
 120578235.31648  93957091.06844  22945275.5784                   22945281.3244
 11  7 23 14 42 30.0000000  0  7G14G20G16G32G24G31G23
 127514793.85045  99362207.58543  24265259.2274                   24265269.6994
 111375495.04648  86786124.73546  21194052.4144                   21194059.1884
 111239648.54048  86680275.12746  21168200.7034                   21168207.0514
 109110826.82348  85021452.74946  20763100.5864                   20763108.1294
 126213582.80146  98348283.47943  24017647.5474                   24017658.4884
 116981254.470 8                  22260793.508
 120502376.59548  93897980.39145  22930840.4924                   22930846.2934
 11  7 23 14 43  0.0000000  0  7G14G20G16G32G24G31G23
 127580319.70246  99413266.54443  24277731.0004                   24277738.8914
 111338479.56748  86757281.51046  21187008.6804                   21187015.4694
 111165714.29948  86622664.04346  21154131.2894                   21154138.3014
 109113146.89748  85023260.57646  20763542.1884                   20763549.9654
 126278255.04046  98398677.40343  24029955.2974                   24029964.9924
 117051847.799 7                  22274227.117
 120426514.71747  93838867.25644  22916403.9844                   22916409.3324
 11  7 23 14 43 30.0000000  0  7G14G20G16G32G24G31G23
 127646004.36846  99464449.32043  24290230.0944                   24290238.7664
 111302001.00448  86728856.65746  21180067.0234                   21180073.6214
 111092244.44948  86565414.82646  21140150.9844                   21140157.2544
 109115979.73348  85025467.97046  20764081.2424                   20764088.5274
 126343032.42046  98449153.15644  24042281.4534                   24042291.4774
 117122493.683 8                  22287671.367
 120350650.73847  93779752.48345  22901967.4844                   22901973.4494
 11  7 23 14 44  0.0000000  0  7G14G20G16G32G24G31G23
 127711848.23246  99515756.13143  24302758.8914                   24302768.5744
 111266060.84148  86700851.32646  21173228.1094                   21173234.3204
 111019241.57048  86508529.49146  21126258.6564                   21126264.7194
 109119325.76248  85028075.25346  20764717.7814                   20764725.8014
 126407912.14446  98499708.76843  24054627.8834                   24054637.9774
 117193191.033 7                  22301123.992
 120274785.62247  93720636.86444  22887531.0634                   22887536.5004
 11  7 23 14 44 30.0000000  0  8G14G20G16G32G24G06G31G23
 127777851.50046  99567187.09743  24315318.3524                   24315328.7114
 111230660.26548  86673266.46146  21166491.2114                   21166498.2504
 110946707.84148  86452009.69646  21112455.8594                   21112462.1764
 109123184.86248  85031082.32746  20765452.5084                   20765460.2854
 126472891.09047  98550341.65943  24066993.4694                   24067002.8484
 130465531.17815                  24826770.953
 117263938.056 8                  22314587.016
 120198920.16647  93661520.93644  22873094.6174                   22873100.0274
 11  7 23 14 45  0.0000000  0  8G14G20G16G32G24G06G31G23
 127844014.73946  99618742.76743  24327910.0864                   24327919.3984
 111195800.82248  86646103.27046  21159857.7734                   21159863.9774
 110874645.74748  86395857.45546  21098742.5394                   21098749.6884
 109127557.70548  85034489.72146  20766284.9454                   20766291.9884
 126537966.35846  98601049.58843  24079376.2194                   24079386.9494
 130394271.566 5                  24813209.469
 117334733.537 8                  22328058.859
 120123055.39047  93602405.55444  22858657.8364                   22858663.2664
 11  7 23 14 45 30.0000000  0  8G14G20G16G32G24G06G31G23
 127910337.78346  99670422.91443  24340530.9064                   24340540.2384
 111161483.75948  86619362.70246  21153327.4614                   21153334.5784
 110803058.09048  86340074.87746  21085119.9454                   21085127.1724
 109132444.31148  85038297.46746  20767214.7274                   20767222.3874
 126603135.28647  98651830.50543  24091776.9774                   24091788.1214
 130322883.62846 101550361.91152  24799625.2664                   24799636.2114
 117405575.920 7                  22341539.602
 120047192.37647  93543291.53244  22844221.5004                   22844227.0274
 11  7 23 14 46  0.0000000  0  8G14G20G16G32G24G06G31G23
 127976820.81646  99722227.73943  24353181.4384                   24353191.6214
 111127710.59148  86593045.94746  21146900.6334                   21146907.5394
 110731947.48948  86284664.04846  21071587.9384                   21071595.1724
 109137845.55348  85042506.20546  20768242.6024                   20768250.0474
 126668395.26647  98702682.45143  24104196.5004                   24104206.2074
 130251370.11646 101494637.18942  24786017.1804                   24786027.7194
 117476464.009 7                  22355029.641
 119971332.33547  93484179.84345  22829785.8444                   22829791.3094
 11  7 23 14 46 30.0000000  0  8G14G20G16G32G24G06G31G23
 128043464.29746  99774157.64843  24365863.5784                   24365873.7344
 111094482.58048  86567154.00946  21140577.6804                   21140584.3954
 110661316.50648  86229626.94846  21058147.2584                   21058154.2344
 109143761.13748  85047115.74046  20769368.3594                   20769375.6174
 126733743.50447  98753603.04844  24116631.7664                   24116641.8404
 130179733.16945 101438816.30542  24772384.0944                   24772395.4734
 117547396.486 7                  22368527.430
 119895475.97547  93425070.99144  22815350.6954                   22815356.5514
 11  7 23 14 47  0.0000000  0  8G14G20G16G32G24G06G31G23
 128110268.51946  99826212.74443  24378577.2034                   24378586.2034
 111061801.08148  86541687.91346  21134358.2664                   21134365.2154
 110591167.20348  86174965.16746  21044798.6884                   21044805.4414
 109150191.43948  85052126.35046  20770591.9224                   20770599.0274
 126799176.87646  98804590.03944  24129083.1724                   24129094.1994
 130107975.34146 101382901.19242  24758728.8914                   24758740.2664
 117618371.730 7                  22382033.336
 119819624.59447  93365966.01944  22800916.4224                   22800922.2304
 11  7 23 14 47 30.0000000  0  8G14G20G16G32G24G06G31G23
 128177233.64546  99878393.23243  24391319.7814                   24391329.0204
 111029667.35548  86516648.64046  21128243.7734                   21128250.4694
 110521502.33048  86120680.87346  21031541.8524                   21031548.5314
 109157136.84248  85057538.34746  20771913.5554                   20771920.8164
 126864692.70746  98855641.28543  24141551.1414                   24141561.0664
 130036099.17045 101326893.82142  24745051.1644                   24745062.2774
 117689388.569 7                  22395547.430
 119743779.11947  93306865.70444  22786482.9924                   22786489.6024
 11  7 23 14 48  0.0000000  0  8G14G20G16G32G24G06G31G23
 128244359.71646  99930699.19843  24404092.8834                   24404103.3874
 110998082.45648  86492037.04646  21122233.0004                   21122239.8554
 110452324.05148  86066775.75446  21018377.2504                   21018384.2814
 109164597.45848  85063351.81146  20773333.1724                   20773340.7234
 126930288.14746  98906754.52143  24154033.2114                   24154042.7774
 129964107.24945 101270796.26442  24731352.2584                   24731362.7504
 117760445.741 7                  22409069.008
 119667940.67147  93247770.84045  22772051.9064                   22772058.4104
 11  7 23 14 48 30.0000000  0  8G14G20G16G32G24G06G31G23
 128311646.86445  99983130.67742  24416896.5004                   24416906.4304
 110967047.53348  86467853.97946  21116327.5784                   21116334.2424
 110383634.73448  86013251.62946  21005306.4694                   21005313.0234
 109172573.29748  85069566.74146  20774851.1414                   20774858.2734
 126995960.47747  98957927.71044  24166529.6954                   24166541.6294
 129892001.83746 101214610.26142  24717631.3594                   24717642.0824
 117831541.812 7                  22422598.656
 119592110.29147  93188682.27945  22757621.7664                   22757627.8714
 11  7 23 14 49  0.0000000  0  8G14G20G16G32G24G06G31G23
 128379095.64445 100035688.00942  24429732.0634                   24429742.7304
 110936564.09648  86444100.66246  21110526.8134                   21110533.2774
 110315437.25548  85960110.76746  20992328.5944                   20992335.9104
 109181064.60748  85076183.32346  20776466.6644                   20776474.5274
 127061706.96446  99009158.66243  24179041.0474                   24179051.8014
 129819785.56745 101158337.84542  24703886.8594                   24703899.3634
 117902675.270 7                  22436134.281
 119516288.83947  93129600.63744  22743193.4774                   22743198.9654
 11  7 23 14 49 30.0000000  0  8G14G20G16G32G24G06G31G23
 128446705.96745 100088371.31242  24442599.3674                   24442608.2734
 110906633.44148  86420778.08646  21104831.0314                   21104837.8794
 110247733.48948  85907354.60346  20979445.4064                   20979451.8054
 109190071.59348  85083201.74746  20778180.5314                   20778188.3014
 127127524.81646  99060445.21743  24191566.4534                   24191575.4024
 129747461.12045 101101981.12642  24690126.4454                   24690137.5164
 117973844.983 7                  22449678.227
 119440477.56747  93070526.94244  22728767.0394                   22728772.7234
 11  7 23 14 50  0.0000000  0  8G14G20G16G32G24G06G31G23
 128514477.98945 100141180.55642  24455494.9384                   24455505.3054
 110877256.46948  86397886.93546  21099240.9534                   21099247.2584
 110180525.79248  85854984.99946  20966655.8984                   20966662.7074
 109199594.31848  85090622.04846  20779992.8364                   20780000.1054
 127193411.10246  99111785.15743  24204103.7734                   24204114.9104
 129675030.75445 101045541.94042  24676341.8364                   24676354.0784
 118045049.469 7                  22463227.758
 119364677.73247  93011462.20345  22714342.8594                   22714348.9144
 11  7 23 14 50 30.0000000  0  8G14G20G16G32G24G06G31G23
 128582411.69645 100194115.74842  24468424.3444                   24468433.2974
 110848434.09148  86375427.95446  21093755.9384                   21093762.5204
 110113816.46048  85803003.73146  20953961.4534                   20953968.3164
 109209632.47648  85098443.97646  20781902.9694                   20781910.8954
 127259362.64146  99163175.88343  24216654.0234                   24216665.1564
 129602497.07845 100989022.24742  24662540.9304                   24662551.6454
 118116287.421 7                  22476783.859
 119288889.90347  92952406.79345  22699920.8674                   22699926.9694
 11  7 23 14 51  0.0000000  0  8G14G20G16G32G24G06G31G23
 128650507.38845 100247177.21642  24481380.7034                   24481390.8714
 110820167.60748  86353402.13746  21088377.1564                   21088384.2734
 110047607.79948  85751412.57746  20941362.0004                   20941369.1454
 109220186.39148  85106667.79846  20783911.8284                   20783918.9024
 127325376.94046  99214615.50143  24229216.4064                   24229225.7034
                                  24648717.2194                   24648729.9614
 118187557.515 7                  22490345.883
 119213115.12547  92893361.54845  22685501.5394                   22685507.3524
 11  7 23 14 51 30.0000000  0  8G14G20G16G32G24G06G31G23
 128718765.415 4                  24494368.711
 110792458.28848  86331810.46446  21083104.1414                   21083110.9454
 109981902.23248  85700213.45246  20928859.1564                   20928865.6564
 109231256.24548  85115293.65346  20786017.9454                   20786025.5274
 127391451.18846  99266101.91143  24241789.8054                   24241799.7034
 129457129.30315                  24634877.242
 118258858.657 7                  22503913.781
 119137355.22447  92834327.87445  22671084.5394                   22671091.1884
 11  7 23 14 52  0.0000000  0  8G14G20G16G32G24G06G31G23
 128787185.62346 100353698.66452  24507390.2034                   24507398.9344
 110765307.03748  86310653.66546  21077937.3754                   21077944.5434
 109916702.11148  85649408.18546  20916451.8284                   20916458.5204
 109242841.80348  85124321.33746  20788222.5164                   20788230.1094
 127457582.56746  99317632.80743  24254374.8524                   24254385.4804
 129384300.640 5                  24621017.703
 118330189.424 7                  22517488.141
 119061610.97047  92775306.38745  22656671.2814                   22656676.7304
 11  7 23 14 52 30.0000000  0  8G14G20G16G32G24G06G31G23
 128855767.88746 100407139.26842  24520440.2814                   24520450.7154
 110738714.62248  86289932.31746  21072877.0864                   21072884.0234
 109852009.24048  85598998.17346  20904141.3134                   20904147.5744
 109254942.94148  85133750.78946  20790525.2664                   20790532.4844
 127523768.02046  99369205.68442  24266968.9694                   24266979.3554
 129311378.615 5                  24607141.125
 118401547.920 7                  22531066.969
 118985883.21847  92716297.77845  22642260.3674                   22642265.8674
 11  7 23 14 53  0.0000000  0  8G14G20G16G32G24G06G31G23
 128924512.85646 100460706.70043  24533523.0004                   24533533.0394
 110712682.39248  86269647.46746  21067923.4304                   21067930.3874
 109787826.38148  85548985.58146  20891927.9384                   20891934.5904
 109267560.03548  85143582.27946  20792926.3754                   20792934.2504
 127590005.10346  99420819.00743  24279574.2504                   24279584.4884
 129238366.258 4                  24593244.617
 118472933.923 7                  22544651.383
 118910173.52047  92657303.23245  22627853.6644                   22627858.8794
 11  7 23 14 53 30.0000000  0  8G14G20G16G32G24G06G31G23
 128993420.12246 100514400.57542  24546635.6174                   24546645.6884
 110687211.13548  86249799.74246  21063076.2114                   21063083.1484
 109724155.41148  85499371.86246  20879811.1414                   20879817.9024
 109280692.61648  85153815.42846  20795425.5634                   20795433.1254
 127656290.82746  99472470.14543  24292187.2114                   24292198.2544
 129165265.64915                  24579335.563
 118544345.543 7                  22558240.461
 118834482.84947  92598323.52945  22613450.4454                   22613456.1024
 11  7 23 14 54  0.0000000  0  8G14G20G16G32G24G06G31G23
 129062490.11346 100568221.22743  24559780.0554                   24559789.4414
 110662302.01148  86230390.04246  21058336.4534                   21058343.0354
 109660998.59948  85450158.78946  20867793.3364                   20867799.5744
 109294340.77748  85164450.34046  20798022.7664                   20798030.1024
 127722622.39446  99524156.99543  24304809.9224                   24304819.3444
 129092079.72445 100591286.10252  24565409.3834                   24565420.4614
 118615781.718 7                  22571834.586
 118758812.35247  92539359.52045  22599050.2504                   22599056.1054
 11  7 23 14 54 30.0000000  0  8G14G20G16G32G24G06G31G23
 129131723.09146 100622168.91243  24572954.3284                   24572964.1524
 110637955.99648  86211419.13446  21053703.1484                   21053709.8714
 109598357.99748  85401347.94246  20855873.2274                   20855879.7034
 109308504.67048  85175487.12746  20800717.8134                   20800725.3914
 127788997.20646  99575877.58342  24317439.2584                   24317451.1914
 129018810.98846 100534193.54942  24551467.0474                   24551478.2974
 118687241.429 8                  22585433.008
 118683163.26147  92480412.20145  22584654.7344                   22584660.1254
 11  7 23 14 55  0.0000000  0  8G14G20G16G32G24G06G31G23
 129201118.94246 100676243.47242  24586159.2894                   24586169.3984
 110614173.77948  86192887.53846  21049177.4224                   21049184.4104
 109536235.86248  85352941.12746  20844051.1024                   20844058.2034
 109323183.94648  85186925.50946  20803511.4224                   20803519.1054
 127855412.55246  99627629.67843  24330079.4454                   24330091.2624
 128945462.08545 100477038.58342  24537510.0474                   24537520.9654
 118758723.391 7                  22599035.313
 118607536.76547  92421482.48845  22570263.5634                   22570268.9184
 11  7 23 14 55 30.0000000  0  8G14G20G16G32G24G06G31G23
 129270677.85246 100730445.16642  24599396.9454                   24599406.2854
 110590956.57548  86174796.22446  21044759.6024                   21044766.1954
 109474634.37348  85304939.98046  20832328.7424                   20832335.7814
 109338378.34548  85198765.26746  20806402.9224                   20806410.3364
 127921865.52646  99679411.09743  24342724.4064                   24342734.7854
 128872035.58746 100419823.24342  24523537.2504                   24523548.4844
 118830226.000 7                  22612642.125
 118531933.99147  92362571.23845  22555876.6414                   22555882.2114
 11  7 23 14 56  0.0000000  0  8G14G20G16G32G24G06G31G23
 129340399.92345 100784773.97842  24612664.2814                   24612673.8984
 110568305.15548  86157145.76946  21040449.4924                   21040455.8754
 109413555.72348  85257346.24746  20820705.9304                   20820712.9144
 109354088.10248  85211006.62746  20809392.4454                   20809400.0984
 127988353.17746  99731219.63942  24355376.9304                   24355387.7854
 128798534.39946 100362549.63142  24509550.8444                   24509561.7114
 118901748.524 7                  22626252.297
 118456356.20547  92303679.47944  22541494.1644                   22541500.7814
 11  7 23 14 56 30.0000000  0  8G14G20G16G32G24G06G31G23
 129410285.13645 100839230.04242  24625962.4774                   24625972.4184
 110546220.31848  86139936.81446  21036246.4844                   21036253.6254
 109353001.75648  85210161.35746  20809182.8364                   20809189.8874
 109370312.80348  85223649.22946  20812479.5864                   20812487.2584
 128054872.84646  99783053.09242  24368035.0314                   24368047.1254
 128724960.59546 100305219.48842  24495549.2424                   24495560.7624
 118973289.715 7                  22639866.484
 118380804.80447  92244808.29445  22527117.4064                   22527123.4884
 11  7 23 14 57  0.0000000  0  8G14G20G16G32G24G06G31G23
 129480333.47746 100893812.98642  24639292.9614                   24639301.8714
 110524702.90148  86123169.98646  21032151.7584                   21032158.9024
 109292974.84048  85163387.17046  20797760.3134                   20797767.2344
 109387051.99448  85236692.72946  20815665.2504                   20815672.9104
 128121421.85445  99834909.37842  24380699.0394                   24380710.0204
 128651317.26946 100247835.10842  24481536.3754                   24481546.7624
 119044848.244 7                  22653483.070
 118305280.85447  92185958.48545  22512746.0474                   22512751.3244
 11  7 23 14 57 30.0000000  0  9G13G14G20G16G32G24G06G31G23
 129968938.34215                  24732289.828
 129550545.18445 100948523.35342  24652653.2664                   24652662.9144
 110503753.79448  86106846.01546  21028165.4224                   21028171.9534
 109233476.80848  85117025.08346  20786438.1414                   20786445.3914
 109404305.92648  85250137.33946  20818948.1334                   20818955.5944
 128187997.45746  99886786.37842  24393368.5944                   24393379.4024
 128577606.69446 100190398.34842  24467509.4614                   24467519.9534
 119116422.974 7                  22667104.063
 118229785.49247  92127130.97245  22498378.9454                   22498385.3714
 11  7 23 14 58  0.0000000  0  9G13G14G20G16G32G24G06G31G23
 129886121.89315                  24716529.086
 129620919.96145 101003360.79843  24666045.1804                   24666055.6684
 110483373.47248  86090965.23046  21024286.8984                   21024293.6724
 109174509.56248  85071076.60546  20775216.9844                   20775223.9734
 109422073.82048  85263982.43646  20822329.5234                   20822336.7384
 128254596.58245  99938681.68442  24406041.3754                   24406053.3874
 128503831.79746 100132911.48542  24453470.8594                   24453480.6484
 119188012.372 7                  22680727.039
 118154319.75047  92068326.53245  22484018.9064                   22484024.6844
 11  7 23 14 58 30.0000000  0  8G14G20G16G32G24G06G31G23
 129691458.36546 101058325.71742  24679468.6724                   24679479.0554
 110463563.39048  86075528.81346  21020517.0634                   21020524.4654
 109116075.45348  85025543.55546  20764097.4224                   20764104.3484
 109440356.16448  85278228.40446  20825807.9144                   20825815.9344
 128321216.72246  99990593.46352  24418718.9844                   24418729.9184
 128429995.21446 100075376.57642  24439419.3754                   24439430.7504
 119259615.903 7                  22694352.406
 118078885.62047  92009546.71645  22469664.0784                   22469670.2154
 11  7 23 14 59  0.0000000  0  9G13G14G20G16G32G24G06G31G23
 129720252.59015                  24684966.109
 129762159.86155 101113417.75352  24692922.2504                   24692933.0004
 110444323.75248  86060536.88546  21016856.3364                   21016862.6684
 109058176.14548  84980427.22846  20753079.6644                   20753085.9734
 109459151.90248  85292874.42546  20829385.5164                   20829392.5474
 128387855.26445 100042519.44642  24431400.3594                   24431412.1564
 128356099.52445 100017795.63142  24425356.7034                   24425368.7814
 119331232.210 8                  22707980.633
 118003483.92347  91950792.17845  22455316.1564                   22455321.5084
 11  7 23 14 59 30.0000000  0  9G13G14G20G16G32G24G06G31G23
 129637200.203 5                  24669162.344
 129833024.68145 101168637.03742  24706407.5864                   24706417.9534
 110425654.93648  86045989.74146  21013303.4924                   21013310.3794
 109000813.34248  84935728.95146  20742163.5704                   20742170.5664
 109478460.68348  85307920.20546  20833059.6174                   20833067.5744
                                  24444080.391
 128282147.20845  99960170.40942  24411284.8754                   24411295.6414
 119402859.792 7                  22721610.953
 117928115.68848  91892063.73045  22440973.9454                   22440979.5944
 11  7 23 15  0  0.0000000  0  9G13G14G20G16G32G24G06G31G23
 129554070.239 5                  24653342.422
 129904052.66646 101223983.34042  24719925.3674                   24719934.5274
 110407558.11448  86031888.30646  21009859.9844                   21009866.8484
 108943989.39248  84891450.57646  20731350.3594                   20731357.0784
 109498282.55248  85323365.80646  20836831.7344                   20836838.9654
 128521181.26815                  24456769.570
 128208141.03145  99902503.35642  24397201.2974                   24397212.6524
 119474497.998 7                  22735243.023
 117852782.43447  91833362.52545  22426638.4614                   22426643.5354
 11  7 23 15  0 30.0000000  0  9G13G14G20G16G32G24G06G31G23
 129470863.797 5                  24637506.234
 129975244.46745 101279457.42642  24733470.5394                   24733480.7074
 110390034.36748  86018233.42846  21006525.3054                   21006531.8794
 108887706.52648  84847593.81346  20720640.0234                   20720646.8754
 109518617.72848  85339211.38446  20840701.4454                   20840708.2664
 128587858.368 5                  24469458.719
 128134084.40746  99844796.84542  24383109.6094                   24383119.7424
 119546146.046 7                  22748876.898
 117777485.92147  91774689.93245  22412309.8444                   22412315.3404
 11  7 23 15  1  0.0000000  0  9G13G14G20G16G32G24G06G31G23
                                  24621660.805
 130046600.50445 101335059.51852  24747048.6174                   24747060.5554
 110373084.33548  86005025.61646  21003299.6564                   21003306.5634
 108831966.99348  84804160.43046  20710033.3914                   20710039.8714
 109539465.68148  85355456.54346  20844668.7734                   20844676.0434
 128654543.214 6                  24482148.438
 128059980.00846  99787053.24043  24369007.0394                   24369018.5664
 119617802.908 7                  22762512.594
 117702227.39347  91716046.95845  22397988.8754                   22397994.7854
 11  7 23 15  1 30.0000000  0  9G13G14G20G16G32G24G06G31G23
 129304220.501 5                  24605796.188
 130118119.82845 101390788.69152  24760659.8444                   24760670.8714
 110356708.33848  85992265.09346  21000183.7114                   21000190.4064
 108776771.76548  84761151.18846  20699529.8054                   20699536.6954
 109560825.34248  85372100.41546  20848733.6724                   20848740.6484
 128721232.303 6                  24494838.594
 127985829.86745  99729273.92642  24354898.0084                   24354908.2424
 119689466.858 7                  22776150.352
 117627007.69947  91657434.24145  22383674.5314                   22383680.5594
 11  7 23 15  2  0.0000000  0 10G03G13G14G20G16G32G24G06G31G23
                                  24563014.188
 129220786.13315                  24589922.063
 130189802.365 5                  24774300.664
 110340906.62548  85979952.07046  20997175.9454                   20997183.1454
 108722123.00948  84718567.76446  20689130.2734                   20689136.5984
 109582696.52448  85389142.88546  20852894.8914                   20852902.1604
 128787922.997 6                  24507529.844
 127911636.44145  99671460.87442  24340778.1884                   24340789.8324
 119761136.887 7                  22789788.734
 117551828.30747  91598852.92545  22369368.6884                   22369374.2894
 11  7 23 15  2 30.0000000  0  9G13G14G20G16G32G24G06G31G23
                                  24574030.023
 130261648.412 5                  24787973.219
 110325680.00748  85968087.16046  20994279.0944                   20994285.7624
 108668022.32148  84676411.41546  20678835.6884                   20678842.6644
 109605078.93748  85406583.71746  20857154.5164                   20857161.8284
 128854613.067 6                  24520221.188
 127837403.12046  99613616.75442  24326652.8054                   24326663.5704
 119832811.993 7                  22803428.039
 117476690.60647  91540304.09345  22355070.4304                   22355076.3914
 11  7 23 15  3  0.0000000  0 10G03G13G14G20G16G32G24G06G31G23
                                  24529659.672
                                  24558123.633
 130333658.658 5                  24801675.445
 110311029.76848  85956671.38146  20991491.0554                   20991498.2074
 108614472.54248  84634684.33546  20668645.7194                   20668651.7114
 109627972.68248  85424422.98446  20861510.8284                   20861518.5084
                                  24532909.477
 127763133.35055  99555744.06152  24312519.4064                   24312530.6414
 119904491.809 7                  22817068.219
 117401596.68248  91481789.37545  22340780.1724                   22340786.4344
 11  7 23 15  3 30.0000000  0 10G03G13G14G20G16G32G24G06G31G23
 128816261.98915                  24512939.719
 128970036.04915                  24542205.977
 130405830.712 5                  24815409.117
 110296954.33048  85945703.50746  20988812.5634                   20988819.4844
 108561473.02348  84593386.04046  20658559.9224                   20658566.4104
 109651375.13348  85442658.64246  20865964.0864                   20865971.8324
 128987984.20015                  24545598.852
 127688827.28515                  24298378.203
 119976173.483 7                  22830708.992
 117326545.77547  91423308.14645  22326498.4774                   22326503.8134
 11  7 23 15  4  0.0000000  0 10G03G13G14G20G16G32G24G06G31G23
 128728255.822 5                  24496192.570
 128886304.461 4                  24526269.430
 130478166.90645 101671351.48952  24829175.8914                   24829184.2974
 110283456.68648  85935185.85346  20986244.4844                   20986251.4104
 108509027.94348  84552519.76546  20648579.8594                   20648586.5704
 109675288.12348  85461292.12946  20870514.8524                   20870521.9734
 129054655.736 5                  24558286.898
 127614488.18755  99439924.16252  24284234.4614                   24284245.8594
 120047857.811 7                  22844349.961
 117251541.08747  91364862.96945  22312225.3754                   22312231.0164
 11  7 23 15  4 30.0000000  0 10G03G13G14G20G16G32G24G06G31G23
                                  24479415.813
                                  24510322.180
 130550666.02845 101727844.23242  24842972.0004                   24842981.4454
 110270535.70948  85925117.55246  20983785.5784                   20983792.4224
 108457137.66948  84512085.80346  20638705.6724                   20638712.2854
 109699709.72648  85480321.94946  20875161.7034                   20875169.6254
 129121315.293 6                  24570971.867
 127540121.47645  99381976.03042  24270081.5944                   24270093.2774
 120119542.758 7                  22857991.492
 117176583.30447  91306454.33545  22297961.4534                   22297966.9264
 11  7 23 15  5  0.0000000  0 10G03G13G14G20G16G32G24G06G31G23
                                  24462617.695
 128718622.335 6                  24494361.469
 130623327.88345 101784463.74252  24856798.1174                   24856809.3914
 110258191.72948  85915498.87546  20981436.2274                   20981443.0314
 108405804.14348  84472085.67846  20628936.8754                   20628943.9304
 109724639.72148  85499747.91246  20879905.7974                   20879913.6684
 129187959.953 6                  24583654.664
 127465728.07246  99324007.14242  24255925.5314                   24255936.6414
 120191227.488 7                  22871632.445
 117101673.98447  91248083.45845  22283706.6254                   22283712.6524
 11  7 23 15  5 30.0000000  0  9G13G14G20G16G32G24G06G31G23
 128634673.147 5                  24478386.469
 130696152.68745 101841210.29942  24870657.1954                   24870667.7304
 110246425.79348  85906330.60946  20979197.5944                   20979204.5314
 108355029.27448  84432520.86746  20619274.8204                   20619281.8134
 109750077.55148  85519569.58246  20884746.4064                   20884754.0204
 129254587.750 6                  24596333.109
 127391311.05846  99266019.89443  24241763.2274                   24241776.3594
 120262910.981 7                  22885273.461
 117026814.76448  91189751.61345  22269461.6414                   22269466.8984
 11  7 23 15  6  0.0000000  0  9G13G14G20G16G32G24G06G31G23
 128550653.118 5                  24462397.883
 130769141.280 5                  24884545.852
 110235238.45248  85897613.19446  20977068.6884                   20977075.2504
 108304815.26848  84393393.09746  20609719.7664                   20609726.1454
 109776023.32948  85539787.05346  20889684.1254                   20889691.4614
 129321195.629 5                  24609006.984
 127316873.37546  99208016.48742  24227599.7504                   24227610.3834
 120334592.931 7                  22898913.273
 116952006.81248  91131459.71645  22255226.1954                   22255231.7894
 11  7 23 15  6 30.0000000  0  9G13G14G20G16G32G24G06G31G23
 128466562.835 5                  24446394.109
                                  24898465.000
 110224630.02448  85889346.88746  20975049.7584                   20975056.5864
 108255163.08348  84354703.09846  20600270.9614                   20600277.4304
 109802475.93748  85560399.47046  20894717.7814                   20894725.3164
 129387781.18116                  24621678.570
 127242417.76746  99149999.23542  24213430.6884                   24213441.5704
 120406271.735 7                  22912554.352
 116877251.64248  91073208.95145  22241000.7734                   22241005.8484
 11  7 23 15  7  0.0000000  0  9G13G14G20G16G32G24G06G31G23
 128382402.670 5                  24430379.430
 130915605.32115                  24912417.859
 110214600.52848  85881531.69546  20973141.3204                   20973147.9774
 108206074.47648  84316452.24846  20590929.6644                   20590936.1914
 109829434.60148  85581406.20346  20899847.8914                   20899855.1414
 129454341.314 5                  24634345.086
 127167946.91146  99091969.84142  24199258.9454                   24199269.6524
 120477946.477 7                  22926193.602
 116802550.47747  91015000.29445  22226785.3524                   22226791.6214
 11  7 23 15  7 30.0000000  0  9G13G14G20G16G32G24G06G31G23
 128298172.97145  99972719.91552  24414351.9304                   24414360.0944
 130989082.31015                  24926401.008
 110205150.29148  85874167.87146  20971342.9064                   20971350.2274
 108157550.97248  84278641.74046  20581695.8594                   20581702.4144
 109856898.57048  85602806.69046  20905074.0554                   20905081.5664
 129520873.251 5                  24647006.281
 127093463.23746  99033930.79742  24185085.4614                   24185096.1174
 120549616.089 7                  22939831.117
 116727904.61948  90956834.69645  22212581.1954                   22212586.6884
 11  7 23 15  8  0.0000000  0  9G13G14G20G16G32G24G06G31G23
 128213874.60546  99907032.90642  24398310.5084                   24398319.8954
 131062722.04715                  24940413.336
 110196280.24048  85867256.14046  20969655.1954                   20969662.2344
 108109594.25948  84241272.89446  20572569.8204                   20572576.8834
 109884867.66748  85624600.77546  20910396.5234                   20910403.6804
 129587375.370 5                  24659662.680
 127018970.09346  98975884.30442  24170909.6024                   24170921.1564
 120621279.838 7                  22953468.664
 116653316.37548  90898714.01545  22198387.2274                   22198392.9694
 11  7 23 15  8 30.0000000  0  9G13G14G20G16G32G24G06G31G23
 128129507.78146  99841292.65552  24382255.2114                   24382265.6134
 131136524.344 4                  24954456.492
 110187990.04448  85860796.23646  20968077.7424                   20968084.2974
 108062205.91248  84204346.92846  20563552.4694                   20563558.8324
 109913340.86948  85646787.67746  20915814.9144                   20915822.4304
 129653844.025 5                  24672309.125
 126944470.06346  98917832.47143  24156733.8524                   24156744.3674
 120692936.785 7                  22967104.633
 116578786.72848  90840638.97745  22184204.9774                   22184210.4844
 11  7 23 15  9  0.0000000  0 10G03G13G14G20G16G32G24G06G31G23
 127840972.90455  99616389.47952  24327331.6094                   24327341.1214
 128045073.87346  99775500.00342  24366187.8524                   24366198.4184
                                  24968531.742
 110180280.35948  85854788.69446  20966610.4844                   20966617.0004
 108015387.89248  84167865.36046  20554643.1334                   20554649.6334
 109942317.96748  85669367.21046  20921329.1884                   20921336.2934
 129720277.69014                  24684953.156
 126869966.23246  98859777.68643  24142555.5704                   24142567.3364
 120764586.434 7                  22980738.695
 116504317.55647  90782611.08345  22170033.6484                   22170039.4264
 11  7 23 15  9 30.0000000  0  9G03G13G14G20G16G32G06G31G23
 127751563.38246  99546719.64642  24310318.2504                   24310328.2774
 127960573.24146  99709655.42142  24350108.8674                   24350117.9734
 131284616.85515                  24982641.758
 110173150.71648  85849233.12246  20965253.6254                   20965260.5704
 107969140.72847  84131828.64646  20545842.5944                   20545849.6564
 109971797.39848  85692338.18546  20926938.6254                   20926946.1804
 126795460.83845  98801721.63543  24128376.4844                   24128387.9924
 120836226.652 7                  22994372.188
 116429909.37647  90724630.72345  22155874.2424                   22155880.2584
 11  7 23 15 10  0.0000000  0 10G03G13G14G20G16G32G24G06G31G23
 127662041.77455  99476962.56552  24293282.1804                   24293292.8984
 127876006.69446  99643759.37342  24334016.7974                   24334025.4734
 131358905.31515                  24996778.117
 110166601.87748  85844130.12746  20964007.6484                   20964014.1954
 107923466.60447  84096238.44646  20537151.2664                   20537157.9064
 110001778.81248  85715700.31446  20932643.8674                   20932651.5514
 129853004.45315                  24710213.438
 126720957.29946  98743667.07943  24114199.5704                   24114211.1884
 120907857.691 7                  23008003.141
 116355564.43247  90666699.63745  22141726.5394                   22141732.3244
 11  7 23 15 10 30.0000000  0 10G03G13G14G20G16G32G24G06G31G23
 127572410.87855  99407120.28752  24276225.7034                   24276236.8204
 127791374.86246  99577812.56042  24317910.7664                   24317920.1094
                                  25010942.711
 110160633.57348  85839479.50946  20962871.7034                   20962878.5704
 107878366.82548  84061095.77346  20528568.7424                   20528575.0554
 110032261.76948  85739453.24846  20938444.5084                   20938451.9494
 129919314.689 5                  24722831.258
 126646458.05346  98685615.85642  24100022.4454                   24100034.0274
 120979478.277 7                  23021631.633
 116281284.30847  90608819.04045  22127591.9454                   22127597.1214
 11  7 23 15 11  0.0000000  0 10G03G13G14G20G16G32G24G06G31G23
                                  24259149.781
 127706678.36146  99511815.34143  24301794.1724                   24301803.1804
                                  25025142.164
 110155246.61148  85835281.86046  20961846.7734                   20961853.9574
 107833843.05448  84026401.95646  20520095.7034                   20520103.1724
 110063244.93948  85763595.96146  20944340.4064                   20944347.7974
 129985578.594 6                  24735441.102
 126571966.04946  98627570.33642  24085847.1644                   24085858.3954
 121051087.587 7                  23035258.094
 116207070.30247  90550989.98945  22113469.0084                   22113474.9184
 11  7 23 15 11 30.0000000  0  9G03G13G20G16G32G24G06G31G23
 127392831.11215                  24242054.789
 127621917.84046  99445768.23942  24285663.9774                   24285673.5744
 110150441.00348  85831537.23446  20960932.5314                   20960939.2154
 107789896.27848  83992157.73546  20511733.6334                   20511740.2734
 110094727.91648  85788128.13846  20950331.7584                   20950339.1804
 130051793.758 6                  24748040.469
 126497484.15946  98569532.53742  24071673.1884                   24071685.0944
 121122684.926 7                  23048883.023
 116132923.85847  90493213.58045  22099359.6174                   22099365.4454
 11  7 23 15 12  0.0000000  0 10G03G13G14G20G16G32G24G06G31G23
 127302888.25715                  24224938.188
 127537093.69146  99379671.56843  24269522.9064                   24269531.6844
 131657680.30115                  25053631.508
 110146216.37448  85828245.31846  20960128.3834                   20960135.4964
 107746528.13548  83958364.39946  20503480.9064                   20503487.7584
 110126709.55848  85813048.88146  20956417.4064                   20956425.1994
 130117957.223 6                  24760631.211
 126423015.19146  98511504.92642  24057502.9614                   24057513.8984
 121194268.920 7                  23062505.086
 116058846.42047  90435490.92145  22085263.4534                   22085269.0554
 11  7 23 15 12 30.0000000  0 10G03G13G14G20G16G32G24G06G31G23
 127212846.735 5                  24207804.438
 127452207.14046  99313526.20842  24253369.8204                   24253378.1844
                                  25067918.813
 110142572.99648  85825406.31346  20959435.0474                   20959441.7234
 107703739.72248  83925022.79746  20495338.6414                   20495344.5744
 110159189.10048  85838357.59646  20962598.2034                   20962605.8164
 130184066.66546 101442196.81352  24773212.3134                   24773221.4304
 126348562.00745  98453489.60542  24043334.6884                   24043345.5044
 121265838.737 7                  23076123.977
 115984839.63547  90377823.31845  22071179.9384                   22071184.9384
 11  7 23 15 13  0.0000000  0  9G13G14G20G16G32G24G06G31G23
 127367257.62746  99247331.85143  24237203.9144                   24237212.6604
 131808144.45215                  25082244.820
 110139509.97648  85823019.55046  20958851.7974                   20958858.8914
 107661531.14148  83892133.00546  20487306.9064                   20487312.7704
 110192164.53348  85864052.72846  20968873.2584                   20968880.8834
 130250118.21845 101493665.41242  24785778.9694                   24785792.1644
 126274126.324 6                  24029170.227
 121337392.614 7                  23089740.609
 115910903.92647  90320211.09445  22057110.4454                   22057115.9224
 11  7 23 15 13 30.0000000  0  9G13G14G20G16G32G24G06G31G23
 127282248.42046  99181090.97743  24221027.3524                   24221036.3054
 131883565.73615                  25096596.555
 110137029.70047  85821086.85646  20958380.2424                   20958387.5944
 107619906.50448  83859698.22946  20479385.4924                   20479391.9144
 110225637.58748  85890135.60946  20975242.7504                   20975250.4964
 130316111.89146 101545088.93942  24798340.5004                   24798350.6174
 126199713.460 6                  24015009.602
 121408932.253 7                  23103354.000
 115837043.54647  90262657.57445  22043055.5164                   22043060.3054
 11  7 23 15 14  0.0000000  0 10G03G13G14G20G16G32G24G06G31G23
 126942066.45515                  24156294.102
 127197178.77846  99114803.08843  24204839.5164                   24204848.3444
 131959147.505 6                  25110979.453
 110135130.48347  85819606.94346  20958018.6644                   20958025.4454
 107578865.26548  83827718.06746  20471575.6884                   20471581.5204
 110259605.48248  85916604.08346  20981706.5004                   20981714.6884
 130382043.15445 101596463.86742  24810885.8914                   24810897.7304
 126125324.791 5                  24000853.594
 121480455.063 7                  23116964.586
 115763258.15048  90205162.47345  22029014.6254                   22029019.4924
 11  7 23 15 14 30.0000000  0 10G03G13G14G20G16G32G24G06G31G23
 126851656.89815                  24139089.711
 127112049.83246  99048468.86043  24188638.9694                   24188647.8634
 132034890.53115                  25125391.727
 110133812.27948  85818579.78346  20957767.8364                   20957774.7384
 107538409.72548  83796194.28946  20463877.1094                   20463883.9694
 110294068.09448  85943458.04446  20988264.6334                   20988272.6524
 130447910.14256 101647788.71952  24823420.8674                   24823431.5554
 126050963.73846  98221576.24352  23986703.2114                   23986712.4344
 121551960.984 7                  23130571.719
 115689550.17347  90147727.71445  22014988.4774                   22014994.0004
 11  7 23 15 15  0.0000000  0 10G03G13G14G20G16G32G24G06G31G23
 126761162.338 5                  24121867.547
 127026862.06646  98982088.82443  24172429.0704                   24172437.2304
 132110794.16355 102943469.03152  25139836.7584                   25139847.9104
 110133075.72948  85818005.84846  20957627.9924                   20957634.8484
 107498540.35548  83765127.27246  20456290.1414                   20456296.2664
 110329024.05848  85970696.44046  20994916.8834                   20994924.3794
 130513710.12445 101699061.32442  24835940.6254                   24835953.0904
 125976632.87046  98163656.17843  23972558.4614                   23972569.0554
 121623449.005 7                  23144175.297
 115615920.83647  90090354.20445  22000977.3674                   22000982.2304
 11  7 23 15 15 30.0000000  0 10G03G13G14G20G16G32G24G06G31G23
 126670585.37715                  24104629.219
 126941616.22246  98915663.56043  24156206.4224                   24156215.9734
                                  25154307.734
 110132920.60048  85817884.96346  20957598.0234                   20957604.8444
 107459258.28548  83734517.89646  20448814.8674                   20448821.8134
 110364472.51948  85998318.60346  21001662.0474                   21001670.0514
 130579440.54945 101750279.85342  24848448.6884                   24848462.2234
 125902334.87546  98105761.78543  23958420.0944                   23958430.7974
 121694918.453 7                  23157775.773
 115542371.93348  90033043.38545  21986981.3054                   21986986.4924
 11  7 23 15 16  0.0000000  0  9G03G13G20G16G32G24G06G31G23
 126579928.82515                  24087381.211
 126856313.26546  98849193.78643  24139974.1094                   24139984.0354
 110133346.41848  85818216.77446  20957679.4224                   20957686.1914
 107420564.86848  83704367.19346  20441452.1954                   20441458.1884
 110400412.43948  86026323.73146  21008501.4454                   21008509.1094
 130645099.09445 101801442.18442  24860943.4924                   24860956.9494
 125828073.11946  98047895.51343  23944288.7974                   23944298.7704
 121766368.103 7                  23171372.383
 115468904.82648  89975796.31145  21973001.1024                   21973006.0314
 11  7 23 15 16 30.0000000  0  9G03G13G20G16G32G24G06G31G23
 126489196.40715                  24070112.711
 126770953.72846  98782679.90343  24123730.4144                   24123739.9804
 110134352.85748  85819001.00646  20957870.6804                   20957877.6214
 107382460.95248  83674675.85346  20434200.7664                   20434207.4024
 110436842.11248  86054710.46946  21015433.7504                   21015441.0554
 130710682.19556 101852545.86652  24873424.3364                   24873436.5274
 125753849.68146  97990059.11043  23930164.5704                   23930174.7664
 121837797.029 7                  23184964.313
 115395520.76148  89918613.93245  21959036.6414                   21959041.7664
 11  7 23 15 17  0.0000000  0 10G03G13G14G20G16G32G24G06G31G23
                                  24052832.188
 126685539.03646  98716123.07643  24107476.1334                   24107485.6524
 132416027.00115                  25197916.859
 110135940.69747  85820238.27946  20958172.9304                   20958179.5784
 107344948.45048  83645445.35046  20427062.3444                   20427069.1604
 110473761.77448  86083479.01446  21022459.1174                   21022467.2424
 130776188.37946 101903589.57742  24885889.0784                   24885903.0984
 125679668.42246  97932255.65143  23916047.2814                   23916058.6454
 121909205.168 7                  23198553.031
 115322222.30548  89861498.27345  21945087.6334                   21945093.4384
 11  7 23 15 17 30.0000000  0  9G03G13G20G16G32G24G06G31G23
 126307509.17315                  24035538.953
 126600069.36646  98649523.36843  24091212.3834                   24091221.3054
 110138108.69648  85821927.64046  20958585.5394                   20958592.4924
 107308027.67248  83616675.92746  20420036.5944                   20420043.3324
 110511169.40048  86112627.79246  21029577.9384                   21029585.7274
 130841614.624 5                  24898339.000
 125605531.87346  97874486.95043  23901939.3674                   23901951.0664
 121980591.114 7                  23212136.727
 115249010.41248  89804450.07145  21931156.0864                   21931161.2504
 11  7 23 15 18  0.0000000  0 10G03G13G14G20G16G32G24G06G31G23
 126216561.35556  98350688.66452  24018233.5474                   24018243.4734
 126514546.08646  98582881.86343  24074938.5234                   24074946.5044
 132569588.77456 103300949.47852  25227141.3284                   25227150.7664
 110140857.13448  85824069.26446  20959108.0314                   20959115.2974
 107271699.91748  83588368.61646  20413123.4224                   20413130.3524
 110549064.43148  86142156.37646  21036789.1094                   21036796.2894
 130906958.918 5                  24910775.531
 125531442.86546  97816755.38043  23887840.1334                   23887852.3204
 122051954.409 7                  23225717.242
 115175887.20748  89747470.98145  21917241.2814                   21917246.7734
 11  7 23 15 18 30.0000000  0 10G03G13G14G20G16G32G24G06G31G23
 126125547.35455  98279768.81252  24000913.0554                   24000923.6844
 126428969.51146  98516198.91343  24058653.0474                   24058661.9264
 132646609.49346 103360965.47442  25241797.0394                   25241808.4264
 110144185.33948  85826662.68146  20959741.6094                   20959748.5044
 107235966.12448  83560524.12046  20406323.8524                   20406330.3284
 110587445.26948  86172063.49946  21044092.6564                   21044100.4694
 130972217.808 5                  24923193.781
 125457404.19546  97759062.98043  23873752.8364                   23873762.6414
 122123294.303 7                  23239293.000
 115102853.69948  89690561.78845  21903343.3984                   21903349.5164
 11  7 23 15 19  0.0000000  0 10G03G13G14G20G16G32G24G06G31G23
 126034470.09956  98208799.66052  23983581.5554                   23983592.3794
 126343340.77446  98449475.28743  24042358.8364                   24042367.2814
 132723788.73346 103421105.04242  25256484.0234                   25256494.6094
 110148093.54248  85829708.01946  20960485.4924                   20960492.1764
 107200827.36447  83533143.27946  20399637.1954                   20399643.4344
 110626311.07248  86202348.52246  21051488.9844                   21051496.7424
 131037389.458 5                  24935596.148
 125383418.85546  97701412.13043  23859672.9844                   23859683.4064
 122194609.849 7                  23252863.773
 115029911.98148  89633724.09845  21889463.2424                   21889468.4264
 11  7 23 15 19 30.0000000  0  9G03G13G14G20G16G32G06G31G23
 125943332.83845  98137783.71142  23966238.9454                   23966249.0944
 126257660.80847  98382711.73943  24026054.5554                   24026062.9774
 132801127.01415                  25271200.781
 110152581.53148  85833205.15346  20961339.4304                   20961346.3834
 107166284.83447  83506227.03546  20393063.8674                   20393070.4774
 110665660.91448  86233010.72346  21058976.9144                   21058984.8014
 125309490.24846  97643805.39143  23845605.7504                   23845614.5634
 122265900.740 7                  23266430.500
 114957064.11148  89576959.54345  21875600.6954                   21875606.2384
 11  7 23 15 20  0.0000000  0  9G03G13G14G20G16G32G06G31G23
 125852138.34445  98066723.07542  23948884.7114                   23948894.9494
 126171930.42447  98315908.89043  24009740.0474                   24009749.3874
 132878623.042 6                  25285948.914
 110157648.97448  85837153.80146  20962303.5164                   20962310.6214
 107132339.56748  83479776.20046  20386604.3284                   20386610.8954
 110705493.53248  86264049.10346  21066556.2664                   21066564.6484
 125235620.72346  97586244.94343  23831547.6174                   23831557.7664
 122337166.083 7                  23279991.313
 114884311.50148  89520269.20345  21861756.6024                   21861761.3324
 11  7 23 15 20 30.0000000  0  9G03G13G14G20G16G32G06G31G23
 125760888.27146  97995619.31143  23931520.1954                   23931530.8754
 126086150.03646  98249067.07543  23993416.9844                   23993425.5354
 132956276.09114                  25300724.938
 110163294.74948  85841553.09846  20963378.0784                   20963384.8284
 107098991.71748  83453790.87946  20380258.1564                   20380264.7544
 110745807.10748  86295462.25146  21074227.7664                   21074235.9384
 125161813.10747  97528732.60944  23817503.0084                   23817513.6844
 122408404.763 7                  23293548.625
 114811655.16848  89463653.91345  21847930.1644                   21847935.8984
 11  7 23 15 21  0.0000000  0 10G03G13G14G20G16G32G24G06G31G23
 125669587.03846  97924475.52342  23914146.2664                   23914156.4184
 126000321.40146  98182187.69943  23977084.0554                   23977092.4924
 133034087.64814                  25315532.039
 110169519.97248  85846403.91246  20964562.9454                   20964569.1684
 107066243.23448  83428272.60146  20374026.5084                   20374033.0594
 110786601.71748  86327250.23946  21081990.6564                   21081998.5554
                                  24985035.320
 125088071.22946  97471271.49043  23803469.5784                   23803480.4534
 122479617.153 7                  23307099.234
 114739098.03548  89407115.91445  21834122.9924                   21834128.4414
 11  7 23 15 21 30.0000000  0  9G03G13G14G20G16G32G06G31G23
 125578236.62545  97853293.40943  23896762.4224                   23896772.4264
 125914444.56846  98115270.74143  23960742.2274                   23960750.3244
                                  25330370.430
 110176322.80948  85851704.81946  20965857.3834                   20965863.6564
 107034093.94248  83403221.23446  20367908.9224                   20367915.1844
 110827874.85448  86359411.10346  21089845.1564                   21089852.6214
 125014396.87846  97413863.05143  23789450.7114                   23789460.3284
 122550801.490 7                  23320645.523
 114666640.69848  89350655.65745  21820334.9304                   21820340.6374
 11  7 23 15 22  0.0000000  0  8G03G13G20G16G32G06G31G23
 125486840.66555  97782075.96652  23879370.0944                   23879381.2074
 125828521.58247  98048317.78843  23944391.4224                   23944399.9224
 110183703.93248  85857456.32846  20967261.6804                   20967268.5824
 107002546.01047  83378638.44646  20361905.5784                   20361911.9534
 110869626.67248  86391944.95546  21097790.0864                   21097798.0434
 124940794.32346  97356510.50743  23775443.7344                   23775454.6414
 122621958.393 7                  23334185.656
 114594286.25248  89294275.59445  21806566.5634                   21806571.8054
 11  7 23 15 22 30.0000000  0  8G03G13G20G16G32G06G31G23
                                  23861970.6094                   23861981.6484
 125742552.65146  97981329.05943  23928031.5554                   23928040.1254
 110191662.18048  85863657.56446  20968776.0314                   20968783.0554
 106971599.11247  83354523.98946  20356016.4384                   20356022.9024
 110911854.80048  86424849.96246  21105825.9534                   21105833.0864
 124867265.55746  97299215.41443  23761452.2734                   23761461.8634
 122693086.357 7                  23347721.227
 114522035.37548  89237976.22745  21792817.7974                   21792823.0904
 11  7 23 15 23  0.0000000  0  8G03G13G20G16G32G06G31G23
 125303921.76556  97639541.96653  23844563.4304                   23844573.7344
 125656538.63647  97914305.20143  23911664.5314                   23911672.6134
 110200197.54148  85870308.47246  20970400.3204                   20970406.7894
 106941254.92848  83330879.18146  20350241.9844                   20350248.5634
 110954558.54048  86458125.58946  21113952.1724                   21113959.5474
 124793813.90946  97241980.57042  23747474.2894                   23747484.8164
 122764184.641 7                  23361250.820
 114449890.28648  89181759.29445  21779088.5394                   21779094.2894
 11  7 23 15 23 30.0000000  0  8G03G13G20G16G32G06G31G23
 125212404.38845  97568229.77043  23827147.6334                   23827157.5594
 125570480.39547  97847246.85243  23895288.1564                   23895295.9734
 110209309.19248  85877408.46246  20972134.5704                   20972140.5274
 106911513.48548  83307704.04946  20344582.4304                   20344588.8594
 110997736.05348  86491770.39046  21122168.4774                   21122176.1374
 124720442.03846  97184807.79643  23733512.7974                   23733522.2734
 122835252.526 7                  23374774.180
 114377852.34848  89125625.84845  21765380.6094                   21765385.9964
 11  7 23 15 24  0.0000000  0  8G03G13G20G16G32G06G31G23
 125120852.27146  97496890.62643  23809725.6254                   23809735.2344
 125484379.05646  97780154.97643  23878903.8444                   23878911.1214
 110218996.47048  85884956.98546  20973978.0004                   20973984.8874
 106882375.67448  83284999.27946  20339037.4144                   20339043.8134
 111041386.26048  86525783.51146  21130475.1414                   21130482.2704
 124647153.09345  97127699.61742  23719565.4844                   23719575.7504
 122906289.716 7                  23388292.219
 114305923.54248  89069577.46945  21751692.8594                   21751698.1764
 11  7 23 15 24 30.0000000  0  9G03G13G20G16G32G24G06G31G23
 125029268.51646  97425526.71843  23792296.8284                   23792307.3324
 125398235.61946  97713030.30043  23862510.2664                   23862519.0984
 110229259.00448  85892953.76346  20975930.8914                   20975937.8324
 106853842.20748  83262765.41446  20333607.5164                   20333614.2974
 111085507.84748  86560163.94346  21138870.8754                   21138878.6414
                                  25070783.281
 124573950.01745  97070658.36942  23705634.7274                   23705645.2384
 122977295.482 7                  23401804.477
 114234105.42948  89013615.32445  21738026.0164                   21738031.5634
 11  7 23 15 25  0.0000000  0  9G03G13G20G16G32G24G06G31G23
 124937655.36645  97354139.95242  23774862.8594                   23774873.8054
 125312050.30846  97645872.96143  23846110.1644                   23846119.0004
 110240095.43248  85901397.71746  20977992.8054                   20977999.3954
 106825913.03447  83241002.43546  20328292.7344                   20328299.7034
 111130098.85748  86594910.17046  21147356.3204                   21147364.0044
                                  25082947.742
 124500834.87945  97013685.72042  23691721.9844                   23691733.0864
 123048268.447 7                  23415310.875
 114162399.30048  88957740.42745  21724380.8594                   21724386.3244
 11  7 23 15 25 30.0000000  0  8G03G13G20G16G32G06G31G23
 124846016.91345  97282733.38242  23757426.0864                   23757436.3794
 125225825.68346  97578684.99443  23829702.3054                   23829710.1484
 110251506.78648  85910289.69346  20980164.6884                   20980170.9264
 106798590.70048  83219712.31046  20323093.4304                   20323099.9694
 111175159.27148  86630022.15646  21155931.0234                   21155939.2274
 124427812.392 6                  23677827.641
 123119209.523 7                  23428809.375
 114090808.49848  88901955.42645  21710757.6804                   21710762.5554
 11  7 23 15 26  0.0000000  0  9G03G13G20G16G32G24G06G31G23
 124754355.20045  97211308.72842  23739983.0084                   23739994.5904
 125139562.24146  97511466.81243  23813286.4534                   23813295.3554
 110263491.84948  85919628.69646  20982445.4224                   20982452.3244
 106771874.77347  83198894.72346  20318010.2274                   20318016.0634
 111220687.03448  86665498.31046  21164594.6564                   21164602.3984
                                  25107210.430
                                  23663946.984
 123190117.526 7                  23442302.992
 114019334.44748  88846261.37945  21697156.4694                   21697162.1994
 11  7 23 15 26 30.0000000  0  8G03G13G20G16G32G06G31G23
 124662673.16045  97139868.33742  23722535.3204                   23722548.8594
 125053260.11146  97444218.46143  23796864.1174                   23796872.3594
 110276049.35248  85929413.75546  20984834.2894                   20984841.9494
 106745765.36647  83178549.74746  20313041.6024                   20313048.3874
 111266680.24048  86701337.14946  21173347.3054                   21173354.3444
 124282053.06415                  23650089.773
 123260991.404 7                  23455789.930
 113947977.82348  88790658.83945  21683577.3284                   21683583.2894
 11  7 23 15 27  0.0000000  0  8G03G13G20G16G32G06G31G23
 124570974.71445  97068415.06642  23705086.5394                   23705098.6524
 124966921.40746  97376941.61843  23780434.0084                   23780441.7934
 110289179.30948  85939644.88546  20987332.8834                   20987339.6524
 106720264.24348  83158678.75846  20308188.8524                   20308195.0784
 111313138.61148  86737538.45446  21182187.9454                   21182195.5514
 124209323.827 5                  23636250.227
 123331831.545 7                  23469270.023
 113876741.57448  88735150.09945  21670022.1334                   21670027.3364
 11  7 23 15 27 30.0000000  0  7G03G13G20G16G32G31G23
 124479261.92146  96996950.70442  23687634.3444                   23687645.3444
 124880546.33546  97309636.42143  23763997.4384                   23764005.9414
 110302880.57648  85950321.18146  20989940.5864                   20989947.3014
 106695370.91648  83139281.36846  20303451.7504                   20303458.0354
 111360059.80448  86774100.40746  21191116.4694                   21191124.4534
 123402636.478 7                  23482743.906
 113805626.76048  88679735.97645  21656489.0004                   21656494.2384
 11  7 23 15 28  0.0000000  0  8G03G13G20G16G32G06G31G23
 124387537.57346  96925477.20142  23670180.3204                   23670189.5474
 124794136.02946  97242303.76843  23747553.4614                   23747562.3164
 110317152.25348  85961441.96746  20992656.0474                   20992663.0824
 106671086.15548  83120358.20546  20298830.1884                   20298836.9144
 111407442.36248  86811021.85546  21200133.3284                   21200140.8324
 124064171.74015                  23608631.258
 123473405.653 7                  23496210.844
 113734635.32348  88624418.00545  21642980.2344                   21642985.4144
 11  7 23 15 28 30.0000000  0  8G03G13G20G16G32G06G31G23
 124295804.94346  96853997.36542  23652723.7114                   23652733.4574
 124707691.56546  97174944.52543  23731103.8754                   23731112.8014
 110331994.12648  85973007.04246  20995480.3204                   20995487.7114
 106647410.21348  83101909.42846  20294325.3984                   20294331.4144
 111455284.84548  86848301.69946  21209237.5474                   21209244.7774
 123991760.83715                  23594851.406
 123544138.616 7                  23509671.789
 113663769.07348  88569197.57946  21629494.7584                   21629499.5634
 11  7 23 15 29  0.0000000  0  7G03G13G20G16G32G31G23
 124204066.98345  96782513.33742  23635265.7114                   23635275.8014
 124621214.37646  97107559.72943  23714647.9694                   23714656.7194
 110347405.13248  85985015.60646  20998413.6724                   20998420.3634
 106624343.89048  83083935.69546  20289935.5474                   20289941.9924
 111503585.91748  86885938.86746  21218428.6954                   21218436.4224
 123614835.230 7                  23523124.336
 113593030.55248  88514076.66645  21616033.5474                   21616038.8054
 11  7 23 15 29 30.0000000  0  8G03G13G20G16G32G06G31G23
 124112326.37946  96711027.23542  23617808.7584                   23617819.0084
 124534704.81946  97040149.76643  23698185.1884                   23698194.4884
 110363383.92948  85997466.59746  21001454.4224                   21001461.0784
 106601887.05348  83066436.88246  20285662.3444                   20285668.9454
 111552343.81148  86923932.02146  21227707.0864                   21227715.0354
                                  23567360.781
 123685494.227 7                  23536570.156
 113522420.75048  88459056.06745  21602596.9614                   21602602.7384
 11  7 23 15 30  0.0000000  0  7G03G13G20G16G32G31G23
 124020586.83946  96639541.97843  23600352.0084                   23600361.5824
 124448165.18046  96972716.31843  23681717.9844                   23681725.7234
 110379931.13848  86010360.52246  21004603.1564                   21004609.6844
 106580041.50748  83049414.39646  20281505.3444                   20281511.4144
 111601557.77248  86962280.54846  21237072.1884                   21237079.7814
 123756116.240 7                  23550010.141
 113451942.88748  88404138.27745  21589185.3134                   21589190.3954
 11  7 23 15 30 30.0000000  0  7G03G13G20G16G32G31G23
 123928851.20146  96568059.76043  23582894.4304                   23582904.0664
 124361595.78446  96905259.68643  23665244.3834                   23665252.1134
 110397044.92548  86023695.91846  21007859.7424                   21007866.0984
 106558806.86148  83032867.93046  20277464.1174                   20277470.9414
 111651225.93848  87000982.98946  21246523.6094                   21246531.5984
 123826700.562 7                  23563440.938
 113381598.01448  88349324.09345  21575799.2814                   21575804.5354
 11  7 23 15 31  0.0000000  0  8G03G13G20G16G32G06G31G23
 123837121.82246  96496582.45542  23565438.6564                   23565447.9494
 124274998.05246  96837781.02343  23648764.6804                   23648773.2774
 110414724.33948  86037472.08546  21011223.7274                   21011230.5354
 106538183.13548  83016797.52046  20273539.8914                   20273545.9844
 111701346.42348  87040037.87846  21256061.2664                   21256068.9884
 123631462.08455  96336244.51752  23526287.4304                   23526296.5004
 123897245.989 7                  23576865.234
 113311387.79948  88294614.85045  21562438.8674                   21562443.6254
 11  7 23 15 31 30.0000000  0  8G03G13G20G16G32G06G31G23
 123745402.43846  96425112.90842  23547984.2194                   23547993.8874
 124188373.27647  96770281.23843  23632280.7734                   23632288.8054
 110432969.15647  86051688.81446  21014695.2034                   21014702.4264
 106518171.23048  83001203.84046  20269731.7814                   20269737.7774
 111751918.13047  87079444.37846  21265685.1644                   21265692.5744
 123559773.38255  96280383.12552  23512646.1564                   23512655.2624
 123967752.634 7                  23590282.844
 113241314.55548  88240012.35745  21549104.0084                   21549109.3404
 11  7 23 15 32  0.0000000  0  8G03G13G20G16G32G06G31G23
 123653695.49746  96353653.04443  23530534.2814                   23530542.8134
 124101721.88947  96702760.71743  23615791.9694                   23615799.2464
 110451777.56948  86066344.69246  21018274.7114                   21018281.7424
 106498770.78448  82986086.63346  20266039.8444                   20266045.9104
 111802938.62148  87119200.58446  21275394.0944                   21275401.9734
 123488214.79355  96224623.26952  23499026.3284                   23499038.3284
 124038219.474 6                  23603691.633
 113171379.83948  88185517.77445  21535796.1414                   21535800.8244
 11  7 23 15 32 30.0000000  0  8G03G13G20G16G32G06G31G23
 123562004.43747  96282205.51643  23513085.7034                   23513094.8954
 124015045.49847  96635220.75843  23599298.4774                   23599305.5904
 110471149.68748  86081439.84446  21021961.3444                   21021968.1804
 106479982.69648  82971446.57546  20262464.6174                   20262470.9574
 111854407.14048  87159305.88846  21285188.1334                   21285196.0394
 123416790.35145  96168967.90442  23485436.5084                   23485446.9574
 124108646.710 7                  23617093.586
 113101586.04548  88131133.03045  21522514.8364                   21522519.5824
 11  7 23 15 33  0.0000000  0  8G03G13G20G16G32G06G31G23
 123470332.39446  96210772.78943  23495640.5084                   23495650.0394
 123928345.05347  96567662.03543  23582798.8594                   23582807.5044
 110491083.92748  86096972.99146  21025754.4844                   21025761.5744
 106461807.08247  82957283.77646  20259006.0554                   20259011.9924
 111906321.88448  87199758.91646  21295066.8204                   21295074.8164
 123345502.67355  96113419.12252  23471870.7894                   23471881.1884
 124179033.762 7                  23630487.672
 113031934.94848  88076859.45445  21509260.3834                   21509265.4774
 11  7 23 15 33 30.0000000  0  8G03G13G20G16G32G06G31G23
 123378681.99946  96139356.99843  23478200.3134                   23478210.2734
 123841621.99946  96500085.67843  23566296.0784                   23566303.7774
 110511579.11848  86112943.26846  21029654.3984                   21029661.3324
 106444244.01148  82943598.27946  20255663.8984                   20255670.3244
 111958680.91748  87240558.13246  21305030.5004                   21305038.5314
 123274354.41445  96057978.94652  23458330.0784                   23458342.3834
 124249379.898 6                  23643874.344
 112962428.25648  88022698.41745  21496033.7274                   21496038.4224
 11  7 23 15 34  0.0000000  0  8G03G13G20G16G32G06G31G23
 123287056.40146  96067960.47443  23460764.3204                   23460773.5044
 123754877.21746  96432492.38043  23549789.2034                   23549797.4224
 110532634.92148  86129350.37646  21033661.6804                   21033668.3244
 106427293.34548  82930389.97546  20252438.1254                   20252444.5664
 112011482.57948  87281702.26245  21315078.9064                   21315085.9694
 123203348.864 5                  23444819.289
 124319684.599 7                  23657251.938
 112893067.35748  87968651.00245  21482834.7424                   21482839.9064
 11  7 23 15 34 30.0000000  0  8G03G13G20G16G32G06G31G23
 123195458.51346  95996585.55643  23443333.4614                   23443343.4024
 123668112.03446  96364883.19543  23533277.6644                   23533286.3674
 110554249.30448  86146192.73246  21037774.7274                   21037781.4104
 106410955.22248  82917658.98446  20249329.1024                   20249335.2934
 112064725.12148  87323189.94546  21325210.1954                   21325217.8634
 123132488.605 5                  23431334.992
 124389947.289 7                  23670623.094
 112823855.28148  87914719.53045  21469664.3284                   21469669.3164
 11  7 23 15 35  0.0000000  0  8G03G13G20G16G32G06G31G23
 123103891.79646  95925234.92143  23425909.2894                   23425919.3874
 123581327.93947  96297259.28843  23516763.8204                   23516771.8674
 110576421.76648  86163469.95946  21041993.8914                   21042000.9304
 106395230.74048  82905406.14746  20246337.3204                   20246343.1994
 112118407.40647  87365020.26145  21335425.5784                   21335433.2344
 123061777.500 5                  23417878.805
 124460168.385 7                  23683986.250
 112754794.13848  87860905.66646  21456522.2974                   21456527.6094
 11  7 23 15 35 30.0000000  0  8G03G13G20G16G32G06G31G23
 123012358.91146  95853910.61743  23408489.5864                   23408501.0594
 123494525.90847  96229621.37443  23500246.5234                   23500253.8284
 110599151.15548  86181181.15946  21046319.5554                   21046326.0234
 106380119.37448  82893631.06146  20243461.3134                   20243467.5084
 112172527.32348  87407191.60146  21345724.5554                   21345732.2934
 122991218.15645  95837351.40452  23404453.1024                   23404460.8794
 124530347.244 7                  23697341.219
 112685885.31748  87807210.51145  21443409.3204                   21443414.3954
 11  7 23 15 36  0.0000000  0  8G03G13G20G16G32G06G31G23
 122920863.24646  95782615.34043  23391079.5164                   23391089.1644
 123407706.89847  96161970.24743  23483725.0084                   23483732.7704
 110622436.22947  86199325.35646  21050750.2584                   21050757.6684
 106365620.99748  82882333.62346  20240702.6414                   20240708.6564
 112227083.12448  87449702.58646  21356106.0784                   21356113.9734
 122920813.32445  95782490.52452  23391054.6174                   23391062.8914
 124600482.958 6                  23710686.398
 112617130.74548  87753635.53345  21430325.6174                   21430331.0314
 11  7 23 15 36 30.0000000  0  8G03G13G20G16G32G06G31G23
 122829406.68356  95711350.20653  23373676.2734                   23373685.3834
 123320872.30547  96094306.98344  23467200.8674                   23467208.7704
 110646276.01148  86217901.79546  21055287.1724                   21055293.5204
 106351735.80948  82871514.00446  20238060.1414                   20238066.1134
 112282073.10248  87492551.89046  21366570.3444                   21366578.3244
 122850566.14455  95727752.57752  23377686.0474                   23377696.0124
 124670575.146 7                  23724025.258
 112548532.45548  87700182.34045  21417271.6174                   21417276.7584
 11  7 23 15 37  0.0000000  0  8G03G13G20G16G32G06G31G23
 122737994.53047  95640120.03444  23356280.8984                   23356290.4494
 123234023.51746  96026632.68143  23450673.6254                   23450681.5944
 110670669.42148  86236909.63446  21059929.0554                   21059935.4924
 106338464.01248  82861172.36646  20235534.2974                   20235540.6414
 112337495.46548  87535738.12846  21377117.0784                   21377124.9414
 122780479.88845  95673140.09042  23364349.6644                   23364360.1414
 124740623.787 7                  23737354.859
 112480092.53248  87646852.54646  21404248.2504                   21404253.3014
 11  7 23 15 37 30.0000000  0  8G03G13G20G16G32G06G31G23
 122646628.83147  95568925.97044  23338895.3444                   23338904.6804
 123147161.80846  95958948.26143  23434144.2504                   23434152.7934
 110695615.29447  86256347.96846  21064675.8204                   21064682.7774
 106325805.83048  82851308.85446  20233125.5394                   20233132.3634
 112393348.72648  87579260.13146  21387745.3444                   21387753.0314
 122710557.42045  95618655.13842  23351043.8754                   23351053.6604
 124810628.479 7                  23750677.133
 112411813.12648  87593647.83346  21391255.0394                   21391260.4774
 11  7 23 15 38  0.0000000  0  8G03G13G20G16G32G06G31G23
 122555312.34046  95497770.28944  23321518.1254                   23321528.4964
 123060288.36246  95891254.73243  23417612.1564                   23417621.1414
 110721112.24348  86276215.72046  21069527.9384                   21069534.5824
 106313760.46748  82841922.87846  20230833.5944                   20230839.8134
 112449630.69748  87623116.18846  21398455.0944                   21398462.9574
 122640801.61346  95564300.03143  23337770.5084                   23337779.3364
 124880588.742 7                  23763990.211
 112343696.09348  87540569.63745  21378292.8524                   21378297.9774
 11  7 23 15 38 30.0000000  0  8G03G13G20G16G32G06G31G23
 122464048.63946  95426655.73743  23304151.2194                   23304160.8324
 122973404.39047  95823553.00544  23401078.9224                   23401087.8874
 110747158.77648  86296511.71646  21074484.0234                   21074490.7344
 106302328.35648  82833014.76646  20228657.7344                   20228664.3794
 112506339.71248  87667305.00245  21409246.7814                   21409254.1484
 122571215.65145  95510077.27542  23324528.9064                   23324537.4574
 124950504.439 7                  23777294.094
 112275743.46448  87487619.55345  21365361.6414                   21365366.9104
 11  7 23 15 39  0.0000000  0  8G03G13G20G16G32G06G31G23
 122372840.57246  95355584.51543  23286794.3834                   23286803.9844
 122886510.92847  95755843.85944  23384544.1094                   23384552.2664
 110773753.77848  86317235.08446  21079545.2274                   21079551.8164
 106291508.80248  82824583.96046  20226598.8204                   20226605.1994
 112563473.65448  87711824.93145  21420119.2734                   21420126.5514
 122501801.95954  95455988.83452  23311315.5164                   23311329.0164
 125020374.624 7                  23790589.852
 112207956.76048  87434798.75646  21352462.3364                   21352467.7934
 11  7 23 15 39 30.0000000  0  8G03G13G20G16G32G06G31G23
 122281691.17846  95284559.04744  23269449.2424                   23269459.1054
 122799609.56247  95688128.55344  23368007.1174                   23368015.3524
 110800895.95348  86338384.82046  21084709.8524                   21084717.1564
 106281302.07847  82816630.69446  20224656.7974                   20224663.2584
 112621031.06248  87756674.83545  21431072.1724                   21431079.4804
 122432562.93315                  23298142.250
 125090199.398 7                  23803876.563
 112140338.56348  87382109.27346  21339595.2344                   21339599.7934
 11  7 23 15 40  0.0000000  0  7G03G13G20G16G32G31G23
 122190603.94546  95213582.03443  23252115.3594                   23252126.3164
 122712701.54847  95620408.08944  23351469.1174                   23351477.3054
 110828584.34248  86359960.17946  21089979.0314                   21089985.4654
 106271708.26648  82809155.01846  20222831.1804                   20222837.8634
 112679009.63448  87801852.90746  21442105.3134                   21442113.0744
 125159978.267 7                  23817155.383
 112072890.90748  87329552.67645  21326760.3834                   21326765.3204
 11  7 23 15 40 30.0000000  0  8G03G13G20G16G32G06G31G23
 122099581.79346  95142655.70143  23234794.1644                   23234804.7034
 122625788.37547  95552683.60944  23334930.7034                   23334938.5664
 110856817.10048  86381959.72546  21095351.6334                   21095358.3594
 106262727.02448  82802156.69046  20221121.7274                   20221128.4454
 112737408.03148  87847358.13145  21453217.7504                   21453225.5084
 122294623.47615                  23271893.352
 125229711.294 7                  23830425.305
 112005615.94648  87277130.66345  21313958.5234                   21313963.3364
 11  7 23 15 41  0.0000000  0  8G03G13G20G16G32G06G31G23
 122008628.24346  95071782.87243  23217486.5164                   23217496.7974
 122538871.38647  95484956.11743  23318389.7344                   23318398.6724
 110885593.50448  86404382.88346  21100827.2974                   21100834.8714
 106254358.51948  82795635.79546  20219529.6094                   20219535.6604
 112796224.43548  87893189.07345  21464410.0164                   21464418.0984
 122225931.20315                  23258821.250
 125299398.167 7                  23843686.656
 111938515.96248  87224844.97646  21301189.2734                   21301194.2424
 11  7 23 15 41 30.0000000  0  8G03G13G20G16G32G06G31G23
 121917746.18346  95000965.72243  23200192.4774                   23200202.8874
 122451951.91847  95417226.69144  23301849.9384                   23301857.8954
 110914912.10848  86427228.53746  21106406.2664                   21106413.4064
 106246602.35448  82789592.05546  20218053.5864                   20218059.8284
 112855456.81648  87939344.14746  21475681.8134                   21475690.1024
 122157426.68516                  23245787.977
 125369038.438 7                  23856938.813
 111871592.57448  87172696.91346  21288454.1414                   21288459.8714
 11  7 23 15 42  0.0000000  0  8G03G13G20G16G32G06G31G23
 121826938.70146  94930206.69443  23182913.1254                   23182921.9184
 122365031.22447  95349496.34243  23285309.6484                   23285317.5554
 110944771.17848  86450495.33846  21112088.3284                   21112095.9224
 106239457.96448  82784025.01646  20216693.9924                   20216700.6054
 112915103.04148  87985821.68846  21487032.2974                   21487040.7034
 122089113.034 6                  23232787.938
 125438631.851 7                  23870182.117
 111804847.91548  87120688.10546  21275752.9064                   21275758.3794
 11  7 23 15 42 30.0000000  0  8G03G13G20G16G32G06G31G23
 121736208.99646  94859508.23643  23165647.0314                   23165656.4924
 122278110.47146  95281765.92143  23268768.8834                   23268776.9924
 110975169.57247  86474182.37446  21117873.1484                   21117880.0594
 106232925.21448  82778934.57346  20215450.6644                   20215457.0904
 112975161.53248  88032620.48145  21498460.9694                   21498468.2234
 122020993.286 6                  23219823.852
 125508178.139 7                  23883416.359
 111738284.29348  87068820.36446  21263086.4844                   21263091.5314
 11  7 23 15 43  0.0000000  0  8G03G13G20G16G32G06G31G23
 121645559.89446  94788872.65043  23148397.5164                   23148407.2974
 122191191.39946  95214036.84143  23252229.0474                   23252236.0984
 111006104.91548  86498287.83846  21123759.4844                   21123766.7114
 106227003.50248  82774320.26446  20214323.7734                   20214330.1914
 113035629.80948  88079738.61045  21509967.7734                   21509975.3634
 121953070.25546  95028410.27752  23206899.5314                   23206909.2704
 125577676.630 7                  23896640.953
 111671903.63448  87017095.20346  21250455.0234                   21250460.2344
 11  7 23 15 43 30.0000000  0  8G03G13G20G16G32G06G31G23
 121554994.90746  94718302.56143  23131163.6644                   23131172.9414
 122104275.27646  95146310.02444  23235689.3204                   23235696.7894
 111037577.02048  86522811.52646  21129748.9384                   21129755.6054
 106221693.01448  82770182.23646  20213313.3984                   20213320.0044
 113096506.49948  88127174.96845  21521552.3984                   21521559.5864
 121885346.97146  94975638.96442  23194011.9774                   23194020.7854
 125647127.784 7                  23909857.711
 111605708.19748  86965514.35446  21237857.9534                   21237862.9734
 11  7 23 15 44  0.0000000  0  8G03G13G20G16G32G06G31G23
 121464517.18546  94647800.49543  23113945.6644                   23113955.1604
 122017363.39246  95078586.52643  23219150.2504                   23219158.8834
 111069583.83948  86547751.90246  21135839.7894                   21135846.1954
 106216993.00648  82766519.88746  20212419.1724                   20212425.2114
 113157789.11648  88174927.64045  21533213.8984                   21533221.2194
 121817826.59846  94923025.77443  23181164.5634                   23181172.7624
 125716530.755 7                  23923064.281
 111539699.65148  86914079.15346  21225296.9224                   21225302.1374
 11  7 23 15 44 30.0000000  0  8G03G13G20G16G32G06G31G23
 121374129.72146  94577368.83643  23096745.2274                   23096755.4104
 121930457.01647  95010867.31043  23202613.0944                   23202620.7734
 111102123.71148  86573107.63146  21142031.7664                   21142039.0864
 106212902.73148  82763332.66946  20211640.9694                   20211647.1334
 113219475.55848  88222994.96845  21544952.8834                   21544960.6524
 121750511.64546  94870572.60343  23168352.6094                   23168362.9614
 125785885.092 7                  23936262.297
 111473880.08348  86862791.19046  21212771.4694                   21212777.1804
 11  7 23 15 45  0.0000000  0  8G03G13G20G16G32G06G31G23
 121283836.41446  94507010.55343  23079563.6644                   23079573.2704
 121843558.01046  94943153.83943  23186075.6884                   23186084.5394
 111135195.29548  86598877.67846  21148325.1644                   21148331.6994
 106209422.82648  82760621.05746  20210978.5314                   20210984.6994
 113281564.68348  88271376.07845  21556767.7814                   21556775.9924
 121683405.93046  94818282.62643  23155582.9304                   23155592.5664
 125855191.366 7                  23949451.375
 111408252.31848  86811652.70746  21200283.5474                   21200289.1684
 11  7 23 15 45 30.0000000  0  8G03G13G20G16G32G06G31G23
 121193639.72946  94436727.52143  23062399.0864                   23062409.3364
 121756667.54047  94875447.07043  23169540.8834                   23169548.9964
 111168797.23948  86625060.99946  21154719.4144                   21154726.0314
 106206552.19647  82758384.20346  20210432.1254                   20210438.1914
 113344053.90848  88320068.95645  21568659.0084                   21568666.8674
 121616512.03546  94766157.55943  23142855.1334                   23142863.1024
 125924448.837 7                  23962630.219
 111342817.84048  86760664.82846  21187831.4144                   21187837.1564
 11  7 23 15 46  0.0000000  0  8G03G13G20G16G32G06G31G23
 121103543.02546  94366522.43044  23045254.4384                   23045264.6094
 121669787.27747  94807748.20244  23153008.7194                   23153016.2854
 111202927.65648  86651656.11246  21161214.3134                   21161220.8094
 106204290.44047  82756621.80046  20210001.8914                   20210008.0944
 113406941.18448  88369072.00745  21580625.9614                   21580633.8054
 121549832.90346  94714199.86243  23130165.1024                   23130174.5704
 125993657.286 7                  23975800.609
 111277579.04148  86709829.40946  21175416.9454                   21175422.2424
 11  7 23 15 46 30.0000000  0  8G03G13G20G16G32G06G31G23
 121013549.59047  94296397.77144  23028130.2034                   23028138.7734
 121582918.44647  94740058.28344  23136477.9614                   23136486.4024
 111237584.97348  86678661.80046  21167809.6484                   21167815.7344
 106202636.99647  82755333.39946  20209687.1024                   20209693.6844
 113470224.57947  88418383.70645  21592668.2894                   21592676.1644
 121483371.36646  94662411.75043  23117517.2974                   23117527.3524
 126062816.646 7                  23988960.555
 111212538.13248  86659148.19846  21163040.6334                   21163045.5044
 11  7 23 15 47  0.0000000  0  8G03G13G20G16G32G06G31G23
 120923662.34946  94226355.89243  23011025.0944                   23011033.8364
 121496062.20147  94672378.11444  23119950.4614                   23119957.8954
 111272767.52948  86706076.77246  21174503.8204                   21174511.2234
 106201590.91248  82754518.28046  20209488.1564                   20209494.2074
 113533901.84647  88468002.31645  21604785.6804                   21604793.6994
 121417130.61246  94610795.60143  23104912.9304                   23104921.6374
 126131926.679 6                  24002111.492
 111147696.88748  86608622.57246  21150701.4614                   21150705.9884
 11  7 23 15 47 30.0000000  0  8G03G13G20G16G32G06G31G23
 120833885.03647  94156399.64843  22993940.4064                   22993950.3014
 121409220.34146  94604709.18244  23103424.2424                   23103432.8444
 111308473.92947  86733899.91246  21181298.9144                   21181306.1254
 106201152.26748  82754176.47146  20209404.6644                   20209410.8634
 113597971.16447  88517926.44145  21616977.8594                   21616985.0044
 121351113.61945  94559353.83443  23092350.3754                   23092359.5164
 126200987.204 6                  24015253.117
 111083057.77148  86558254.45446  21138400.8054                   21138405.8874
 11  7 23 15 48  0.0000000  0  8G03G13G20G16G32G06G31G23
 120744220.67247  94086531.38843  22976879.1094                   22976886.8164
 121322394.29546  94537052.57744  23086902.0704                   23086910.3524
 111344702.27748  86762129.78146  21188192.8674                   21188200.1024
 106201320.26148  82754307.38446  20209436.5314                   20209442.8714
 113662430.27848  88568154.29745  21629243.8284                   21629251.3594
 121285323.50655  94508088.83552  23079829.9534                   23079839.4534
 126269997.968 7                  24028386.219
 111018622.92548  86508045.49946  21126139.6174                   21126144.8554
 11  7 23 15 48 30.0000000  0  8G03G13G20G16G32G06G31G23
 120654672.46346  94016753.63443  22959837.0784                   22959845.7544
 121235585.80046  94469409.67344  23070382.7894                   23070390.9924
 111381451.10448  86790765.20946  21195186.2424                   21195192.9964
 106202094.60447  82754910.76746  20209584.3134                   20209590.2304
 113727277.49747  88618684.56345  21641584.2344                   21641591.9304
 121219763.29655  94457003.04852  23067355.4774                   23067364.1764
 126338959.087 7                  24041509.109
 110954394.71148  86457997.55146  21113917.3364                   21113922.4064
 11  7 23 15 49  0.0000000  0  8G03G13G20G16G32G06G31G23
 120565243.25546  93947068.64943  22942817.8204                   22942827.5124
 121148796.38147  94401781.58243  23053867.6254                   23053874.7074
 111418718.28648  86819804.56146  21202278.0164                   21202284.9104
 106203473.97147  82755985.59946  20209846.4224                   20209852.5044
 113792510.01848  88669515.08045  21653997.4384                   21654004.9144
                                  23054923.1644                   23054932.5274
 126407869.926 7                  24054621.531
 110890374.45248  86408111.66746  21101733.9534                   21101739.7114
 11  7 23 15 49 30.0000000  0  7G03G13G20G16G32G31G23
 120475936.81546  93877479.36543  22925824.3984                   22925834.0314
 121062027.13447  94334169.23044  23037355.2894                   23037363.4884
 111456502.80848  86849247.02346  21209467.5704                   21209474.8634
 106205458.37448  82757531.90046  20210224.0474                   20210230.1414
 113858126.38048  88720644.68645  21666483.7274                   21666492.1994
 126476730.771 6                  24067725.117
 110826565.34648  86358390.28046  21089591.9534                   21089597.3554
 11  7 23 15 50  0.0000000  0  8G03G13G20G16G32G06G31G23
 120386756.27346  93807988.12443  22908853.2814                   22908862.6454
 120975279.99247  94266574.11744  23020847.7664                   23020856.0354
 111494802.22148  86879090.70646  21216755.7114                   21216762.9264
 106208046.57648  82759548.68346  20210716.7664                   20210722.8204
 113924124.00048  88772071.34845  21679042.8754                   21679050.7774
 121024486.78755  94304824.14953  23030195.3984                   23030203.0554
 126545541.157 7                  24080820.773
 110762968.94248  86308834.65646  21077489.8834                   21077494.9884
 11  7 23 15 50 30.0000000  0  8G03G13G20G16G32G06G31G23
 120297704.72946  93738597.43643  22891907.5554                   22891916.7234
 120888556.50147  94198997.40143  23004345.0864                   23004352.8324
 111533615.22448  86909334.58246  21224141.8914                   21224149.0084
 106211238.17848  82762035.65146  20211324.0164                   20211330.2074
 113990500.98547  88823793.65645  21691673.9454                   21691682.3674
 120959875.11946  94254477.43243  23017900.6644                   23017908.4104
 126614300.909 7                  24093905.289
 110699587.73348  86259446.72046  21065428.9144                   21065434.6214
 11  7 23 15 51  0.0000000  0  8G03G13G20G16G32G06G31G23
 120208785.50446  93669309.84744  22874987.1414                   22874996.8014
 120801858.11247  94131440.22244  22987847.2584                   22987854.2774
 111572939.73848  86939977.04946  21231624.9534                   21231631.7974
 106215032.40448  82764992.19846  20212045.5634                   20212052.1094
 114057255.06947  88875809.78745  21704376.7584                   21704385.0004
 120895508.00245  94204321.33143  23005650.7664                   23005661.3984
 126683010.000 7                  24106979.898
 110636423.70148  86210227.99746  21053408.9304                   21053414.3094
 11  7 23 15 51 30.0000000  0  8G03G13G20G16G32G06G31G23
 120120002.20546  93600128.15644  22858092.1644                   22858101.8794
 120715186.13047  94063903.65444  22971353.6884                   22971361.3324
 111612774.61948  86971017.18146  21239205.7424                   21239212.6454
 106219428.55148  82768417.77446  20212882.4224                   20212888.4924
 114124384.22847  88928118.18545  21717151.1094                   21717158.9574
 120831388.28646  94154357.94743  22993450.3594                   22993458.3674
 126751668.440 6                  24120044.516
 110573479.29948  86161180.40246  21041431.4304                   21041436.3324
 11  7 23 15 52  0.0000000  0  8G03G13G20G16G32G06G31G23
 120031357.43146  93531054.38444  22841223.9694                   22841233.0554
 120628542.37847  93996389.05244  22954866.0084                   22954873.8094
 111653117.00848  87002452.79546  21246882.2734                   21246889.1454
 106224425.50048  82772311.51146  20213833.2194                   20213839.4774
 114191885.93147  88980716.86545  21729996.6094                   21730004.2114
 120767518.88746  94104589.65743  22981295.5554                   22981304.1294
 126820275.867 7                  24133100.539
 110510755.85648  86112305.00546  21029495.5234                   21029500.5904
 11  7 23 15 52 30.0000000  0  8G03G13G20G16G32G06G31G23
 119942854.83146  93462091.39044  22824382.2194                   22824391.4064
 120541928.60447  93928897.83644  22938383.6644                   22938391.9224
 111693965.94748  87034283.10946  21254656.1094                   21254662.7464
 106230023.39147  82776673.49946  20214898.6484                   20214905.0084
 114259758.71748  89033604.72845  21742912.2734                   21742920.0004
 120703903.39746  94055019.21743  22969190.6564                   22969199.4224
 126888832.812 6                  24146146.422
 110448256.90848  86063604.53746  21017602.0164                   21017606.8054
 11  7 23 15 53  0.0000000  0  8G03G13G20G16G32G06G31G23
 119854497.43446  93393241.55444  22807567.8364                   22807577.5164
 120455346.15947  93861431.06044  22921908.0784                   22921914.6844
 111735318.99048  87066506.24846  21262525.1334                   21262531.9384
 106236220.16748  82781502.16546  20216077.2424                   20216083.9224
 114327999.58347  89086779.39545  21755898.1174                   21755905.9264
 120640543.88046  94005648.21843  22957132.7344                   22957142.4844
 126957338.262 7                  24159182.461
 110385984.06848  86015080.25546  21005751.8674                   21005757.2154
 11  7 23 15 53 30.0000000  0  8G03G13G20G16G32G06G31G23
 119766288.57846  93324507.47144  22790781.7034                   22790791.5664
 120368796.82247  93793990.03544  22905437.9304                   22905445.1804
 111777174.24348  87099120.71646  21270490.2584                   21270497.0124
 106243015.48748  82786797.23146  20217370.8594                   20217377.0354
 114396606.74347  89140239.49745  21768953.6024                   21768960.8094
 120577443.75546  93956479.37443  22945124.6954                   22945134.1024
 127025792.645 7                  24172209.195
 110323939.44248  85966733.81146  20993944.9694                   20993950.2074
 11  7 23 15 54  0.0000000  0  8G03G13G20G16G32G06G31G23
 119678231.55246  93255891.64344  22774025.3524                   22774035.0164
 120282281.75347  93726575.73244  22888974.6724                   22888982.7544
 111819529.90748  87132125.10446  21278549.8204                   21278556.8164
 106250407.83248  82792557.51346  20218777.6564                   20218783.4494
 114465577.38847  89193982.80445  21782077.6414                   21782085.9574
 120514605.49046  93907514.56043  22933167.2034                   22933176.4694
 127094195.399 7                  24185226.266
 110262124.86348  85918566.61146  20982182.5234                   20982187.5204
 11  7 23 15 54 30.0000000  0  8G03G13G20G16G32G06G31G23
 119590329.72646  93187396.80943  22757298.1024                   22757307.4654
 120195802.95247  93659189.68344  22872518.3674                   22872526.3284
 111862384.03048  87165517.90946  21286704.8754                   21286711.8554
 106258396.97448  82798782.82446  20220297.7504                   20220303.7384
 114534909.93047  89248008.12445  21795271.6254                   21795279.4614
 120452032.59346  93858756.51043  22921260.5634                   22921270.1684
 127162546.803 7                  24198233.406
 110200543.18048  85870580.89946  20970463.8444                   20970469.1884
 11  7 23 15 55  0.0000000  0  8G03G13G20G16G32G06G31G23
 119502586.06146  93119025.20944  22740601.2424                   22740610.0354
 120109362.05547  93591833.16544  22856069.0554                   22856077.4774
 111905734.75248  87199297.67246  21294953.9924                   21294961.0864
 106266981.57348  82805472.12946  20221932.1024                   20221937.3554
 114604601.74447  89302313.40645  21808533.3754                   21808542.0904
 120389727.59146  93810207.23743  22909403.3754                   22909413.5744
 127230846.774 6                  24211228.422
 110139196.12948  85822778.02746  20958789.5164                   20958795.3164
 11  7 23 15 55 30.0000000  0  9G03G13G07G20G16G32G06G31G23
 119415004.57347  93050779.92544  22723934.9224                   22723943.5394
 120022960.58747  93524507.40144  22839627.8054                   22839635.2074
 131604392.45516                  25043481.977
 111949580.34548  87233463.04046  21303297.6484                   21303304.5864
 106276161.52548  82812625.36346  20223678.3834                   20223684.8984
 114674651.10447  89356897.29345  21821863.7974                   21821871.1804
 120327693.80746  93761869.22243  22897599.4304                   22897607.3634
 127299095.423 6                  24224217.742
 110078086.45548  85775160.11146  20947161.1024                   20947165.9104
 11  7 23 15 56  0.0000000  0  9G03G13G07G20G16G32G06G31G23
 119327588.02547  92982663.17344  22707300.7894                   22707309.1334
 119936600.39347  93457213.78544  22823193.3284                   22823201.6954
 131537496.259 5                  25030751.820
 111993918.56848  87268012.29246  21311735.3594                   21311742.0124
 106285934.84148  82820240.95946  20225538.2034                   20225544.2464
 114745055.05248  89411757.48745  21835261.2504                   21835268.9694
 120265933.82046  93713744.60243  22885845.5554                   22885855.7344
 127367292.193 6                  24237195.266
 110017216.09348  85727728.68646  20935577.6174                   20935582.5944
 11  7 23 15 56 30.0000000  0  9G03G13G07G20G16G32G06G31G23
 119240339.25447  92914677.14944  22690697.4774                   22690705.6054
 119850283.29647  93389953.72744  22806767.7504                   22806776.0554
 131470675.324 5                  25018034.844
 112038747.34948  87302943.79346  21320265.4774                   21320272.9064
 106296300.81048  82828318.34846  20227511.2424                   20227516.9024
 114815811.63448  89466892.44245  21848725.4534                   21848733.7074
 120204450.41146  93665835.47743  22874146.1174                   22874156.0004
 127435437.387 6                  24250162.555
 109956587.30648  85680485.49146  20924039.8984                   20924045.5274
 11  7 23 15 57  0.0000000  0  9G03G13G07G20G16G32G06G31G23
 119153261.98747  92846824.81844  22674127.7974                   22674135.6914
 119764010.54147  93322728.24944  22790350.3524                   22790358.6884
 131403929.708 6                  25005335.805
 112084064.83348  87338256.09446  21328889.0164                   21328896.2854
 106307258.38848  82836856.73946  20229595.7584                   20229601.9454
 114886918.67848  89522300.48945  21862256.6414                   21862265.2854
 120143246.91446  93618144.52843  22862499.5474                   22862509.1334
 127503530.949 6                  24263119.523
 109896202.60448  85633432.47846  20912549.7034                   20912554.6174
 11  7 23 15 57 30.0000000  0  9G03G13G07G20G16G32G06G31G23
 119066359.71947  92779108.81744  22657590.1174                   22657599.5044
 119677784.11647  93255538.88844  22773942.6024                   22773950.4024
 131337258.732 5                  24992647.570
 112129868.98848  87373947.61946  21337605.7424                   21337612.7234
 106318806.58448  82845855.34646  20231793.2664                   20231799.4694
 114958373.70548  89577979.69145  21875854.0554                   21875862.8524
 120082326.13246  93570673.80143  22850907.1884                   22850915.5394
 127571572.879 6                  24276067.188
 109836064.20548  85586571.41446  20901105.6094                   20901110.5084
 11  7 23 15 58  0.0000000  0  9G03G13G07G20G16G32G06G31G23
 118979635.23446  92711531.34144  22641087.2194                   22641096.1994
 119591605.52847  93188386.76044  22757542.6884                   22757551.0314
 131270661.920 6                  24979975.164
 112176157.32448  87410016.44746  21346414.0634                   21346420.6804
 106330943.72248  82855312.86146  20234102.9224                   20234109.1564
 115030174.18748  89633928.06445  21889517.5944                   21889525.6524
 120021690.61646  93523425.38943  22839368.7974                   22839376.9964
 127639562.834 6                  24289006.797
 109776173.59548  85539903.41446  20889708.5394                   20889713.6804
 11  7 23 15 58 30.0000000  0  9G03G13G07G20G16G32G06G31G23
 118893092.34347  92644095.38544  22624618.0474                   22624627.8554
 119505476.53547  93121273.30944  22741152.7274                   22741161.0204
 131204139.01715                  24967316.133
 112222928.38248  87446461.40946  21355313.6954                   21355320.8284
 106343669.31348  82865228.90946  20236524.8204                   20236530.9064
 115102318.15048  89690144.11045  21903246.1414                   21903253.9344
 119961343.44346  93476401.65344  22827884.4224                   22827894.5744
 127707501.172 7                  24301934.508
 109716534.03148  85493431.04546  20878359.7814                   20878364.6254
 11  7 23 15 59  0.0000000  0  9G03G13G07G20G16G32G06G31G23
 118806734.18046  92576803.36644  22608184.8524                   22608193.5204
 119419398.97747  93054199.92144  22724773.1644                   22724781.1414
 131137690.26115                  24954670.727
 112270179.92148  87483280.77445  21364306.0864                   21364312.8404
 106356982.30748  82875602.65246  20239057.9844                   20239064.2894
 115174803.31747  89746626.03045  21917039.2974                   21917047.7274
 119901287.60346  93429604.97144  22816457.1954                   22816465.6764
 127775387.734 6                  24314853.391
 109657146.99948  85447155.44946  20867059.1724                   20867063.4774
 11  7 23 15 59 30.0000000  0  9G03G13G07G20G16G32G06G31G23
 118720564.31947  92509658.08444  22591786.7974                   22591795.7854
 119333374.51747  92987167.90944  22708403.3754                   22708410.6374
 131071314.467 5                  24942039.594
 112317909.46548  87520472.59246  21373388.4224                   21373395.3244
 106370881.26748  82886433.02146  20241702.9454                   20241709.1684
 115247626.85148  89803371.59345  21930897.4224                   21930905.3364
 119841525.88846  93383037.45544  22805084.2664                   22805093.5124
 127843222.592 7                  24327761.547
 109598015.35448  85401078.86446  20855806.7114                   20855811.5514
 11  7 23 16  0  0.0000000  0  9G03G13G07G20G16G32G06G31G23
 118634585.67746  92442661.78544  22575425.4614                   22575434.7274
 119247405.06747  92920178.75344  22692043.9534                   22692051.5044
 131005011.578 5                  24929422.852
 112366115.38348  87558035.62245  21382561.3594                   21382568.2854
 106385365.04348  82897719.06746  20244459.1174                   20244465.6644
 115320786.93347  89860379.41345  21944818.9144                   21944827.8054
 119782061.06347  93336701.21244  22793769.3754                   22793776.8164
 127911005.419 7                  24340660.430
 109539141.15848  85355202.87346  20844603.0784                   20844607.7424
 11  7 23 16  0 30.0000000  0  9G03G13G07G20G16G32G06G31G23
 118548801.49747  92375817.01744  22559101.8204                   22559110.5354
 119161492.24047  92853233.71744  22675695.4694                   22675702.6644
 130938781.348 5                  24916819.422
 112414794.80748  87595967.63245  21391825.2894                   21391832.0084
 106400432.29548  82909459.76846  20247326.5394                   20247332.4224
 115394280.90248  89917647.38445  21958805.1334                   21958813.2544
 119722896.06847  93290598.68244  22782510.0634                   22782519.2304
 127978736.527 7                  24353549.094
 109480526.38948  85309529.05846  20833449.2424                   20833454.1334
 11  7 23 16  1  0.0000000  0  9G03G13G07G20G16G32G06G31G23
 118463215.51147  92309126.65244  22542815.3134                   22542824.0204
 119075637.94547  92786334.27244  22659358.5314                   22659365.0634
 130872623.233 5                  24904230.109
 112463946.34848  87634267.50845  21401178.4534                   21401186.0904
 106416082.41048  82921654.65746  20250304.3054                   20250310.8404
 115468106.67448  89975173.92545  21972853.5704                   21972861.6644
 119664034.12746  93244732.27444  22771308.9774                   22771317.4024
 128046416.190 7                  24366428.500
 109422173.64848  85264059.41346  20822345.0554                   20822349.8284
 11  7 23 16  1 30.0000000  0  9G03G13G07G20G16G32G06G31G23
 118377830.48347  92242592.91344  22526567.4064                   22526575.8484
 118989843.44647  92719481.49244  22643031.0634                   22643038.9144
 130806537.307 5                  24891653.008
 112513567.40648  87672933.23245  21410621.2274                   21410627.8484
 106432313.38348  82934302.16346  20253393.1174                   20253398.9304
 115542261.66648  90032956.98345  21986965.2034                   21986973.0084
 119605477.63447  93199103.86044  22760165.7894                   22760175.0434
 128114044.234 7                  24379297.656
 109364085.42848  85218795.86946  20811291.2424                   20811296.4494
 11  7 23 16  2  0.0000000  0  9G03G13G07G20G16G32G06G31G23
 118292650.05447  92176218.60544  22510357.5314                   22510366.2704
 118904111.19747  92652677.18044  22626717.2814                   22626724.8914
 130740522.545 5                  24879091.813
 112563655.69648  87711963.05845  21420152.8674                   21420159.9694
 106449123.66248  82947401.08046  20256591.7814                   20256597.6484
 115616743.06447  90090994.40745  22001138.2664                   22001146.2114
 119547229.12446  93153715.46943  22749080.4384                   22749090.2234
 128181620.301 7                  24392156.445
 109306263.20948  85173739.61046  20800287.7664                   20800292.8714
 11  7 23 16  2 30.0000000  0  9G03G13G07G20G16G32G06G31G23
 118207677.41146  92110006.18244  22494188.0314                   22494196.7584
 118818442.76247  92585922.60544  22610415.1254                   22610422.9964
 130674579.008 5                  24866542.586
 112614209.74448  87751355.79846  21429772.8134                   21429779.3364
 106466512.43248  82960950.78246  20259900.7504                   20259906.8714
 115691549.07548  90149284.76645  22015373.1414                   22015381.5554
 119489291.88547  93108569.52144  22738056.3364                   22738065.6844
 128249144.572 7                  24405006.719
 109248709.74648  85128892.77446  20789335.7034                   20789340.7624
 11  7 23 16  3  0.0000000  0  9G03G13G07G20G16G32G06G31G23
 118122915.77547  92043958.18044  22478058.0554                   22478066.9844
 118732840.05147  92519219.23544  22594125.2274                   22594133.1094
 130608706.360 5                  24854007.672
 112665226.55448  87791109.13546  21439480.9614                   21439488.0824
 106484478.47848  82974950.30146  20263319.3674                   20263325.2934
 115766677.01847  90207825.97745  22029669.0864                   22029677.6604
 119431668.70646  93063668.40044  22727091.0474                   22727099.7384
 128316617.131 6                  24417844.953
 109191427.41048  85084257.19546  20778435.3984                   20778440.7234
 11  7 23 16  3 30.0000000  0  9G03G13G07G20G16G32G06G31G23
 118038368.65946  91978077.34444  22461968.9384                   22461977.8984
 118647304.92847  92452568.52444  22577848.6644                   22577856.0594
 130542904.203 5                  24841486.914
 112716703.98748  87831221.38245  21449276.8204                   21449283.8554
 106503020.50048  82989398.63546  20266847.8754                   20266854.2074
 115842124.64448  90266616.28445  22044027.1804                   22044035.2624
 119374362.43447  93019014.19444  22716186.1254                   22716194.7234
 128384038.339 6                  24430675.398
 109134418.79948  85039834.90546  20767586.9144                   20767592.2624
 11  7 23 16  4  0.0000000  0  9G03G13G07G20G16G32G06G31G23
 117954039.50747  91912366.38444  22445921.7114                   22445930.9734
 118561838.84947  92385971.64144  22561584.3204                   22561592.7074
 130477172.160 6                  24828977.055
 112768640.13748  87871691.09045  21459160.2424                   21459166.6454
 106522137.13948  83004294.71046  20270486.1414                   20270492.2384
 115917889.60948  90325653.85645  22058444.8594                   22058452.6994
 119317375.94746  92974609.14944  22705341.4224                   22705350.2074
 128451408.212 7                  24443495.781
 109077685.84648  84995627.43646  20756790.6804                   20756796.5594
 11  7 23 16  4 30.0000000  0  9G03G13G07G20G16G32G06G31G23
 117869931.14747  91846827.45244  22429916.3134                   22429925.7974
 118476443.86047  92319430.14944  22545334.5004                   22545342.2344
 130411509.701 5                  24816481.578
 112821032.47348  87912516.26546  21469129.9694                   21469136.8674
 106541826.53548  83019637.10446  20274232.5474                   20274239.0434
 115993969.18848  90384936.64445  22072922.2034                   22072930.2424
 119260711.79646  92930455.30944  22694558.9064                   22694567.5634
 128518726.553 6                  24456305.805
 109021230.51948  84951636.28746  20746047.7814                   20746053.0944
 11  7 23 16  5  0.0000000  0  9G03G13G07G20G16G32G06G31G23
 117786046.92747  91781463.19644  22413953.9144                   22413963.4884
 118391121.94447  92252945.57944  22529098.5084                   22529106.4734
 130345916.421 6                  24804000.086
 112873878.64448  87953695.08945  21479186.2974                   21479193.6254
 106562087.50048  83035424.85646  20278088.2274                   20278094.3284
 116070361.24948  90444462.85745  22087459.1094                   22087467.7504
 119204372.90146  92886554.91444  22683838.0234                   22683847.2034
 128585993.670 6                  24469105.641
 108965055.72748  84907863.72546  20735358.0704                   20735363.4414
 11  7 23 16  5 30.0000000  0  9G03G13G07G20G16G32G06G31G23
 117702390.35247  91716276.30244  22398034.7664                   22398043.9064
 118305874.81247  92186519.28844  22512875.8594                   22512884.0824
 130280391.820 6                  24791530.914
 112927176.38248  87995225.75945  21489328.3444                   21489335.3674
 106582918.54748  83051656.82646  20282052.1414                   20282058.2934
 116147063.17148  90504230.54345  22102054.5704                   22102063.1024
 119148362.12446  92842910.20144  22673179.1024                   22673188.6684
 128653209.590 6                  24481896.648
 108909163.26848  84864311.17746  20724722.2504                   20724727.5124
 11  7 23 16  6  0.0000000  0  9G03G13G07G20G16G32G06G31G23
 117618964.68747  91651269.32844  22382158.9534                   22382168.1954
 118220704.43947  92120152.79545  22496668.9064                   22496676.3714
 130214935.480 6                  24779074.703
 112980923.31548  88037106.47145  21499555.9454                   21499563.1214
 106604317.99348  83068331.71746  20286124.5704                   20286130.8524
 116224072.36548  90564237.66645  22116709.4534                   22116717.5824
 119092681.88347  92799523.02044  22662583.9534                   22662592.3134
 128720374.179 6                  24494678.766
 108853555.60948  84820980.54246  20714140.3444                   20714145.6094
 11  7 23 16  6 30.0000000  0  9G03G13G07G20G16G32G06G31G23
 117535773.35147  91586444.96444  22366328.4694                   22366337.9064
 118135612.57347  92053847.48844  22480476.0314                   22480483.9414
 130149547.126 6                  24766631.789
 113035117.02948  88079335.31345  21509869.0004                   21509875.4494
 106626284.57548  83085448.52546  20290304.7194                   20290310.5664
 116301386.25148  90624482.20445  22131421.8914                   22131430.0784
 119037335.06747  92756395.66444  22652052.2034                   22652060.6764
 128787487.818 6                  24507449.289
 108798235.05048  84777873.62946  20703613.0784                   20703618.2114
 11  7 23 16  7  0.0000000  0 10G03G13G07G19G20G16G32G06G31G23
 117452819.52747  91521805.71445  22350543.1254                   22350551.6804
 118050601.11047  91987604.83344  22464298.7584                   22464306.8914
 130084226.560 6                  24754201.219
                                  24594854.430
 113089755.45647  88121910.68645  21520266.5164                   21520273.4534
 106648816.78748  83103006.09146  20294592.0864                   20294598.0234
 116379002.73748  90684962.55845  22146191.7194                   22146199.4694
 118982324.56047  92713530.37644  22641584.1484                   22641592.1524
 128854550.193 6                  24520209.359
 108743204.04748  84734992.33146  20693141.2034                   20693146.0984
 11  7 23 16  7 30.0000000  0 10G03G13G07G19G20G16G32G06G31G23
 117370106.71147  91457354.18644  22334802.8754                   22334811.3484
 117965672.10747  91921426.40844  22448137.5474                   22448144.5944
 130018973.107 6                  24741784.180
 129155711.67115                  24577501.984
 113144836.03348  88164830.60545  21530747.7424                   21530754.3794
 106671913.30148  83121003.35246  20298987.4774                   20298993.5164
 116456919.12448  90745676.56345  22161018.8284                   22161027.1254
 118927653.05546  92670929.24144  22631179.8834                   22631188.7544
 128921561.673 6                  24532964.039
 108688464.67048  84692338.28246  20682724.5164                   20682729.9574
 11  7 23 16  8  0.0000000  0 10G03G13G07G19G20G16G32G06G31G23
 117287638.02047  91393092.94044  22319110.4064                   22319118.1374
 117880827.18447  91855313.51444  22431992.1334                   22431999.5984
 129953786.699 6                  24729380.430
 129064425.895 6                  24560133.156
 113200356.39647  88208093.19845  21541312.6334                   21541319.9924
 106695571.96948  83139438.67246  20303489.1884                   20303495.9534
 116535132.68148  90806622.13945  22175902.6334                   22175910.4654
 118873323.11246  92628594.24544  22620841.1564                   22620849.7774
 128988522.478 7                  24545706.023
 108634018.94548  84649913.05146  20672363.8984                   20672368.9224
 11  7 23 16  8 30.0000000  0 10G03G13G07G19G20G16G32G06G31G23
 117205416.75647  91329024.47444  22303463.4304                   22303471.8364
 117796068.72547  91789268.01744  22415862.9534                   22415871.1914
 129888666.728 6                  24716987.969
 128973026.459 5                  24542739.469
 113256314.00347  88251696.50346  21551961.0784                   21551968.2974
 106719791.64148  83158311.14546  20308098.0004                   20308104.7934
 116613641.32048  90867797.66545  22190841.6174                   22190850.7504
 118819337.70847  92586527.72744  22610567.9064                   22610577.0044
 129055432.517 7                  24558437.969
 108579869.58648  84607718.75646  20662059.5944                   20662064.5824
 11  7 23 16  9  0.0000000  0 10G03G13G07G19G20G16G32G06G31G23
 117123446.47247  91265151.57944  22287865.1484                   22287873.7304
 117711398.38047  91723291.17444  22399750.9384                   22399758.6174
 129823612.806 6                  24704608.844
 128881516.052 5                  24525325.172
 113312706.55747  88295638.73645  21562692.3524                   21562699.5594
 106744570.84548  83177619.61346  20312813.7034                   20312819.4534
 116692442.46748  90929201.06645  22205837.3204                   22205846.0784
 118765699.59447  92544731.86444  22600361.0084                   22600369.6564
 129122292.212 7                  24571161.141
 108526018.95348  84565757.22046  20651812.2114                   20651817.0514
 11  7 23 16  9 30.0000000  0 10G03G13G07G19G20G16G32G06G31G23
 117041730.39747  91201476.77844  22272314.9614                   22272323.9024
 117626818.19147  91657384.53944  22383655.7734                   22383662.9694
 129758624.651 6                  24692240.164
                                  24507890.852
 113369531.73447  88339918.04745  21573506.2114                   21573513.2344
 106769907.65348  83197362.59146  20317635.1254                   20317641.5704
 116771533.64747  90990830.52545  22220887.8134                   22220895.8134
 118712411.46247  92503208.64944  22590220.4224                   22590229.5784
 129189101.388 6                  24583874.375
 108472469.31148  84524030.24346  20641621.8594                   20641626.9734
 11  7 23 16 10  0.0000000  0 10G03G13G07G19G20G16G32G06G31G23
 116960271.46047  91138002.33544  22256813.8364                   22256822.3204
 117542329.99447  91591549.62844  22367578.0474                   22367585.7704
 129693701.803 5                  24679887.375
 128698173.79414                  24490436.359
 113426786.98847  88384532.51145  21584401.3364                   21584408.3094
 106795800.75548  83217539.04046  20322562.0944                   20322568.3364
 116850912.18747  91052683.88345  22235993.2114                   22236001.5904
 118659475.92947  92461960.22944  22580146.6804                   22580155.4924
 129255860.427 6                  24596578.172
 108419223.05348  84482539.65546  20631489.6484                   20631494.0314
 11  7 23 16 10 30.0000000  0 10G03G13G07G19G20G16G32G06G31G23
 116879073.27947  91074731.10144  22241362.4454                   22241370.7854
 117457936.05547  91525788.17644  22351518.4694                   22351526.5354
 129628843.933 6                  24667545.883
 128606346.86515                  24472963.289
 113484470.05347  88429480.34045  21595377.8054                   21595385.1604
 106822248.31448  83238147.54346  20327595.4064                   20327601.3444
 116930575.64747  91114759.26245  22251152.6094                   22251161.0984
 118606895.59847  92420988.58544  22570141.4694                   22570150.1454
 129322569.424 6                  24609272.867
 108366282.33148  84441287.15246  20621415.3914                   20621420.2974
 11  7 23 16 11  0.0000000  0 10G03G13G07G19G20G16G32G06G31G23
 116798139.20047  91011665.62544  22225960.9844                   22225970.1374
 117373638.14047  91460101.51744  22335477.4694                   22335484.6724
 129564050.595 5                  24655214.063
 128514419.88615                  24455469.609
 113542578.30647  88474759.46645  21606435.4224                   21606442.3794
 106849248.66148  83259186.78046  20332733.2734                   20332739.8284
 117010521.55147  91177054.69645  22266365.9614                   22266374.0784
 118554673.29347  92380295.93445  22560203.5164                   22560212.8634
 129389228.407 6                  24621956.781
 108313649.65348  84400274.68746  20611399.7344                   20611404.1724
 11  7 23 16 11 30.0000000  0 10G03G13G07G19G20G16G32G06G31G23
 116717472.13847  90948808.24044  22210610.0314                   22210619.1844
 117289437.99647  91394491.06045  22319454.3834                   22319462.2504
 129499321.365 5                  24642898.391
 128422395.48815                  24437958.609
 113601109.29847  88520368.00345  21617573.5864                   21617580.4964
 106876799.77348  83280655.17446  20337976.2584                   20337981.9384
 117090747.13748  91239568.09445  22281632.2114                   22281641.2664
 118502811.41347  92339884.16045  22550335.2344                   22550343.1484
 129455837.598 6                  24634632.688
 108261326.86948  84359503.69246  20601442.8834                   20601447.6564
 11  7 23 16 12  0.0000000  0 10G03G13G07G19G20G16G32G06G31G23
 116637075.58647  90886161.65144  22195311.1884                   22195319.9924
 117205337.86947  91328958.52345  22303450.9224                   22303458.4384
 129434655.843 5                  24630590.945
 128330276.447 5                  24420426.023
 113660060.33047  88566303.84145  21628791.8524                   21628799.2774
 106904900.18248  83302551.57946  20343323.1094                   20343329.2304
 117171249.73347  91302297.33245  22296952.0944                   22296960.1564
 118451312.57247  92299755.24144  22540535.2274                   22540543.9454
 129522397.161 6                  24647298.516
 108209316.32248  84318976.00046  20591545.4534                   20591550.9964
 11  7 23 16 12 30.0000000  0 10G03G13G07G19G20G16G32G06G31G23
 116556952.70847  90823728.28944  22180064.4064                   22180072.9454
 117121339.90947  91263505.63245  22287466.6804                   22287473.9924
 129370053.568 5                  24618298.367
 128238065.414 5                  24402880.055
 113719429.00048  88612565.11045  21640089.1174                   21640096.8954
 106933547.99048  83324874.55746  20348774.7274                   20348780.8794
 117252027.17947  91365240.73545  22312323.3834                   22312331.0434
 118400179.57147  92259911.39144  22530804.7974                   22530812.6094
 129588907.231 6                  24659955.195
 108157620.67848  84278693.69946  20581708.1644                   20581713.2194
 11  7 23 16 13  0.0000000  0 10G03G13G07G19G20G16G32G06G31G23
 116477106.81747  90761510.76344  22164870.7344                   22164878.7624
 117037445.94647  91198133.73345  22271502.2274                   22271509.4844
 129305513.862 6                  24606016.797
 128145764.956 5                  24385315.844
 113779212.53347  88659149.64845  21651465.7274                   21651473.1914
 106962741.45448  83347622.70346  20354330.0234                   20354336.2894
 117333076.53348  91428396.02645  22327746.8284                   22327754.6604
 118349415.01147  92220354.63844  22521144.7424                   22521153.6294
 129655367.975 6                  24672602.391
 108106241.81848  84238658.22246  20571931.3834                   20571936.1024
 11  7 23 16 13 30.0000000  0 10G03G13G07G19G20G16G32G06G31G23
 116397541.56047  90699511.93644  22149729.5164                   22149737.3594
 116953658.16447  91132844.59345  22255557.4534                   22255564.8404
 129241036.643 6                  24593747.578
 128053378.351 5                  24367735.539
 113839408.80848  88706055.80245  21662921.1174                   21662927.7034
 106992479.23148  83370794.98046  20359988.9224                   20359995.2704
 117414395.57647  91491761.44545  22343220.7194                   22343229.3134
 118299021.64347  92181087.15844  22511554.7504                   22511563.0084
 129721779.544 5                  24685239.391
 108055182.48648  84198871.74546  20562215.1334                   20562220.2854
 11  7 23 16 14  0.0000000  0 10G03G13G07G19G20G16G32G06G31G23
 116318260.02347  90637734.14844  22134642.5474                   22134650.3754
 116869978.40147  91067639.60145  22239633.5234                   22239641.3634
 129176621.785 6                  24581489.633
 127960908.358 5                  24350139.969
 113900015.35647  88753281.65945  21674453.6804                   21674460.4064
 107022759.50648  83394389.99546  20365751.0864                   20365757.5704
 117495981.77247  91555335.06444  22358745.9224                   22358753.5124
 118249002.09247  92142110.95044  22502036.2734                   22502044.6374
 129788142.331 6                  24697867.430
 108004444.89348  84159335.96346  20552560.1564                   20552564.4694
 11  7 23 16 14 30.0000000  0  9G03G13G07G20G16G32G06G31G23
 116239265.53247  90576180.04845  22119610.5394                   22119618.8364
 116786408.57247  91002520.30244  22223731.0004                   22223738.9454
 129112268.253 6                  24569243.539
 113961029.10848  88800824.82845  21686064.4844                   21686071.2544
 107053579.71548  83418405.74046  20371616.2344                   20371622.8634
 117577832.26247  91619114.59545  22374321.8594                   22374330.7504
 118199358.60847  92103427.77544  22492588.8834                   22492597.9924
 129854456.302 6                  24710487.656
 107954031.09248  84120052.48546  20542966.0704                   20542971.2034
 11  7 23 16 15  0.0000000  0  9G03G13G07G20G16G32G06G31G23
 116160561.52547  90514852.28745  22104633.7894                   22104642.2774
 116702950.55647  90937488.09344  22207849.3134                   22207856.2854
 129047976.075 6                  24557008.977
 114022447.79048  88848683.48845  21697752.1254                   21697758.8164
 107084938.37348  83442841.04846  20377583.6024                   20377589.8484
 117659944.42247  91683098.04245  22389947.9924                   22389955.6994
 118150094.07247  92065039.91644  22483214.8594                   22483223.1884
 129920721.726 6                  24723097.492
 107903943.67748  84081023.32246  20533435.1174                   20533439.7584
 11  7 23 16 15 30.0000000  0  9G03G13G07G20G16G32G06G31G23
 116082150.80347  90453753.09544  22089712.4224                   22089720.7464
 116619607.03947  90872545.12744  22191989.5164                   22191997.3674
 128983744.613 6                  24544785.953
 114084268.71747  88896855.62445  21709515.9144                   21709523.1334
 107116833.71648  83467694.55046  20383653.2114                   20383659.1684
 117742315.78447  91747283.44545  22405622.8754                   22405631.6524
 118101210.88147  92026949.17544  22473911.9534                   22473920.9144
 129986938.827 7                  24735698.039
 107854184.98648  84042250.32146  20523966.6484                   20523970.9494
 11  7 23 16 16  0.0000000  0 10G03G13G07G19G20G16G32G06G31G23
 116004036.89847  90392885.17245  22074847.5004                   22074856.2194
 116536380.02747  90807692.93644  22176151.6564                   22176159.3054
 128919573.454 6                  24532575.297
 127590149.09115                  24279607.430
 114146489.09447  88945338.98345  21721356.3754                   21721363.7384
 107149263.80148  83492964.72846  20389824.4064                   20389830.1294
 117824943.81348  91811668.85545  22421345.7194                   22421354.7624
 118052711.58147  91989157.56945  22464683.8054                   22464691.7154
 130053107.794 7                  24748290.813
 107804757.03348  84003735.03146  20514560.4694                   20514565.1094
 11  7 23 16 16 30.0000000  0 10G03G13G07G19G20G16G32G06G31G23
 115926223.06647  90332251.12245  22060039.9534                   22060048.8914
 116453271.24147  90742932.85944  22160336.8284                   22160344.2704
 128855462.013 6                  24520374.813
 127497302.73215                  24261937.758
 114209106.65747  88994131.86945  21733272.2034                   21733278.4734
 107182226.77448  83518650.15946  20396097.3754                   20396102.9454
 117907825.74347  91876252.13845  22437117.4144                   22437126.4654
 118004598.91447  91951667.21845  22455527.6484                   22455536.3594
 130119228.773 6                  24760872.086
 107755662.13848  83965479.27546  20505217.9384                   20505222.7344
 11  7 23 16 17  0.0000000  0 10G03G13G07G19G20G16G32G06G31G23
 115848712.46547  90271853.30745  22045290.5944                   22045299.0664
 116370282.90947  90678266.66244  22144544.6484                   22144552.6134
 128791410.363 6                  24508186.172
 127404389.45415                  24244256.148
 114272118.33647  89043231.85545  21745262.4614                   21745270.2194
 107215721.05448  83544749.58346  20402470.6804                   20402476.4024
 117990959.23047  91941031.40844  22452937.4304                   22452945.6684
 117956875.12747  91914479.92845  22446445.9774                   22446454.6564
 130185302.077 6                  24773445.844
 107706902.34648  83927484.63646  20495939.4224                   20495944.2664
 11  7 23 16 17 30.0000000  0 10G03G13G07G19G20G16G32G06G31G23
 115771508.46547  90211694.41645  22030598.7034                   22030607.4144
 116287417.01047  90613695.85944  22128775.8674                   22128782.9574
 128727417.965 6                  24496009.117
 127311411.997 6                  24226564.156
 114335521.80847  89092637.11845  21757328.2894                   21757335.0944
 107249743.96948  83571260.93346  20408945.1024                   20408951.0984
 118074341.12847  92006004.24645  22468804.6804                   22468812.8244
 117909542.71247  91877597.59545  22437439.1334                   22437447.8914
 130251327.841 6                  24786010.164
 107658480.37348  83889753.23946  20486724.9144                   20486729.9774
 11  7 23 16 18  0.0000000  0 10G03G13G07G19G20G16G32G06G31G23
 115694614.35447  90151776.99445  22015966.1884                   22015975.2154
 116204675.73447  90549222.17545  22113030.9064                   22113037.8404
 128663484.191 6                  24483843.023
 127218373.32345  99131261.76652  24208858.1644                   24208867.2504
 114399314.70147  89142345.81645  21769467.6644                   21769474.7074
 107284293.63148  83598182.74946  20415519.6024                   20415525.5434
 118157969.21447  92071168.93945  22484718.8364                   22484727.0664
 117862604.21547  91841022.19545  22428506.9614                   22428515.1804
 130317306.233 6                  24798565.945
 107610398.27548  83852286.68046  20477575.3834                   20477579.9224
 11  7 23 16 18 30.0000000  0 10G03G13G07G19G20G16G32G06G31G23
 115618033.20247  90092103.46345  22001393.2664                   22001402.0434
 116122061.26547  90484847.29945  22097309.2194                   22097316.2814
 128599608.764 6                  24471687.547
 127125276.29645  99058718.76142  24191141.9844                   24191152.2544
 114463493.90247  89192355.55645  21781680.2274                   21781687.9534
 107319368.60148  83625513.88846  20422194.0004                   20422200.1054
 118241840.92047  92136523.45445  22500678.6334                   22500688.0234
 117816062.46047  91804755.93145  22419649.6884                   22419658.7424
 130383237.746 6                  24811111.094
 107562658.57248  83815086.93046  20468490.9924                   20468495.5634
 11  7 23 16 19  0.0000000  0 10G03G13G07G19G20G16G32G06G31G23
 115541768.73647  90032676.67645  21986880.7974                   21986889.4964
 116039575.52447  90420572.74645  22081612.9844                   22081619.8094
 128535791.475 6                  24459544.125
 127032124.16245  98986132.74942  24173414.3674                   24173425.5044
 114528057.02847  89242664.44045  21793966.7034                   21793973.5744
 107354967.08548  83653252.95746  20428968.0704                   20428974.9064
 118325953.83947  92202065.91245  22516684.8594                   22516694.1524
 117769919.93647  91768800.76245  22410869.4844                   22410878.1024
 130449122.776 6                  24823649.961
 107515263.50148  83778155.71846  20459471.6174                   20459476.6254
 11  7 23 16 19 30.0000000  0 10G03G13G07G19G20G16G32G06G31G23
 115465823.87847  89973498.91745  21972428.4454                   21972437.4384
 115957221.25647  90356400.63345  22065941.1334                   22065948.9884
 128472031.791 6                  24447409.828
 126938919.83546  98913506.14843  24155677.2034                   24155688.4734
 114593001.53747  89293270.51445  21806324.9844                   21806332.0554
 107391087.20048  83681398.49546  20435841.7584                   20435847.9574
 118410305.13346  92267794.10544  22532736.3444                   22532745.3364
 117724179.01147  91733158.52545  22402164.9844                   22402174.0784
 130514961.532 6                  24836178.672
 107468215.95148  83741495.30646  20450518.8914                   20450523.6764
 11  7 23 16 20  0.0000000  0 10G03G13G07G19G20G16G32G06G31G23
 115390201.77047  89914572.66145  21958038.1884                   21958046.9844
 115875000.26147  90292332.34945  22050295.5864                   22050303.3404
 128408329.06016                  24435288.070
 126845665.16146  98840840.35843  24137932.5944                   24137942.1724
 114658324.16847  89344171.22945  21818755.0944                   21818763.0234
 107427725.97948  83709948.18946  20442813.6724                   20442819.9534
 118494891.94347  92333705.86444  22548833.5864                   22548840.5514
 117678841.71747  91697830.80945  22393538.1724                   22393546.5044
 130580753.889 6                  24848698.242
 107421517.20748  83705106.68646  20441632.2814                   20441636.9964
 11  7 23 16 20 30.0000000  0 10G03G13G07G19G20G16G32G06G31G23
 115314905.38847  89855900.22045  21943710.3524                   21943718.7304
 115792914.47347  90228369.44045  22034674.6954                   22034682.2934
 128344683.098 6                  24423175.773
 126752363.77446  98768138.10743  24120177.8134                   24120186.8634
 114724022.31747  89395364.55245  21831257.1804                   21831265.0434
 107464881.66948  83738900.66746  20449884.3524                   20449890.7154
 118579711.78347  92399799.18445  22564974.3524                   22564982.6334
 117633910.77547  91662819.71845  22384987.8204                   22384996.2854
 130646500.133 6                  24861208.773
 107375169.65948  83668991.72446  20432812.7034                   20432817.4694
 11  7 23 16 21  0.0000000  0 10G03G13G07G19G20G16G32G06G31G23
 115239938.44747  89797484.48645  21929444.6024                   21929452.4344
 115710966.09147  90164513.61345  22019080.5864                   22019088.3714
 128281093.432 6                  24411075.938
 126659018.75046  98695401.89243  24102415.0234                   24102424.1414
 114790093.84247  89446848.80345  21843830.3674                   21843837.7664
 107502552.98848  83768254.91646  20457053.0164                   20457059.3164
 118664762.03447  92466072.03645  22581158.7814                   22581167.8284
 117589388.74347  91628127.26045  22376515.4064                   22376523.7034
 130712201.076 6                  24873711.313
 107329176.16148  83633152.64046  20424060.3594                   20424065.3284
 11  7 23 16 21 30.0000000  0 10G03G13G07G19G20G16G32G06G31G23
 115165304.12847  89739327.92245  21915242.2194                   21915250.2194
 115629157.49947  90100766.66945  22003512.8364                   22003519.9264
 128217559.436 6                  24398986.328
 126565632.90946  98622633.90043  24084643.9924                   24084653.4614
 114856535.74047  89498621.67045  21856473.5554                   21856480.6684
 107540736.91448  83798008.61046  20464318.9844                   20464325.2704
 118750040.20547  92532522.47045  22597385.7274                   22597396.0314
 117545277.81447  91593755.16245  22368121.4384                   22368130.0204
 130777856.720 6                  24886205.617
 107283538.94948  83597591.18646  20415375.9064                   20415380.6844
 11  7 23 16 22  0.0000000  0 10G03G13G07G19G20G16G32G06G31G23
 115091005.38547  89681432.85445  21901103.3834                   21901112.0594
 115547490.98847  90037130.46245  21987972.0314                   21987980.3834
 128154080.933 6                  24386906.648
 126472208.96746  98549836.17043  24066865.9844                   24066875.3094
 114923345.19347  89550680.95845  21869187.7114                   21869195.4734
 107579431.89948  83828160.51346  20471682.4924                   20471688.5824
 118835543.39947  92599148.21344  22613656.5704                   22613666.4614
 117501580.58247  91559705.41845  22359805.9224                   22359814.8634
 130843466.968 6                  24898690.125
 107238259.84648  83562308.77046  20406759.9454                   20406764.5904
 11  7 23 16 22 30.0000000  0 10G03G13G07G19G20G16G32G06G31G23
 115017045.34047  89623801.74045  21887028.7734                   21887036.9804
 115465968.46047  89973606.44745  21972459.6334                   21972466.7074
 128090657.449 6                  24374836.977
 126378749.99246  98477011.12742  24049080.1954                   24049090.7274
 114990519.49247  89603024.51345  21881970.7894                   21881978.0394
 107618635.81148  83858709.01346  20479142.7974                   20479149.1374
 118921269.04747  92665947.33645  22629970.3674                   22629979.0864
 117458299.27847  91525979.74845  22351569.6564                   22351578.2734
 130909032.388 6                  24911167.219
 107193341.23748  83527307.28146  20398211.7974                   20398217.2934
 11  7 23 16 23  0.0000000  0 10G03G13G07G19G20G16G32G06G31G23
 114943427.46747  89566437.20645  21873019.7894                   21873027.9694
 115384592.20447  89910196.41045  21956973.4774                   21956981.1484
 128027288.250 6                  24362778.453
 126285258.64246  98404160.94242  24031290.2734                   24031299.2704
 115058055.68847  89655650.07845  21894822.0004                   21894829.8984
 107658346.06248  83889652.03846  20486699.6174                   20486705.4884
 119007214.39147  92732917.70344  22646325.1484                   22646333.2584
 117415436.24647  91492580.02945  22343413.1024                   22343420.9734
 130974553.155 6                  24923635.078
 107148785.08548  83492588.20746  20389733.0864                   20389738.0784
 11  7 23 16 23 30.0000000  0 10G03G13G07G19G20G16G32G06G31G23
 114870154.77647  89509341.62945  21859076.3834                   21859085.1054
 115303364.67647  89846902.26345  21941516.3834                   21941523.7894
 127963973.337 6                  24350729.375
 126191737.995 5                  24013493.180
 115125951.18847  89708555.61445  21907742.4844                   21907749.4734
 107698561.21848  83920988.50446  20494351.9844                   20494358.4494
 119093376.89947  92800057.26044  22662721.2894                   22662729.9414
 117372993.84447  91459508.03945  22335336.4224                   22335345.5354
 131040029.651 6                  24936095.773
 107104594.10948  83458153.68646  20381324.2034                   20381329.1374
 11  7 23 16 24  0.0000000  0 10G03G13G07G19G20G16G32G06G31G23
 114797230.71547  89452517.73545  21845199.8364                   21845207.3364
 115222287.61547  89783725.37445  21926088.4144                   21926095.1804
 127900712.493 6                  24338691.430
 126098191.31045  98258375.40652  23995692.2734                   23995699.3324
 115194203.38647  89761739.10645  21920730.3914                   21920737.8244
 107739279.24148  83952716.83746  20502100.6884                   20502107.3444
 119179753.81247  92867363.85145  22679157.9844                   22679167.2894
 117330974.76047  91426765.93145  22327340.7734                   22327348.6214
 131105462.415 7                  24948547.172
 107060770.98948  83424005.81546  20372984.7504                   20372989.4494
 11  7 23 16 24 30.0000000  0 10G03G13G07G19G20G16G32G06G31G23
 114724658.41247  89395967.92445  21831389.3204                   21831397.9224
 115141363.31547  89720667.50645  21910689.0164                   21910696.1564
 127837504.807 6                  24326663.883
 126004621.05246  98185463.71142  23977887.9224                   23977894.7384
 115262809.12347  89815198.07145  21933785.5704                   21933792.3014
 107780497.15848  83984834.69746  20509944.4064                   20509950.5594
 119266342.66847  92934835.57045  22695636.0864                   22695645.4694
 117289380.72047  91394355.01745  22319425.5704                   22319434.0864
 131170851.412 6                  24960990.164
 107017317.31348  83390145.80946  20364715.9844                   20364720.6024
 11  7 23 16 25  0.0000000  0 10G03G13G07G19G20G16G32G06G31G23
 114652441.10947  89339694.77245  21817646.8444                   21817655.2934
 115060594.34747  89657730.66845  21895319.0004                   21895326.1484
 127774350.218 6                  24314645.484
 125911030.10646  98112535.73342  23960078.2034                   23960085.1844
 115331766.16148  89868930.80545  21946907.4694                   21946913.9414
 107822213.41848  84017340.87646  20517882.3204                   20517889.1374
 119353140.84547  93002470.39445  22712153.7814                   22712162.3754
 117248214.56647  91362277.50245  22311592.1254                   22311600.4144
 131236197.043 6                  24973425.203
 106974235.64848  83356575.68546  20356517.5554                   20356522.1454
 11  7 23 16 25 30.0000000  0 10G03G13G07G19G20G16G32G06G31G23
 114580581.40947  89283700.23045  21803972.2274                   21803980.8984
 114979982.50948  89594916.28545  21879978.8914                   21879985.9024
 127711247.930 6                  24302637.688
 125817422.31145  98039594.70052  23942263.1334                   23942273.3014
 115401071.33847  89922934.77445  21960095.6954                   21960103.2384
 107864425.39148  84050233.31446  20525914.8984                   20525921.3834
 119440145.17147  93070265.94244  22728709.4384                   22728717.2274
 117207478.23547  91330534.93245  22303840.2584                   22303848.3204
 131301499.394 6                  24985851.227
 106931527.75348  83323296.82646  20348390.4534                   20348395.1564
 11  7 23 16 26  0.0000000  0 10G03G13G07G19G20G16G32G06G31G23
 114509082.09347  89227986.51945  21790366.3134                   21790375.1954
 114899529.90248  89532225.96145  21864669.0704                   21864676.3054
 127648197.208 6                  24290639.648
 125723817.84715                  23924446.828
 115470721.55747  89977207.64845  21973349.8594                   21973356.5204
 107907130.61948  84083510.12546  20534041.5004                   20534047.5704
 119527352.67147  93138219.78044  22745304.0084                   22745312.8164
 117167173.41647  91299128.59245  22296170.2504                   22296178.9224
 131366758.788 6                  24998268.797
 106889195.86448  83290310.94446  20340334.7114                   20340339.7464
 11  7 23 16 26 30.0000000  0 10G03G13G07G19G20G16G32G06G31G23
 114437947.50047  89172557.01445  21776830.3834                   21776838.4494
 114819239.95247  89469662.39145  21849390.5164                   21849397.7544
 127585198.816 6                  24278650.711
 125630184.108 5                  23906630.063
 115540714.36647  90031747.43845  21986669.0084                   21986676.6724
 107950327.84248  84117170.29646  20542261.8054                   20542267.9454
 119614761.85147  93206330.73344  22761938.2664                   22761946.3914
 117127303.39647  91268061.05245  22288583.4064                   22288591.5004
 131431976.207 6                  25010680.992
 106847242.73848  83257620.21046  20332351.4454                   20332356.5124
 11  7 23 16 27  0.0000000  0 10G03G13G07G19G20G16G32G06G31G23
 114367180.33347  89117413.80345  21763363.3134                   21763370.9494
 114739113.98847  89407226.59245  21834142.8914                   21834150.1604
 127522251.765 6                  24266671.453
                                  23888809.234
 115611046.62347  90086551.75545  22000052.8444                   22000060.3484
 107994014.21948  84151211.61846  20550574.9384                   20550581.2424
 119702369.39447  93274596.23245  22778609.7424                   22778618.1724
 117087870.06347  91237333.77144  22281079.9224                   22281087.4654
 131497151.679 6                  25023083.109
 106805670.47948  83225226.25446  20324440.2894                   20324445.4184
 11  7 23 16 27 30.0000000  0 10G03G13G07G19G20G16G32G06G31G23
 114296783.73248  89062559.30745  21749967.8204                   21749975.4804
 114659154.41748  89344920.45245  21818926.6644                   21818934.1414
 127459355.410 6                  24254703.336
 125442894.49015                  23870989.227
 115681716.02647  90141618.76245  22013500.7344                   22013508.3874
 108038187.85948  84185632.63046  20558980.9534                   20558986.8204
 119790172.60747  93343014.27745  22795317.9694                   22795326.4344
 117048875.66947  91206948.55845  22273659.4454                   22273666.7114
 131562285.426 6                  25035477.094
 106764481.28848  83193130.78746  20316602.2814                   20316607.5394
 11  7 23 16 28  0.0000000  0 10G03G13G07G19G20G16G32G06G31G23
 114226760.76947  89007996.01745  21736642.6414                   21736650.8014
 114579363.13548  89282745.46345  21803743.6484                   21803751.1054
 127396509.701 6                  24242743.469
 125349244.447 5                  23853168.859
 115752719.49347  90196946.08245  22027012.7734                   22027019.8674
 108082846.00148  84220431.16446  20567479.1414                   20567485.2424
 119878168.68647  93411582.55144  22812062.6254                   22812072.3324
 117010322.15747  91176906.86744  22266322.9534                   22266330.6024
 131627377.534 6                  25047864.875
 106723676.87448  83161335.14246  20308837.3914                   20308842.6644
 11  7 23 16 28 30.0000000  0 10G03G13G07G19G20G16G32G06G31G23
 114157114.50947  88953726.19545  21723389.4454                   21723397.0084
 114499742.94648  89220703.77745  21788592.0704                   21788599.5904
 127333713.771 6                  24230794.945
 125255594.96945  97601790.79552  23835346.7274                   23835354.8754
 115824053.96047  90252531.32145  22040587.5234                   22040594.2934
 108127986.51148  84255605.59046  20576069.4144                   20576075.4224
 119966354.86047  93480298.97644  22828843.2194                   22828852.3954
 116972211.73247  91147210.42045  22259070.3054                   22259078.5234
 131692428.516 6                  25060243.375
 106683260.03548  83129841.50746  20301146.2734                   20301151.5554
 11  7 23 16 29  0.0000000  0 10G03G13G07G19G20G16G32G06G31G23
 114087848.35447  88899752.56445  21710208.7894                   21710216.0084
 114420296.07648  89158797.14845  21773473.8594                   21773481.5124
 127270967.239 6                  24218854.250
 125161949.25546  97528820.19942  23817526.1884                   23817534.6214
 115895717.15248  90308372.74045  22054224.3984                   22054231.3954
 108173607.46148  84291154.36346  20584750.4844                   20584756.9454
 120054728.99347  93549161.84944  22845661.7194                   22845670.0044
 116934547.04847  91117861.34745  22251903.0784                   22251911.1644
 131757438.882 6                  25072614.578
 106643232.86648  83098651.50846  20293529.2894                   20293534.6644
 11  7 23 16 29 30.0000000  0 10G03G13G07G19G20G16G32G06G31G23
 114018965.26347  88846077.45345  21697100.5394                   21697108.2974
 114341024.82448  89097027.37345  21758389.1414                   21758396.6174
 127208270.017 6                  24206924.250
 125068310.31246  97455854.82343  23799707.8134                   23799716.1454
 115967705.82847  90364467.75245  22067923.3054                   22067930.8954
 108219706.36448  84327075.58746  20593522.8444                   20593529.0474
 120143288.11247  93618168.87744  22862513.5864                   22862523.0634
 116897329.97747  91088861.04745  22244820.7194                   22244829.0984
 131822408.845 6                  25084977.820
 106603597.63548  83067766.91046  20285986.9774                   20285992.1604
 11  7 23 16 30  0.0000000  0 10G03G13G07G19G20G16G32G06G31G23
 113950468.01247  88792703.00445  21684065.8284                   21684074.4654
 114261931.31048  89035396.07445  21743338.2424                   21743345.0394
 127145621.742 6                  24195002.086
 124974680.95346  97382896.99643  23781891.7194                   23781899.4734
 116040017.01247  90420814.07145  22081683.4064                   22081691.0354
 108266280.93248  84363367.43646  20602385.7114                   20602391.7034
 120232029.26947  93687317.74244  22879400.6174                   22879410.1914
 116860562.51447  91060211.11145  22237824.0944                   22237832.8794
 131887338.788 6                  25097334.016
 106564356.63348  83037189.50646  20278520.1884                   20278525.1684
 11  7 23 16 30 30.0000000  0 10G03G13G07G19G20G16G32G06G31G23
 113882360.11647  88739631.93945  21671105.2034                   21671113.2504
 114183017.98148  88973905.20445  21728321.1484                   21728328.9924
 127083021.665 6                  24183089.820
 124881064.34646  97309949.06443  23764076.7034                   23764084.7814
 116112647.48147  90477409.20245  22095504.6954                   22095512.0744
 108313328.88748  84400028.15746  20611338.7424                   20611344.9534
 120320949.94247  93756606.46944  22896321.9534                   22896331.5394
 116824246.92847  91031913.23745  22230913.8364                   22230922.0434
 131952228.863 6                  25109681.641
 106525511.61748  83006920.65446  20271128.1804                   20271132.8984
 11  7 23 16 31  0.0000000  0 10G03G13G07G19G20G16G32G06G31G23
 113814644.85947  88686866.82245  21658218.6644                   21658227.4184
 114104287.41848  88912556.72745  21713339.5864                   21713346.8054
 127020469.591 6                  24171185.930
 124787463.65246  97237013.61344  23746264.4144                   23746272.9454
 116185595.19747  90534251.50145  22109386.4774                   22109393.5234
 108360847.99948  84437056.02646  20620381.0234                   20620387.3094
 120410047.74047  93826033.19344  22913276.1254                   22913285.6334
 116788385.43347  91003969.26245  22224088.6954                   22224098.1954
 132017079.950 6                  25122022.031
 106487065.09348  82976962.32746  20263811.8754                   20263816.7774
 11  7 23 16 31 30.0000000  0 10G03G13G07G19G20G16G32G06G31G23
 113747324.65547  88634409.53945  21645408.4774                   21645416.9344
 114025741.51648  88851352.12745  21698392.6954                   21698399.6914
 126957965.133 6                  24159292.688
 124693882.19646  97164093.08343  23728456.3914                   23728465.4844
 116258857.08347  90591338.62945  22123327.7194                   22123334.9534
 108408836.00448  84474449.25446  20629512.9304                   20629519.6294
 120499319.63247  93895595.65244  22930265.2734                   22930273.7154
 116752979.94947  90976380.55845  22217351.3594                   22217360.7704
 132081892.407 6                  25134357.156
 106449019.41748  82947316.34146  20256572.1564                   20256577.1414
 11  7 23 16 32  0.0000000  0 10G03G13G07G19G20G16G32G06G31G23
 113680402.58047  88582262.48645  21632673.8914                   21632681.9924
 113947382.71348  88790293.34445  21683481.7424                   21683488.6954
 126895507.860 7                  24147407.242
 124600322.34046  97091189.39944  23710653.2424                   23710660.8554
 116332429.87147  90648668.04145  22137328.1484                   22137335.3054
 108457290.29448  84512205.81946  20638733.7584                   20638739.8914
 120588762.96347  93965291.65344  22947285.2424                   22947293.6844
 116718032.51347  90949148.80645  22210701.2894                   22210710.3244
 132146665.933 6                  25146683.109
 106411376.14548  82917983.92346  20249409.0944                   20249413.7464
 11  7 23 16 32 30.0000000  0 10G03G13G07G19G20G16G32G06G31G23
 113613881.97447  88530428.27645  21620015.2974                   21620023.5554
 113869213.37448  88729382.19545  21668606.1954                   21668612.7934
 126833097.335 6                  24135530.469
 124506787.48447  97018305.24044  23692854.0004                   23692861.3984
 116406310.71847  90706237.47845  22151387.3984                   22151394.5084
 108506208.49048  84550323.88746  20648042.4924                   20648048.7034
 120678374.82147  94035118.99644  22964337.4844                   22964347.4064
 116683545.35547  90922275.69945  22204138.4454                   22204147.6764
 132211401.006 6                  25159002.078
 106374137.78648  82888967.03146  20242322.3914                   20242328.1564
 11  7 23 16 33  0.0000000  0 11G03G13G07G19G10G20G16G32G06G31G23
 113547765.71347  88478909.12445  21607434.2504                   21607441.6914
 113791235.74748  88668620.42545  21653767.9454                   21653775.1524
 126770732.786 6                  24123663.242
 124413280.70246  96945442.86544  23675059.6174                   23675067.7894
 130282951.70315                  24792001.102
 116480496.69447  90764044.69045  22165504.1024                   22165511.7234
 108555587.66948  84588801.14146  20657439.1644                   20657445.3134
 120768152.46747  94105075.48645  22981422.0314                   22981431.7274
 116649519.87447  90895762.35845  22197663.7194                   22197672.2114
 132276098.119 6                  25171312.797
 106337306.16348  82860267.05146  20235314.0474                   20235318.7344
 11  7 23 16 33 30.0000000  0 11G03G13G07G19G10G20G16G32G06G31G23
 113482056.49247  88427707.12845  21594930.1254                   21594937.6644
 113713452.06548  88608009.76845  21638966.0314                   21638972.8714
 126708413.956 6                  24111804.469
 124319804.95446  96872604.78344  23657271.9454                   23657279.9534
                                  24778813.031
 116554984.63847  90822087.16045  22179679.9144                   22179686.0944
 108605425.74948  84627635.99146  20666922.8444                   20666929.0124
 120858093.36147  94175159.17345  22998537.9844                   22998546.7814
 116615958.29247  90869610.48345  22191277.5164                   22191285.4734
 132340757.774 6                  25183616.703
 106300883.24748  82831885.56746  20228382.6954                   20228387.7814
 11  7 23 16 34  0.0000000  0 11G03G13G07G19G10G20G16G32G06G31G23
 113416757.65447  88376824.94345  21582503.7114                   21582511.8794
 113635865.25548  88547552.52845  21624201.6804                   21624208.6844
 126646140.976 6                  24099953.992
 124226363.91346  96799793.60944  23639491.0864                   23639498.5824
 130144759.444 5                  24765703.664
 116629772.15247  90880363.11945  22193910.5944                   22193917.7194
 108655720.84548  84666826.96746  20676494.0004                   20676500.3284
 120948194.93247  94245368.08544  23015683.0944                   23015692.0664
 116582863.28747  90843822.15145  22184979.9454                   22184987.6914
 132405380.342 6                  25195914.938
 106264872.16248  82803824.99046  20221530.4614                   20221535.1914
 11  7 23 16 34 30.0000000  0 11G03G13G07G19G10G20G16G32G06G31G23
 113351872.73047  88326265.27345  21570156.6414                   21570164.2734
 113558477.52848  88487250.43145  21609475.0314                   21609482.4184
 126583913.231 6                  24088112.336
 124132960.34446  96727011.67844  23621716.6414                   23621724.9614
 130076262.569 5                  24752670.750
 116704856.22147  90938870.15145  22208198.6094                   22208206.7664
 108706470.67848  84706372.27146  20686151.2894                   20686157.1914
 121038454.57047  94315700.23244  23032858.8834                   23032867.0864
 116550236.51447  90818398.71445  22178771.0634                   22178778.9774
 132469966.688 6                  25208203.852
 106229274.88048  82776086.84846  20214755.9144                   20214760.8794
 11  7 23 16 35  0.0000000  0 11G03G13G07G19G10G20G16G32G06G31G23
 113287403.90547  88276029.83745  21557888.3914                   21557896.8984
 113481290.92748  88427105.04445  21594787.2504                   21594793.6334
 126521730.122 6                  24076279.750
 124039597.12546  96654261.24244  23603949.4694                   23603958.0824
 130008167.82115                  24739711.156
 116780233.78247  90997605.85445  22222542.8674                   22222549.7584
 108757672.17648  84746269.52546  20695894.6804                   20695901.0664
 121128869.22547  94386153.13544  23050064.2344                   23050073.4344
 116518079.58047  90793341.37245  22172651.6024                   22172659.7664
 132534516.654 6                  25220487.617
 106194093.06148  82748672.44846  20208060.8834                   20208065.7384
 11  7 23 16 35 30.0000000  0 11G03G13G07G19G10G20G16G32G06G31G23
 113223354.59847  88226121.29745  21545700.6024                   21545708.2424
 113404308.12348  88367118.47345  21580137.7344                   21580145.0004
 126459591.419 6                  24064454.953
 123946277.54546  96581544.79144  23586191.3914                   23586199.5704
 129940477.06415                  24726829.523
 116855902.26647  91056568.27845  22236941.6174                   22236949.6994
 108809323.30148  84786517.13746  20705723.4224                   20705729.4534
 121219436.40347  94456724.82944  23067298.1564                   23067307.3094
 116486395.12547  90768652.19545  22166621.8134                   22166630.2584
 132599030.814 6                  25232764.555
 106159329.03448  82721583.59446  20201445.9534                   20201450.8674
 11  7 23 16 36  0.0000000  0 11G03G13G07G19G10G20G16G32G06G31G23
 113159727.78147  88176541.96545  21533592.6884                   21533600.6094
 113327531.33948  88307292.42945  21565527.4774                   21565534.7114
 126397496.587 6                  24052638.070
 123853004.63047  96508864.65944  23568442.6414                   23568450.2624
 129873191.62215                  24714025.992
 116931858.38547  91115754.77545  22251395.9534                   22251403.7854
 108861421.55148  84827113.16846  20715637.7194                   20715643.5084
 121310153.44447  94527413.34644  23084561.1644                   23084570.8204
 116455184.40747  90744332.16545  22160683.6254                   22160691.4964
 132663509.455 5                  25245033.992
 106124984.46948  82694821.59246  20194910.2194                   20194915.1684
 11  7 23 16 36 30.0000000  0 11G03G13G07G19G10G20G16G32G06G31G23
 113096526.49347  88127294.23045  21521565.7734                   21521573.9144
 113250963.29948  88247629.02645  21550957.1094                   21550964.5864
 126335445.562 6                  24040830.047
 123759782.07447  96436223.77244  23550703.0314                   23550709.9964
 129806314.40315                  24701298.797
 117008099.45347  91175163.38245  22265903.7194                   22265911.0944
 108913964.79148  84868055.92246  20725636.0784                   20725642.1724
 121401017.49347  94598216.39844  23101852.1484                   23101862.4454
 116424449.81547  90720383.14645  22154834.5084                   22154842.0864
 132727953.29115                  25257295.820
 106091062.00748  82668388.49846  20188454.9304                   20188460.0234
 11  7 23 16 37  0.0000000  0 11G03G13G07G19G10G20G16G32G06G31G23
 113033753.17447  88078379.98045  21509620.3204                   21509628.5514
 113174606.30548  88188130.10545  21536427.2274                   21536434.2704
 126273437.684 6                  24029030.367
 123666612.66947  96363624.32043  23532973.1414                   23532980.5904
 129739846.80015                  24688651.508
 117084622.31047  91234791.49445  22280465.8204                   22280473.6684
 108966950.11748  84909343.18746  20735718.5084                   20735725.1524
 121492026.07547  94669132.05744  23119171.0784                   23119179.9694
 116394192.87947  90696806.32245  22149076.8984                   22149085.1764
 132792362.323 5                  25269553.891
 106057563.62348  82642285.85746  20182080.4144                   20182085.4844
 11  7 23 16 37 30.0000000  0 11G03G13G07G19G10G20G16G32G06G31G23
 112971411.26447  88029801.88345  21497757.1024                   21497765.6094
 113098462.45048  88128797.25845  21521936.9614                   21521944.2274
 126211472.517 6                  24017238.719
 123573499.30447  96291068.56143  23515253.8204                   23515261.7274
 129673790.95115                  24676080.125
 117161424.06047  91294636.94245  22295080.9304                   22295088.4534
 109020374.96948  84950972.92446  20745885.3284                   20745891.3484
 121583176.25146  94740158.08144  23136515.9924                   23136525.3524
 116364415.56747  90673603.22045  22143410.4534                   22143418.7274
 132856737.255 6                  25281804.891
 106024491.33248  82616515.22146  20175787.1094                   20175791.9924
 11  7 23 16 38  0.0000000  0 11G03G13G07G19G10G20G16G32G06G31G23
 112909503.64847  87981562.19145  21485976.4454                   21485984.4064
 113022534.39048  88069632.55145  21507488.6094                   21507495.9144
 126149549.750 6                  24005455.391
 123480445.42546  96218559.11943  23497546.3754                   23497554.2194
 129608148.809 5                  24663588.055
 117238501.98547  91354697.63445  22309748.8054                   22309755.1844
 109074237.36848  84992943.60546  20756135.0944                   20756140.9574
 121674465.39247  94811292.36844  23153888.3984                   23153897.3054
 116335119.64447  90650775.26345  22137835.4924                   22137843.3204
 132921078.356 6                  25294050.094
 105991847.17348  82591078.22246  20169574.5634                   20169579.8834
 11  7 23 16 38 30.0000000  0 11G03G13G07G19G10G20G16G32G06G31G23
 112848032.72847  87933662.79045  21474278.6644                   21474287.3634
 112946824.11348  88010637.54045  21493081.3914                   21493088.8364
 126087668.816 6                  23993679.539
 123387454.00246  96146098.35843  23479851.1174                   23479858.7114
 129542922.05545 100942490.35452  24651177.3364                   24651187.3164
 117315852.34847  91414970.58545  22324467.4924                   22324475.5864
 109128534.15248  85035252.77246  20766467.0004                   20766473.2934
 121765890.30447  94882532.45944  23171285.8364                   23171295.6524
 116306306.81547  90628323.71045  22132352.7114                   22132360.5634
 132985385.781 4                  25306286.273
 105959633.08648  82565976.33446  20163444.9224                   20163449.7304
 11  7 23 16 39  0.0000000  0 11G03G13G07G19G10G20G16G32G06G31G23
 112787001.74747  87886106.18045  21462664.8524                   21462672.8874
 112871334.34948  87951814.37645  21478716.5164                   21478723.5864
 126025829.845 6                  23981912.336
 123294528.48446  96073688.95543  23462167.1094                   23462175.4184
 129478112.67646 100891989.59042  24638844.0394                   24638854.2934
 117393472.77547  91475453.96345  22339237.9844                   22339245.6214
 109183263.45448  85077898.96746  20776881.7034                   20776888.1294
 121857449.08147  94953876.81344  23188709.9694                   23188718.9694
 116277979.23447  90606250.28545  22126962.0634                   22126970.1844
 133049660.448 5                  25318518.875
 105927851.48048  82541211.42846  20157397.4924                   20157402.1994
 11  7 23 16 39 30.0000000  0 11G03G13G07G19G10G20G16G32G06G31G23
 112726413.67147  87838894.71545  21451135.2734                   21451143.6804
 112796067.72948  87893165.07645  21464393.0634                   21464400.4024
 125964031.800 6                  23970151.164
 123201671.80446  96001333.23843  23444496.9774                   23444505.8364
                                  24626591.0784                   24626601.3674
 117471360.08447  91536145.32545  22354060.2974                   22354067.6294
 109238422.40647  85120879.96146  20787378.2114                   20787384.6334
 121949138.28847  95025322.88844  23206157.3284                   23206166.6524
 116250138.43947  90584556.16245  22121664.1724                   22121671.9614
 133113902.53715                  25330744.500
 105896503.97248  82516784.82646  20151432.0234                   20151436.7854
 11  7 23 16 40  0.0000000  0 11G03G13G07G19G10G20G16G32G06G31G23
 112666270.90447  87792030.23745  21439690.5554                   21439698.8014
 112721026.44248  87834691.36445  21450113.5314                   21450120.4654
 125902274.767 6                  23958399.805
 123108887.10046  95929033.57243  23426841.0314                   23426848.5044
 129349753.45845 100791969.49442  24614418.2274                   24614427.9384
 117549511.62547  91597042.57945  22368931.7034                   22368939.3134
 109294008.65048  85164193.89746  20797956.1884                   20797962.6804
 122040955.69247  95096868.80744  23223629.4304                   23223638.9184
 116222786.38647  90563242.87645  22116459.2344                   22116467.0394
 133178112.67614                  25342964.992
 105865592.90748  82492698.26546  20145549.6024                   20145554.8834
 11  7 23 16 40 30.0000000  0 11G03G13G07G19G10G20G16G32G06G31G23
 112606576.66747  87745515.26245  21428331.2894                   21428339.4534
 112646212.80148  87776395.05745  21435876.7974                   21435884.1454
 125840558.000 6                  23946656.094
 123016177.42946  95856792.30543  23409198.9384                   23409206.2814
 129286207.24646 100742453.00842  24602326.0704                   24602336.1214
 117627923.93447  91658143.00745  22383853.4534                   22383861.0984
 109350019.61948  85207838.79146  20808614.3284                   20808621.0514
 122132898.47947  95168512.43944  23241126.1254                   23241134.6484
 116195924.53247  90542311.59245  22111347.4304                   22111355.9344
 133242290.97915                  25355190.844
 105835120.09848  82468953.21546  20139750.6564                   20139756.2114
 11  7 23 16 41  0.0000000  0 10G03G13G07G19G10G20G16G32G06G23
 112547333.56547  87699351.79645  21417057.7814                   21417066.0514
 112571629.23548  87718278.00245  21421683.9384                   21421691.7304
 125778881.280 6                  23934919.711
 122923545.87246  95784611.98943  23391572.2274                   23391578.6524
 129223085.50146 100693267.26842  24590314.2034                   24590324.3094
 117706594.11447  91719444.39545  22398822.9064                   22398832.0634
 109406452.56848  85251812.50846  20819353.5554                   20819359.8364
 122224963.46147  95240251.27144  23258645.2974                   23258654.9804
 116169554.50247  90521763.52645  22106329.3984                   22106337.8594
 105805087.47248  82445551.18046  20134035.8754                   20134041.2624
 11  7 23 16 41 30.0000000  0 10G03G13G07G19G10G20G16G32G06G23
 112488545.25747  87653542.73945  21405870.8364                   21405878.8204
 112497279.41948  87660343.08345  21407535.6334                   21407543.3594
 125717245.253 6                  23923190.445
 122830996.89746  95712496.02843  23373959.4694                   23373967.4614
 129160391.09445 100644414.51542  24578382.7424                   24578393.7344
 117785520.14947  91780945.12045  22413842.7274                   22413851.7464
 109463305.88048  85296113.78046  20830172.2974                   20830178.6764
 122317149.29646  95312084.27444  23276186.9694                   23276196.9344
 116143679.03347  90501600.81545  22101405.7114                   22101413.9534
 105775498.03948  82422494.47146  20128405.2114                   20128410.1524
 11  7 23 16 42  0.0000000  0 10G03G13G07G19G10G20G16G32G06G23
 112430214.10747  87608089.89745  21394770.7034                   21394779.1484
 112423164.97948  87602591.57845  21393432.3754                   21393439.0354
 125655648.719 6                  23911469.039
 122738532.78746  95640446.11943  23356364.6254                   23356372.2464
 129098124.83345 100595895.43442  24566533.0864                   24566544.1294
 117864698.18647  91842642.23045  22428909.4224                   22428917.5124
 109520576.51148  85340740.22846  20841070.0864                   20841076.5944
 122409452.39747  95384008.67144  23293751.6024                   23293761.5904
 116118299.04547  90481824.21845  22096576.0394                   22096584.0634
 105746352.99248  82399784.04746  20122858.7344                   20122864.4964
 11  7 23 16 42 30.0000000  0 10G03G13G07G19G10G20G16G32G06G23
 112372342.71147  87562995.30545  21383758.3284                   21383766.5744
 112349287.87948  87545025.02945  21379373.4844                   21379380.8674
 125594090.898 6                  23899754.586
 122646156.55046  95568464.72944  23338786.0164                   23338793.9384
 129036288.60856 100547711.38253  24554766.8914                   24554777.4264
 117944125.38747  91904533.48745  22444024.3054                   22444032.2584
 109578261.67948  85385689.68446  20852047.4844                   20852053.6214
 122501869.66346  95456022.00144  23311338.7344                   23311348.5044
 116093416.15947  90462434.99045  22091840.4844                   22091848.6484
 105717654.07448  82377421.25246  20117397.7734                   20117403.1094
 11  7 23 16 43  0.0000000  0 10G03G13G07G19G10G20G16G32G06G23
 112314933.86947  87518261.16545  21372833.1804                   21372841.6724
 112275650.91848  87487645.59445  21365361.0554                   21365367.8364
 125532571.369 6                  23888048.211
 122553871.64846  95496554.51243  23321224.3204                   23321232.7464
 128974884.51946 100499864.07543  24543082.6414                   24543092.4734
 118023798.51747  91966616.37045  22459186.2734                   22459194.3794
 109636358.89848  85430960.22846  20863103.3054                   20863109.6764
 122594398.91346  95528122.61044  23328946.2504                   23328956.2934
 116069031.79647  90443434.19045  22087200.1484                   22087209.1054
 105689403.38148  82355407.72146  20112022.2734                   20112026.9654
 11  7 23 16 43 30.0000000  0 10G03G13G07G19G10G20G16G32G06G23
 112257990.14647  87473889.43645  21361997.5164                   21362005.9614
 112202256.33348  87430455.01745  21351394.8754                   21351402.1374
 125471090.089 6                  23876348.000
 122461680.70246  95424717.57043  23303680.2894                   23303689.5044
 128913913.91046 100452354.56843  24531480.3284                   24531490.1884
 118103714.51647  92028888.50344  22474393.2664                   22474401.2974
 109694865.44748  85476549.72546  20874236.8524                   20874243.0744
 122687037.03447  95600308.05344  23346575.2424                   23346584.7504
 116045147.90247  90424823.37745  22082655.8364                   22082663.7774
 105661602.96048  82333745.04646  20106731.3754                   20106736.6174
 11  7 23 16 44  0.0000000  0 11G03G13G07G19G10G20G16G32G06G31G23
 112201514.19047  87429882.22945  21351250.3134                   21351258.8794
 112129106.91348  87373455.48445  21337474.1484                   21337481.7664
 125409647.118 6                  23864655.758
 122369587.63546  95352956.80844  23286156.2274                   23286164.4184
 128853378.90845 100405184.51543  24519959.8524                   24519970.5984
 118183870.89047  92091347.96245  22489647.0944                   22489654.9614
 109753779.18248  85522456.51646  20885447.5864                   20885453.7974
 122779781.59846  95672576.40544  23364223.7034                   23364233.5634
 116021766.00547  90406603.73145  22078206.2034                   22078214.7504
 133690765.30915                  25440506.219
 105634254.94348  82312434.89946  20101527.6334                   20101532.2384
 11  7 23 16 44 30.0000000  0 10G03G13G07G19G10G20G16G32G06G23
 112145509.06347  87386241.90145  21340592.9614                   21340601.3874
 112056204.95348  87316648.76545  21323602.2894                   21323608.8404
 125348241.476 6                  23852970.828
 122277595.42347  95281274.65044  23268651.0474                   23268658.4024
 128793280.76045 100358354.78543  24508524.6954                   24508534.7624
 118264264.25347  92153992.08644  22504944.8054                   22504953.0784
 109813097.44248  85568678.51346  20896735.3984                   20896741.5944
 122872629.85546  95744925.51844  23381892.6724                   23381902.1134
 115998887.60247  90388776.40545  22073852.4454                   22073861.1914
 105607361.19848  82291478.73746  20096409.7424                   20096415.6094
 11  7 23 16 45  0.0000000  0 10G03G13G07G19G10G20G16G32G06G23
 112089977.67348  87342970.68645  21330026.0004                   21330033.9414
 111983553.42348  87260037.20645  21309776.7344                   21309783.9804
 125286873.277 7                  23841293.461
 122185707.42947  95209673.71644  23251164.7034                   23251172.6884
 128733621.69246 100311867.28843  24497171.4384                   24497181.3484
 118344891.87647  92216818.77644  22520287.2424                   22520294.4534
 109872817.37548  85615213.49746  20908099.6724                   20908106.1374
 122965579.16446  95817353.44644  23399580.5554                   23399589.3554
 115976514.51747  90371342.83045  22069595.1484                   22069603.6844
 105580923.58448  82270877.98846  20091378.8054                   20091384.0124
 11  7 23 16 45 30.0000000  0 11G03G13G07G19G10G20G16G32G06G31G23
 112034922.38448  87300070.48345  21319548.8984                   21319556.7664
 111911154.14648  87203622.19645  21295999.7034                   21296007.1094
 125225541.575 6                  23829622.297
 122093926.72246  95138156.42844  23233699.1094                   23233707.3714
 128674402.71045 100265722.67742  24485901.5944                   24485912.8914
 118425750.04547  92279825.04344  22535674.7344                   22535682.8594
 109932936.30248  85662059.38346  20919540.0234                   20919546.5004
 123058626.53646  95889857.76644  23417286.5084                   23417296.1604
 115954647.82747  90354303.85845  22065434.2114                   22065442.1254
                                  25476993.680
 105554943.72148  82250633.93247  20086435.0314                   20086440.2544
 11  7 23 16 46  0.0000000  0 10G03G13G07G19G10G20G16G32G06G23
 111980346.10047  87257543.52245  21309163.7814                   21309172.0314
 111839010.21748  87147406.14946  21282271.4534                   21282278.0474
 125164246.555 7                  23817957.297
 122002256.69646  95066725.35044  23216255.4454                   23216263.0634
 128615626.22446 100219922.89642  24474717.8054                   24474727.7234
 118506836.76147  92343009.43444  22551105.3134                   22551112.4844
 109993451.95748  85709214.42446  20931055.8674                   20931062.2934
 123151769.79946  95962436.82144  23435011.5394                   23435020.5004
 115933289.50947  90337661.02345  22061369.8054                   22061378.0824
 105529424.11748  82230748.52047  20081579.2344                   20081584.1134
 11  7 23 16 46 30.0000000  0 10G03G13G07G19G10G20G16G32G06G23
 111926251.52147  87215391.93045  21298869.5084                   21298877.2934
 111767123.81248  87091390.79545  21268591.8914                   21268598.3754
 125102987.908 7                  23806301.484
 121910700.36446  94995382.84544  23198832.3594                   23198839.7734
 128557293.70745 100174469.01342  24463616.5164                   24463626.9024
 118588148.75747  92406369.38945  22566577.9774                   22566585.5234
 110054361.79448  85756676.62146  20942646.7504                   20942652.8794
 123245006.08146  96035088.33344  23452753.4774                   23452763.7704
 115912441.01547  90321415.48345  22057402.3444                   22057410.6644
 105504366.25148  82211222.90247  20076810.8524                   20076815.9614
 11  7 23 16 47  0.0000000  0 10G03G13G07G19G10G20G16G32G06G23
 111872640.76147  87173617.33345  21288668.0784                   21288675.8914
 111695497.02248  87035577.73345  21254961.1334                   21254968.4024
 125041764.946 7                  23794650.914
 121819260.81446  94924131.32244  23181431.6644                   23181439.4924
 128499406.50145 100129362.16342  24452602.3134                   24452611.4924
 118669682.63847  92469902.21445  22582094.3364                   22582102.1484
 110115662.87048  85804443.67246  20954312.1954                   20954318.2384
 123338332.07646  96107809.74044  23470513.4844                   23470523.5004
 115892103.17347  90305567.84345  22053532.1334                   22053540.8554
 105479771.69348  82192058.29446  20072130.5394                   20072135.3054
 11  7 23 16 47 30.0000000  0 10G03G13G07G19G10G20G16G32G06G23
 111819516.93647  87132222.19045  21278558.4384                   21278566.7424
 111624133.18748  86979969.54945  21241381.5394                   21241388.6134
 124980577.774 7                  23783007.461
 121727941.93547  94852973.86944  23164054.9534                   23164062.2424
 128441966.81945 100084603.97842  24441670.2664                   24441680.7934
 118751435.84347  92533605.94245  22597651.0004                   22597658.3834
 110177353.02947  85852513.90646  20966051.0554                   20966057.5704
 123431745.97846  96180599.68444  23488289.0234                   23488299.0744
 115872278.33247  90290119.91345  22049759.9064                   22049767.8874
 105455643.17048  82173256.84047  20067539.3134                   20067544.2114
 11  7 23 16 48  0.0000000  0 10G03G13G07G19G10G20G16G32G06G23
 111766882.38047  87091208.26945  21268542.5634                   21268550.7034
 111553033.95148  86924567.56045  21227851.5554                   21227859.0664
 124919425.330 6                  23771369.609
 121636746.28047  94781912.39144  23146701.1724                   23146708.4344
 128384975.62945 100040195.26542  24430826.0634                   24430836.7624
 118833404.57047  92597477.62944  22613248.7974                   22613256.5984
 110239429.32748  85900885.03746  20977864.0394                   20977870.6724
 123525244.41146  96253455.46044  23506081.8134                   23506092.2854
 115852967.21147  90275072.31345  22046084.8594                   22046093.4734
 105431981.47748  82154819.13747  20063036.2664                   20063041.6524
 11  7 23 16 48 30.0000000  0 10G03G13G07G19G10G20G16G32G06G23
 111714740.00148  87050577.87446  21258620.4384                   21258628.2544
 111482202.19548  86869373.99945  21214372.5944                   21214380.1214
 124858307.924 6                  23759739.594
 121545677.61047  94710949.87144  23129370.9064                   23129377.7664
 128328434.92245  99996137.62642  24420066.5864                   24420077.3164
 118915586.57047  92661515.47445  22628888.2664                   22628896.9884
 110301889.33548  85949555.13746  20989749.2584                   20989755.5274
 123618824.97746  96326375.24744  23523889.0164                   23523899.2624
 115834171.51347  90260426.34745  22042507.7344                   22042516.5314
 105408789.49548  82136747.45646  20058623.2274                   20058628.3134
 11  7 23 16 49  0.0000000  0 10G03G13G07G19G10G20G16G32G06G23
 111663092.12348  87010332.80145  21248792.1884                   21248799.6914
 111411640.49248  86814390.86046  21200945.4384                   21200952.7624
 124797225.102 6                  23748115.742
 121454739.10247  94640088.81544  23112065.4144                   23112073.7424
 128272346.05545  99952432.00842  24409393.7894                   24409404.1684
 118997978.69747  92725717.05244  22644566.0944                   22644574.6684
 110364730.23048  85998522.05346  21001707.7034                   21001714.1994
 123712485.17246  96399357.07244  23541711.9304                   23541722.3874
 115815892.56147  90246183.01545  22039029.6174                   22039037.8594
 105386068.56048  82119042.81647  20054299.4224                   20054304.5594
 11  7 23 16 49 30.0000000  0 10G03G13G07G19G10G20G16G32G06G23
 111611941.83547  86970475.46345  21239058.7274                   21239066.3134
 111341351.49048  86759620.21545  21187569.7274                   21187576.8554
 124736176.436 6                  23736499.172
 121363933.84447  94569331.53744  23094786.3674                   23094793.2344
 128216710.69445  99909079.86942  24398806.2274                   24398816.4734
 119080577.92447  92790080.02945  22660284.9924                   22660293.2234
 110427949.52648  86047783.81646  21013737.7504                   21013744.4614
 123806222.10846  96472398.65844  23559549.4454                   23559559.6564
 115798131.94747  90232343.59145  22035650.4224                   22035658.6374
 105363820.66648  82101706.78247  20050065.7424                   20050070.7074
 11  7 23 16 50  0.0000000  0 10G03G13G07G19G10G20G16G32G06G23
 111561290.86748  86931007.19445  21229419.8984                   21229428.1484
 111271336.91248  86705063.41145  21174246.1024                   21174253.4614
 124675161.025 6                  23724887.172
 121273264.62747  94498680.26044  23077532.0784                   23077539.3594
 128161529.74246  99866081.80342  24388305.5784                   24388315.2034
 119163380.38447  92854601.38544  22676041.1954                   22676048.8914
 110491544.20248  86097338.09546  21025839.3914                   21025846.7814
 123900032.29746  96545497.38243  23577401.1644                   23577410.9454
 115780890.19247  90218908.46945  22032368.8444                   22032377.2384
 105342046.82748  82084740.15047  20045922.0234                   20045927.4104
 11  7 23 16 50 30.0000000  0 10G03G13G07G19G10G20G16G32G06G23
 111511142.37347  86891930.47745  21219876.4844                   21219884.9654
 111201600.29248  86650723.19646  21160976.4844                   21160983.3754
 124614179.491 6                  23713281.836
 121182735.34746  94428138.04244  23060305.3754                   23060312.2234
 128106805.53945  99823439.62142  24377892.4144                   24377902.1414
 119246384.39847  92919279.75844  22691836.4844                   22691844.4884
 110555512.24748  86147183.29946  21038012.5634                   21038019.2934
 123993914.28546  96618652.04443  23595267.6884                   23595276.3914
 115764169.52048  90205879.38745  22029187.1174                   22029194.9844
 105320749.91948  82068145.12446  20041869.8284                   20041874.9884
 11  7 23 16 51  0.0000000  0 10G03G13G07G19G10G20G16G32G06G23
 111461498.78248  86853247.17945  21210429.8984                   21210438.0204
 111132144.04648  86596601.45346  21147758.6174                   21147766.0704
 124553231.458 6                  23701684.789
 121092349.48347  94357707.60344  23043104.9304                   23043113.2704
 128052539.72145  99781154.57742  24367565.2584                   24367575.0044
 119329586.04947  92984112.11345  22707669.5784                   22707678.0904
 110619851.06848  86197317.42646  21050256.0004                   21050262.0044
 124087865.19446  96691860.38043  23613145.2504                   23613155.4924
 115747971.13048  90193257.27945  22026105.2274                   22026113.3834
 105299931.48848  82051922.97346  20037908.0084                   20037912.9734
 11  7 23 16 51 30.0000000  0 11G03G13G07G19G10G20G16G32G06G31G23
 111412361.97048  86814958.77645  21201079.4144                   21201087.7074
 111062970.25448  86542699.80646  21134595.2814                   21134602.4774
 124492315.825 6                  23690093.055
 121002109.83347  94287391.08544  23025933.7034                   23025940.3054
 127998732.97345  99739227.29852  24357326.0234                   24357336.5554
 119412982.71247  93049096.46844  22723539.6724                   22723547.3204
 110684557.38048  86247737.90746  21062569.1254                   21062575.4574
 124181881.68147  96765119.87343  23631035.3524                   23631046.2734
 115732295.63647  90181042.60745  22023121.7504                   22023130.1914
 134647233.05515                  25622507.461
 105279592.72548  82036074.56746  20034037.6884                   20034042.6094
 11  7 23 16 52  0.0000000  0 10G03G13G07G19G10G20G16G32G06G23
 111363734.94548  86777067.59545  21191826.0394                   21191834.3524
 110994081.17748  86489020.01146  21121486.1414                   21121493.3874
 124431432.520 7                  23678507.359
 120912019.56947  94217190.97444  23008789.4384                   23008796.8284
 127945387.24845  99697659.20342  24347173.6954                   24347185.0554
 119496570.89647  93114230.04344  22739445.8364                   22739454.1374
 110749628.72848  86298442.83146  21074951.8984                   21074958.5044
 124275961.24847  96838428.48444  23648938.2664                   23648949.4024
 115717144.38347  90169236.42745  22020238.4384                   22020246.6764
 105259735.12948  82020601.10646  20030259.1254                   20030264.0634
 11  7 23 16 52 30.0000000  0 10G03G13G07G19G10G20G16G32G06G23
 111315620.46947  86739575.81345  21182670.2584                   21182677.9614
 110925479.99548  86435564.56145  21108431.9064                   21108438.5434
 124370581.907 7                  23666928.672
 120822082.45147  94147110.20244  22991674.6174                   22991681.2974
 127892504.48445  99656451.82442  24337111.3834                   24337121.4494
 119580348.26447  93179511.02445  22755388.9454                   22755396.9494
 110815062.92548  86349430.50646  21087403.2814                   21087409.7384
 124370101.83447  96911784.61744  23666852.7504                   23666864.0784
 115702519.30448  90157840.28045  22017455.3834                   22017463.7544
 105240361.56348  82005504.81346  20026572.1024                   20026577.3094
 11  7 23 16 53  0.0000000  0 10G03G13G07G19G10G20G16G32G06G23
 111268021.04948  86702485.39145  21173612.4694                   21173620.8594
 110857169.32048  86382335.47246  21095432.7584                   21095439.7154
 124309763.297 7                  23655355.094
 120732301.52947  94077151.14044  22974589.6254                   22974596.2704
 127840085.67745  99615606.13342  24327136.6884                   24327146.3984
 119664311.57747  93244936.92644  22771365.6094                   22771374.1054
 110880857.16448  86400698.72946  21099923.5554                   21099930.0234
 124464300.57147  96985186.06844  23684779.3054                   23684789.9144
 115688421.26147  90146854.78345  22014773.1884                   22014781.0554
 105221473.17748  81990786.57246  20022977.9924                   20022982.7664
 11  7 23 16 53 30.0000000  0 10G03G13G07G19G10G20G16G32G06G23
 111220938.27747  86665797.54445  21164652.5234                   21164660.8284
 110789151.03448  86329334.21346  21082489.6334                   21082496.7934
 124248976.232 7                  23643787.781
 120642680.07647  94007316.36444  22957535.2894                   22957542.6454
 127788131.96945  99575122.79443  24317249.3284                   24317260.2034
 119748457.58047  93310505.14744  22787378.2664                   22787386.5864
 110947008.58248  86452245.26046  21112512.0634                   21112518.1414
 124558554.31146  97058630.36844  23702715.6024                   23702725.3834
 115674851.28648  90136280.78045  22012190.4144                   22012198.5004
 105203071.45548  81976447.56346  20019475.9534                   20019481.0084
 11  7 23 16 54  0.0000000  0 10G03G13G07G19G10G20G16G32G06G23
 111174375.13447  86629514.59645  21155791.7664                   21155799.5124
 110721427.99748  86276563.02646  21069602.0474                   21069609.5824
 124188220.709 7                  23632226.109
 120553221.47147  93937608.43244  22940511.9774                   22940518.4304
 127736644.96945  99535003.07342  24307451.3754                   24307462.3524
 119832783.30947  93376213.43344  22803425.5864                   22803433.5274
 111013514.52548  86504068.06946  21125167.4304                   21125173.7854
 124652860.64746  97132115.65644  23720660.5554                   23720671.9384
 115661810.74847  90126119.32345  22009709.3914                   22009717.1844
 105185158.18048  81962489.15146  20016067.3444                   20016072.2234
 11  7 23 16 54 30.0000000  0 10G03G13G07G19G10G20G16G32G06G23
 111128334.00748  86593638.42145  21147030.6024                   21147038.4454
 110654002.94648  86224024.04546  21056771.5474                   21056778.5474
 124127496.363 7                  23620670.688
 120463929.10347  93868030.04645  22923520.3134                   22923527.2814
 127685626.18445  99495248.19542  24297744.4534                   24297754.4344
 119917286.11347  93442059.71144  22819506.0164                   22819514.7424
 111080372.67048  86556165.29946  21137890.4924                   21137896.6604
 124747217.25646  97205640.12344  23738617.0704                   23738626.8554
 115649300.62947  90116371.17745  22007328.0784                   22007336.4304
 105167735.20648  81948912.79846  20012752.0474                   20012756.8674
 11  7 23 16 55  0.0000000  0 10G03G13G07G19G10G20G16G32G06G23
 111082817.23448  86558170.82045  21138369.5474                   21138376.9774
 110586878.38048  86171719.18746  21043998.1724                   21044005.3914
 124066802.924 7                  23609121.359
 120374805.76047  93798583.35545  22906560.5784                   22906567.7274
 127635076.88645  99455859.22342  24288124.4224                   24288135.4774
 120001962.51747  93508041.23444  22835618.9694                   22835627.5824
 111147580.07848  86608534.68846  21150679.1174                   21150686.0354
 124841620.95546  97279201.26544  23756581.3674                   23756591.7304
 115637322.03648  90107037.21345  22005049.0314                   22005056.8754
 105150804.44548  81935719.98246  20009530.0474                   20009534.9964
 11  7 23 16 55 30.0000000  0 10G03G13G07G19G10G20G16G32G06G23
 111037826.42947  86523113.06145  21129808.0004                   21129815.5234
 110520056.23448  86119649.97846  21031282.3594                   21031289.8874
 124006139.550 6                  23597576.914
 120285854.70447  93729270.89944  22889634.0164                   22889641.1604
 127584998.42645  99416837.04943  24278595.4614                   24278605.0004
 120086809.24447  93574155.50844  22851764.9774                   22851772.9534
 111215133.79148  86661173.91646  21163534.7034                   21163540.9144
 124936069.02046  97352797.00344  23774554.5314                   23774564.8094
 115625875.65647  90098117.96745  22002870.6804                   22002878.6094
 105134366.71748  81922911.36646  20006402.3204                   20006407.1024
 11  7 23 16 56  0.0000000  0 10G03G13G07G19G10G20G16G32G06G23
 110993364.80248  86488467.66045  21121346.9844                   21121354.7074
 110453539.68148  86067818.90346  21018624.6334                   21018631.8094
 123945506.327 7                  23586039.109
 120197079.97547  93660095.90344  22872740.5004                   22872747.4574
 127535392.18246  99378182.87043  24269155.1884                   24269164.9884
 120171824.07047  93640400.77244  22867942.0554                   22867951.1134
 111283031.49048  86714081.19746  21176455.1564                   21176461.3244
 125030559.25646  97426425.55343  23792535.3364                   23792546.0824
 115614963.19947  90089614.75845  22000794.1484                   22000802.1844
 105118424.37548  81910488.74046  20003368.5004                   20003373.3444
 11  7 23 16 56 30.0000000  0 10G03G13G07G19G10G20G16G32G06G23
 110949434.26747  86454236.08146  21112987.3524                   21112994.9494
 110387330.81548  86016227.58946  21006025.3284                   21006032.8634
 123884903.146 7                  23574506.398
 120108484.41047  93591060.47544  22855880.9454                   22855888.5784
 127486259.26746  99339897.49243  24259806.1954                   24259814.9694
 120257003.53347  93706774.29844  22884152.2664                   22884159.7544
 111351270.53448  86767254.45246  21189440.8984                   21189447.0824
 125125088.66846  97500084.68743  23810524.0634                   23810534.1454
 115604585.12947  90081527.95945  21998819.4844                   21998827.1804
 105102978.62848  81898453.08547  20000429.4454                   20000434.5434
 11  7 23 16 57  0.0000000  0 10G03G13G07G19G10G20G16G32G06G23
 110906037.07848  86420420.11145  21104729.1414                   21104736.6094
 110321432.63548  85964878.36046  20993485.6254                   20993492.7664
 123824329.695 7                  23562979.383
 120020071.05747  93522167.04045  22839056.7734                   22839063.9884
 127437601.06246  99301982.03243  24250547.3444                   24250556.3484
 120342344.44847  93773273.64444  22900391.1094                   22900399.3164
 111419848.09348  86820691.47946  21202490.5234                   21202496.8404
 125219654.85046  97573772.42043  23828518.4144                   23828530.0784
 115594742.84747  90073858.67345  21996945.9304                   21996954.3634
 105088031.05148  81886805.61247  19997584.7424                   19997589.7034
 11  7 23 16 57 30.0000000  0 10G03G13G07G19G10G20G16G32G06G23
 110863175.42948  86387021.44145  21096572.6414                   21096580.3094
 110255847.19248  85913772.82446  20981005.2034                   20981012.0704
 123763785.518 7                  23551457.961
 119931843.34347  93453418.28245  22822267.0164                   22822275.1764
 127389418.90546  99264437.60043  24241377.0554                   24241386.9844
 120427843.80647  93839896.42444  22916661.8914                   22916670.7664
 111488761.41848  86874390.16346  21215604.2504                   21215610.5164
 125314254.85746  97647486.46743  23846521.0394                   23846532.8834
 115585436.96147  90066607.33545  21995175.9924                   21995183.5084
 105073583.02248  81875547.40447  19994835.3674                   19994840.3324
 11  7 23 16 58  0.0000000  0 10G03G13G07G19G10G20G16G32G06G23
 110820851.72248  86354041.95745  21088518.7034                   21088526.3404
 110190577.16448  85862913.06346  20968584.7974                   20968591.5634
 123703270.264 7                  23539942.820
 119843804.58347  93384816.69845  22805513.9924                   22805521.0864
 127341714.23346  99227265.12643  24232299.3134                   24232309.4844
 120513498.83347  93906640.51944  22932961.9774                   22932969.3674
 111558008.16648  86928348.63446  21228781.4694                   21228787.8874
 125408886.23147  97721224.97043  23864529.2274                   23864539.8204
 115576668.53847  90059774.78845  21993506.8674                   21993515.0864
 105059636.47048  81864679.95547  19992181.5474                   19992186.6334
 11  7 23 16 58 30.0000000  0 10G03G13G07G19G10G20G16G32G06G23
 110779068.56547  86321483.63945  21080567.2114                   21080575.1174
 110125625.25048  85812301.19646  20956224.4224                   20956231.7344
 123642783.979 7                  23528433.234
 119755958.51047  93316365.25144  22788797.8674                   22788804.9184
 127294488.16946  99190465.61842  24223313.5234                   24223322.3244
 120599306.57147  93973503.59844  22949290.6884                   22949298.3834
 111627585.84148  86982564.97746  21242021.5944                   21242028.1724
 125503546.49847  97794986.08343  23882542.4224                   23882552.7034
 115568439.01347  90053362.19945  21991940.6024                   21991948.9344
 105046193.34348  81854204.78146  19989623.1644                   19989628.3014
 11  7 23 16 59  0.0000000  0 10G03G13G07G19G10G20G16G32G06G23
 110737827.48247  86289347.73645  21072719.7734                   21072727.7544
 110060994.34348  85761939.45146  20943925.7114                   20943933.1134
 123582326.635 7                  23516927.977
 119668308.37147  93248066.51944  22772117.2114                   22772125.8204
 127247741.60246  99154039.79942  24214415.9694                   24214426.6214
 120685264.25147  94040483.49544  22965648.0314                   22965656.6094
 111697491.54048  87037036.92346  21255324.1954                   21255330.3554
 125598233.00547  97868767.63443  23900562.0474                   23900570.6174
 115560749.13947  90047370.09845  21990477.5784                   21990485.5904
 105033254.90948  81844122.88246  19987161.2194                   19987166.2544
 11  7 23 16 59 30.0000000  0 10G03G13G07G19G10G20G16G32G06G23
 110697130.89248  86257636.12745  21064975.0004                   21064983.4384
 109996686.20848  85711829.22146  20931688.2894                   20931695.5314
 123521897.361 7                  23505428.844
 119580856.94347  93179922.62045  22755476.4534                   22755483.5234
 127201475.91446  99117988.59843  24205613.4844                   24205622.8914
 120771368.10347  94107577.34644  22982032.6954                   22982041.1484
 111767722.13048  87091762.03146  21268688.6804                   21268695.1374
 125692942.80847  97942567.29243  23918583.9774                   23918594.2624
 115553599.31847  90041798.81645  21989117.3834                   21989125.4384
 105020821.92848  81834434.82647  19984795.2734                   19984800.3984
 11  7 23 17  0  0.0000000  0 10G03G13G07G19G10G20G16G32G06G23
 110656980.96147  86226350.46245  21057334.7504                   21057342.7234
 109932703.89448  85661972.87746  20919513.0474                   20919520.1524
 123461496.355 6                  23493934.734
 119493607.86847  93111936.36445  22738873.3674                   22738880.4414
 127155692.35646  99082313.16943  24196900.0004                   24196909.9224
 120857615.81047  94174783.25344  22998445.2894                   22998453.5124
 111838275.68448  87146738.79646  21282114.3524                   21282120.8984
 125787673.65847  98016383.33443  23936610.7814                   23936621.5864
 115546990.93847  90036649.42545  21987859.1254                   21987867.4494
 105008896.75048  81825142.47246  19982525.9774                   19982531.1804
 11  7 23 17  0 30.0000000  0 10G03G13G07G19G10G20G16G32G06G23
 110617379.88148  86195492.49845  21049799.2894                   21049806.8244
 109869049.79247  85612372.28246  20907400.0634                   20907407.3754
 123401123.356 7                  23482446.867
 119406564.29947  93044110.22945  22722309.1094                   22722316.3984
 127110392.26246  99047014.41043  24188279.9064                   24188289.6254
 120944004.16947  94242098.75544  23014884.5004                   23014893.2344
 111909149.06048  87201964.77746  21295601.6414                   21295607.9774
 125882422.64146  98090213.52043  23954640.8984                   23954651.7344
 115540924.41547  90031922.26445  21986705.2974                   21986712.8404
 104997480.44448  81816246.63746  19980353.6094                   19980358.5474
 11  7 23 17  1  0.0000000  0 10G03G13G07G19G10G20G16G32G06G23
 110578329.67848  86165063.76645  21042368.2034                   21042375.8484
 109805726.38048  85563029.37746  20895349.8054                   20895357.3404
 123340778.128 7                  23470962.758
 119319729.69647  92976446.97545  22705785.1484                   22705792.2974
 127065576.48146  99012093.04443  24179751.3914                   24179761.8284
 121030530.00447  94309521.40044  23031349.8914                   23031358.0354
 111980339.85648  87257438.09846  21309148.6334                   21309155.1254
 125977187.28746  98164055.89343  23972673.2584                   23972685.7384
 115535400.75047  90027618.12345  21985653.4844                   21985661.5554
 104986574.61748  81807748.57947  19978278.0234                   19978283.2974
 11  7 23 17  1 30.0000000  0 10G03G13G07G19G10G20G16G32G06G23
 110539832.33248  86135065.84945  21035042.5314                   21035050.4454
 109742736.03948  85513945.99946  20883363.2814                   20883370.0434
 123280460.076 7                  23459484.797
 119233107.02747  92908948.80945  22689302.0234                   22689308.1374
 127021246.19946  98977550.00843  24171315.8984                   24171325.4414
 121117190.49147  94377048.92544  23047840.7424                   23047848.6604
 112051845.32648  87313156.63246  21322755.5864                   21322762.2504
 126071964.78746  98237908.25343  23990709.2664                   23990721.8984
 115530420.66047  90023737.54245  21984706.0784                   21984714.2734
 104976180.42948  81799649.19447  19976300.3674                   19976304.9574
 11  7 23 17  2  0.0000000  0 10G03G13G07G19G10G20G16G32G06G23
 110501890.06848  86105500.45745  21027821.8204                   21027830.0824
 109680081.60748  85465124.37946  20871440.6174                   20871447.2504
 123220169.149 6                  23448011.633
 119146699.85947  92841618.60444  22672858.3364                   22672866.0554
 126977402.60446  98943386.19943  24162973.6804                   24162982.3054
 121203982.46747  94444678.96744  23064357.2974                   23064365.3914
 112123662.74648  87369118.22246  21336421.8834                   21336428.4144
 126166752.82046  98311768.85843  24008746.7814                   24008759.4224
 115525985.05047  90020281.22145  21983862.0164                   21983870.0474
 104966299.55748  81791949.81146  19974420.2584                   19974425.2814
 11  7 23 17  2 30.0000000  0 10G03G13G07G19G10G20G16G32G06G23
 110464505.33747  86076369.49745  21020707.9694                   21020716.0634
 109617765.71248  85416566.53446  20859582.0554                   20859588.8054
 123159905.299 7                  23436544.141
 119060511.58247  92774458.95745  22656457.2504                   22656464.7704
 126934047.12046  98909602.72243  24154722.5784                   24154731.9064
 121290903.25647  94512409.38144  23080897.3984                   23080906.6994
 112195789.48748  87425320.84946  21350147.5314                   21350154.1994
 126261548.83546  98385635.60443  24026786.1254                   24026798.4384
 115522094.60547  90017249.70645  21983121.6094                   21983129.8714
 104956933.69748  81784651.72147  19972637.9304                   19972643.3444
 11  7 23 17  3  0.0000000  0 10G03G13G07G19G10G20G16G32G06G23
 110427679.47047  86047674.03145  21013700.3754                   21013708.6414
 109555790.67248  85368274.31046  20847788.6644                   20847796.1844
 123099668.025 6                  23425081.070
 118974545.29747  92707472.25445  22640098.9924                   22640105.1994
 126891180.28346  98876200.01543  24146565.5554                   24146575.0474
 121377949.42847  94580237.47044  23097461.5704                   23097469.5354
 112268222.78048  87481762.35746  21363930.8754                   21363937.4844
 126356349.83846  98459506.28743  24044827.1644                   24044838.6804
 115518750.22847  90014643.69145  21982485.8524                   21982492.6334
 104948083.72648  81777755.62647  19970953.8594                   19970958.5904
 11  7 23 17  3 30.0000000  0 10G03G13G07G19G10G20G16G32G06G23
 110391414.41548  86019415.56246  21006799.4844                   21006807.4574
 109494158.89948  85320249.56046  20836060.9304                   20836067.9024
 123039457.162 7                  23413622.305
 118888804.28447  92640661.13345  22623783.2194                   22623790.2344
 126848803.25346  98843178.95943  24138501.1414                   24138510.8134
 121465117.96647  94648160.87044  23114049.1334                   23114057.7854
 112340959.95648  87538440.63346  21377772.1564                   21377778.9224
 126451153.24846  98533378.82743  24062867.8134                   24062879.5434
 115515952.15647  90012463.37945  21981952.3594                   21981960.8404
 104939750.87648  81771262.47946  19969368.4454                   19969372.9494
 11  7 23 17  4  0.0000000  0 10G03G13G07G19G10G20G16G32G06G23
 110355712.33347  85991595.76845  21000005.9694                   21000013.5164
 109432873.25948  85272494.51446  20824398.3204                   20824405.3714
 122979272.948 7                  23402170.563
 118803292.01847  92574028.24945  22607509.9844                   22607517.4884
 126806917.16446  98810540.44143  24130531.3984                   24130539.8324
 121552406.16247  94716177.59644  23130660.1644                   23130668.2504
 112413998.49148  87595353.75146  21391671.5084                   21391677.7464
 126545956.84946  98607251.54243  24080907.7274                   24080920.2894
 115513701.37547  90010709.53845  21981524.2114                   21981532.0594
 104931936.96048  81765173.70647  19967881.1564                   19967886.5864
 11  7 23 17  4 30.0000000  0 10G03G13G07G19G10G20G16G32G06G23
 110320575.42647  85964216.37146  20993318.7894                   20993326.6214
 109371936.05648  85225010.99146  20812802.2664                   20812809.1804
 122919114.562 7                  23390723.055
 118718011.81647  92507576.18545  22591282.2504                   22591288.5204
 126765522.97447  98778285.27543  24122653.5234                   24122662.9144
 121639810.88246  94784285.07144  23147292.8054                   23147300.3094
 112487335.50948  87652499.43845  21405626.7114                   21405633.0514
 126640757.94146  98681122.25743  24098948.5004                   24098961.3094
 115511998.57247  90009382.68245  21981200.7194                   21981208.6884
 104924643.20148  81759490.24447  19966493.2894                   19966498.1374
 11  7 23 17  5  0.0000000  0 10G03G13G07G19G10G20G16G32G06G23
 110286005.36547  85937278.67245  20986740.9774                   20986748.5634
 109311349.76748  85177800.90046  20801273.2114                   20801280.1094
 122858981.951 7                  23379280.258
 118632966.62447  92441307.25745  22575098.3834                   22575104.9774
 126724621.62746  98746414.11043  24114870.7974                   24114879.2974
 121727329.05546  94852480.91944  23163947.1094                   23163954.9184
 112560968.52848  87709875.80145  21419638.7114                   21419645.0824
 126735553.67646  98754988.88043  24116987.5234                   24117000.0234
 115510843.99347  90008483.00945  21980981.0164                   21980988.6214
 104917870.69348  81754212.95047  19965204.5394                   19965209.6604
 11  7 23 17  5 30.0000000  0 10G03G13G07G19G10G20G16G32G06G23
 110252004.20047  85910784.26145  20980270.8524                   20980278.3984
 109251116.94048  85130866.22846  20789811.1724                   20789818.0124
 122798875.110 6                  23367842.266
 118548160.15247  92375224.36145  22558960.3524                   22558967.9224
 126684213.94047  98714927.66043  24107181.3754                   24107190.7154
 121814957.97346  94920763.12844  23180622.1484                   23180629.5984
 112634894.74148  87767480.60646  21433706.3284                   21433713.0514
 126830341.57346  98828849.33143  24135025.7504                   24135037.1334
 115510238.57047  90008011.24245  21980865.0314                   21980873.5314
 104911620.85248  81749342.91546  19964015.0634                   19964020.1484
 11  7 23 17  6  0.0000000  0 10G03G13G07G19G10G20G16G32G06G23
 110218574.00547  85884734.77045  20973908.4614                   20973916.8204
 109191240.26848  85084209.08646  20778417.2194                   20778423.9884
 122738793.904 7                  23356409.172
 118463595.39547  92309329.81745  22542868.5234                   22542875.1174
 126644300.96246  98683826.64143  24099585.7194                   24099595.1994
 121902694.63146  94989129.27744  23197317.4614                   23197325.9384
 112709111.77648  87825312.00845  21447829.0234                   21447836.0124
 126925119.12946  98902701.78443  24153061.9844                   24153072.9574
 115510182.79047  90007967.79045  21980855.5394                   21980863.5314
 104905894.99348  81744881.20046  19962925.6804                   19962930.3714
 11  7 23 17  6 30.0000000  0 10G03G13G07G19G10G20G16G32G06G23
 110185716.27347  85859131.34346  20967656.1484                   20967664.2974
 109131722.61448  85037831.70146  20767091.1254                   20767098.1764
 122678737.998 6                  23344980.367
 118379275.81047  92243626.28545  22526822.6564                   22526829.7774
 126604884.01647  98653112.16343  24092084.5084                   24092094.9184
 121990536.10347  95057577.04144  23214033.9224                   23214042.6254
 112783616.77148  87883367.82346  21462007.3204                   21462014.4064
 127019884.02546  98976544.29843  24171095.6024                   24171106.3984
 115510677.28747  90008353.11345  21980949.0554                   21980957.3164
 104900694.56848  81740828.90447  19961935.9844                   19961940.7074
 11  7 23 17  7  0.0000000  0 10G03G13G07G19G10G20G16G32G06G23
 110153432.97947  85833975.53646  20961512.9384                   20961521.0394
 109072565.78248  84991735.46946  20755834.1724                   20755841.3674
 122618707.409 6                  23333557.172
 118295204.49047  92178116.24445  22510824.2344                   22510831.7194
 126565963.57046  98622784.56643  24084678.6564                   24084688.2544
 122078479.12947  95126103.96244  23230769.1334                   23230777.5124
 112858407.00248  87941645.89546  21476239.4694                   21476246.0984
 127114633.30346  99050374.65442  24189124.8674                   24189136.8284
 115511722.46347  90009167.52745  21981148.0944                   21981156.2304
 104896020.51648  81737186.76647  19961046.7974                   19961051.0944
 11  7 23 17  7 30.0000000  0 10G03G13G07G19G10G20G16G32G06G23
 110121725.75547  85809268.61645  20955479.0474                   20955487.0944
 109013772.25648  84945922.34146  20744645.8834                   20744653.2464
 122558701.661 6                  23322137.906
 118211384.86647  92112802.29745  22494873.5314                   22494881.1804
 126527540.42447  98592844.46643  24077366.8834                   24077376.1254
 122166520.77746  95194707.73944  23247522.9144                   23247531.3404
 112933479.80848  88000144.14945  21490525.3284                   21490532.3324
 127209364.25346  99124190.73742  24207151.7034                   24207163.3714
 115513318.63447  90010411.29545  21981451.7734                   21981460.3914
 104891873.75148  81733955.50646  19960257.8134                   19960262.5044
 11  7 23 17  8  0.0000000  0 10G03G13G07G19G10G20G16G32G06G23
 110090596.60547  85785012.12645  20949555.4614                   20949563.3014
 108955344.83548  84900394.48746  20733527.5164                   20733534.8634
 122498720.924 6                  23310724.461
 118127820.36547  92047687.17445  22478971.6564                   22478978.9184
 126489615.53646  98563292.65443  24070149.2194                   24070159.5784
 122254658.17746  95263386.14944  23264294.2034                   23264302.9104
 113008832.68248  88058860.65145  21504864.3914                   21504871.0434
 127304074.96946  99197991.07543  24225174.4144                   24225186.2274
 115515466.43947  90012084.92545  21981861.1724                   21981867.9884
 104888255.98848  81731136.45147  19959569.4224                   19959574.5944
 11  7 23 17  8 30.0000000  0 10G03G13G07G19G10G20G16G32G06G23
 110060047.35347  85761207.51845  20943742.1094                   20943749.9534
 108897286.30248  84855154.07946  20722479.4144                   20722486.4064
 122438764.911 7                  23299315.445
 118044514.27447  91982773.37245  22463119.1484                   22463126.3914
 126452189.96747  98534129.85243  24063028.4144                   24063037.4654
 122342888.44746  95332136.86444  23281083.8284                   23281092.7154
 113084463.07048  88117793.38845  21519256.3284                   21519263.1604
 127398762.37846  99271773.20143  24243192.7344                   24243205.6024
 115518166.53547  90014188.88145  21982374.0704                   21982382.3794
 104885168.50248  81728730.60347  19958981.2814                   19958986.4964
 11  7 23 17  9  0.0000000  0 10G03G13G07G19G10G20G16G32G06G23
 110030079.26847  85737855.77245  20938039.6804                   20938047.4614
 108839598.57748  84810202.59946  20711501.8524                   20711509.0204
 122378833.124 7                  23287910.453
 117961469.43547  91918063.17945  22447315.9614                   22447323.2504
 126415264.48747  98505356.80243  24056001.6174                   24056011.6884
 122431208.53247  95400957.57344  23297892.4534                   23297899.4414
 113160368.18948  88176940.20145  21533700.2734                   21533707.3954
 127493424.26945  99345535.43442  24261206.5554                   24261219.0784
 115521419.02447  90016723.27945  21982992.7274                   21983000.6214
 104882612.13048  81726738.61947  19958495.1644                   19958499.9024
 11  7 23 17  9 30.0000000  0 10G03G13G07G19G10G20G16G32G06G23
 110000694.46847  85714958.52946  20932448.0634                   20932455.9184
 108782284.79048  84765542.51446  20700595.1804                   20700602.4304
 122318925.847 6                  23276510.594
 117878689.58247  91853559.46945  22431564.1334                   22431571.4844
 126378839.88746  98476973.99743  24049070.1024                   24049079.4804
 122519615.51247  95469846.01444  23314715.0314                   23314722.4694
 113236545.79948  88236299.33146  21548197.0164                   21548203.6454
 127588058.14046  99419275.86743  24279216.3914                   24279227.6414
 115525224.69947  90019688.73545  21983717.5634                   21983725.0394
 104880588.45848  81725161.71147  19958110.3054                   19958114.9804
 11  7 23 17 10  0.0000000  0 10G03G13G07G19G10G20G16G32G06G23
 109971894.47547  85692516.98046  20926967.3284                   20926975.1564
 108725346.95048  84721175.38746  20689760.1414                   20689767.2154
 122259042.751 7                  23265114.984
 117796177.99447  91789264.77645  22415862.4774                   22415869.3674
 126342916.69847  98448981.93943  24042234.2894                   24042243.4654
 122608106.48746  95538799.91144  23331553.3594                   23331562.5594
 113312992.50448  88295868.17745  21562744.2344                   21562750.6134
 127682661.03646  99492992.17643  24297218.1804                   24297230.6054
 115529583.60447  90023085.27345  21984546.8594                   21984554.7194
 104879098.09148  81724000.37447  19957826.3364                   19957831.3204
 11  7 23 17 10 30.0000000  0 10G03G13G07G19G10G20G16G32G06G23
 109943680.93447  85670532.40045  20921598.7344                   20921605.8484
 108668787.56247  84677103.12646  20678997.3834                   20679004.9304
 122199183.617 7                  23253724.063
 117713937.66347  91725181.46145  22400212.2034                   22400219.3914
 126307495.62947  98421381.09543  24035493.7974                   24035503.1524
 122696678.31346  95607816.83244  23348408.5234                   23348416.8954
 113389705.85448  88355644.77245  21577342.6254                   21577349.3484
 127777230.48346  99566682.36343  24315213.6414                   24315226.5864
 115534496.00647  90026913.11445  21985481.2504                   21985489.3794
 104878141.92948  81723255.28947  19957644.3134                   19957649.0904
 11  7 23 17 11  0.0000000  0 10G03G13G07G19G10G20G16G32G06G23
 109916055.46447  85649006.09145  20916341.1484                   20916349.4104
 108612609.42648  84633327.96646  20668307.1954                   20668314.8014
 122139348.502 6                  23242337.375
 117631972.18947  91661312.32045  22384614.9224                   22384622.5664
 126272577.69446  98394172.30543  24028849.1024                   24028858.3834
 122785328.25047  95676894.54844  23365278.6954                   23365287.4694
 113466683.22448  88415627.11446  21591990.6724                   21591997.6024
 127871764.41446  99640344.94543  24333204.1564                   24333215.6294
 115539962.37347  90031172.62845  21986521.7274                   21986529.7584
 104877721.56648  81722927.71847  19957564.4844                   19957569.7344
 11  7 23 17 11 30.0000000  0 10G03G13G07G19G10G20G16G32G06G23
 109889019.48147  85627939.07645  20911196.6094                   20911204.1764
 108556814.64147  84589851.51746  20657689.6954                   20657697.0984
 122079537.140 7                  23230956.242
 117550284.29547  91597659.48645  22369070.4064                   22369076.7934
 126238163.30646  98367355.90543  24022300.4844                   24022309.8404
 122874053.34246  95746030.88944  23382161.9384                   23382171.1254
 113543922.12448  88475813.24345  21606688.7194                   21606695.5474
 127966259.78846  99713977.45343  24351185.9144                   24351198.0124
 115545982.94547  90035863.98045  21987666.9844                   21987675.2034
 104877837.69348  81723018.18947  19957586.4774                   19957591.8164
 11  7 23 17 12  0.0000000  0 10G03G13G07G19G10G20G16G32G06G23
 109862575.04047  85607333.02546  20906164.8754                   20906172.3794
 108501406.53048  84546676.37446  20647145.8364                   20647153.2344
 122019749.591 7                  23219579.375
 117468877.70147  91534225.83845  22353578.7734                   22353586.0234
 126204253.73046  98340932.88643  24015847.7114                   24015856.1294
 122962850.78846  95815223.53943  23399058.8364                   23399069.3594
 113621420.26748  88536201.37445  21621436.6644                   21621442.9694
 128060714.69246  99787578.35543  24369160.2274                   24369172.3244
 115552558.13247  90040987.50345  21988918.3674                   21988926.4454
 104878491.88948  81723527.93147  19957711.2974                   19957716.2234
 11  7 23 17 12 30.0000000  0 10G03G13G07G19G10G20G16G32G06G23
 109836723.07847  85587188.64646  20901244.9064                   20901252.6524
 108446386.58048  84503803.69246  20636675.6484                   20636683.1724
 121959985.499 7                  23208206.055
 117387755.34847  91471013.66945  22338141.7114                   22338147.9964
 126170849.13146  98314903.33343  24009491.0704                   24009499.8594
 123051717.10146  95884469.86844  23415970.3674                   23415979.9694
 113699174.61348  88596789.15945  21636232.4534                   21636239.1604
 128155125.92646  99861145.29643  24387126.1174                   24387138.9534
 115559687.91047  90046543.14645  21990275.4694                   21990283.3794
 104879684.59148  81724457.28447  19957938.3054                   19957943.0554
 11  7 23 17 13  0.0000000  0 10G03G13G07G19G10G20G16G32G06G23
 109811465.67947  85567507.56745  20896438.5784                   20896446.8714
 108391757.72648  84461235.76246  20626280.4454                   20626287.9454
 121900244.869 7                  23196837.875
 117306920.78047  91408025.72845  22322759.8914                   22322766.5514
 126137950.17146  98289267.78643  24003229.9694                   24003239.6804
 123140650.04247  95953768.17943  23432895.3754                   23432901.3444
 113777182.75748  88657574.67745  21651077.1174                   21651083.6294
 128249491.52746  99934676.61443  24405082.9844                   24405095.7344
 115567372.87747  90052531.43645  21991738.1024                   21991745.7154
 104881417.06648  81725807.25447  19958267.7734                   19958273.1214
 11  7 23 17 13 30.0000000  0 10G03G13G07G19G10G20G16G32G06G23
 109786803.99648  85548290.67746  20891745.5634                   20891753.6764
 108337522.02948  84418974.17946  20615959.5394                   20615966.2344
 121840527.449 7                  23185473.797
 117226377.21147  91345264.54445  22307432.3754                   22307439.6804
 126105557.72446  98264026.91843  23997066.5394                   23997075.5044
 123229646.04646  96023115.61843  23449829.6644                   23449838.2424
 113855441.78748  88718555.71645  21665969.4144                   21665976.4064
 128343808.57446 100008170.16743  24423031.4614                   24423044.2464
 115575612.93747  90058952.25445  21993305.4844                   21993314.3914
 104883690.24148  81727578.53547  19958700.4924                   19958705.9924
 11  7 23 17 14  0.0000000  0 10G03G13G07G19G10G20G16G32G06G23
 109762739.54047  85529539.14846  20887166.2894                   20887174.3364
 108283681.91848  84377020.84946  20605714.2894                   20605721.2974
 121780833.284 7                  23174114.227
 117146127.42947  91282732.32845  22292162.0554                   22292168.8914
 126073672.32546  98239181.14543  23990999.1414                   23991008.1134
 123318702.42746  96092510.09443  23466776.6644                   23466785.3594
 113933948.96948  88779730.13945  21680908.7584                   21680915.1724
 128438074.64846 100081623.96242  24440970.3134                   24440982.6994
 115584408.18647  90065805.68645  21994979.5474                   21994987.2424
 104886504.89848  81729771.74747  19959236.1414                   19959241.4884
 11  7 23 17 14 30.0000000  0 10G03G13G07G19G10G20G16G32G06G23
 109739274.28447  85511254.53345  20882700.7974                   20882709.1914
 108230240.65148  84335378.32046  20595544.9064                   20595552.2114
 121721162.475 7                  23162760.008
 117066175.22047  91220431.93545  22276947.5394                   22276954.4884
 126042294.43446  98214730.87343  23985027.6954                   23985036.5824
 123407816.65047  96161949.62643  23483734.8914                   23483743.7194
 114012702.34148  88841096.35645  21695895.2114                   21695901.6604
 128532287.62946 100155036.47143  24458899.1254                   24458910.7114
 115593759.02147  90073092.03845  21996759.0164                   21996767.0634
 104889862.50248  81732388.04447  19959874.7584                   19959879.9184
 11  7 23 17 15  0.0000000  0 11G03G13G07G19G10G08G20G16G32G06G23
 109716408.71647  85493437.21745  20878349.7664                   20878357.7194
 108177199.81647  84294047.79046  20585451.8134                   20585458.6294
 121661514.407 7                  23151408.945
 116986523.33747  91158365.58045  22261790.0784                   22261797.3554
 126011424.32546  98190676.20943  23979152.3204                   23979163.1024
 133177810.38415                  25342905.883
 123496985.03847  96231431.36143  23500702.5944                   23500711.7664
 114091698.45948  88902651.74845  21710927.5474                   21710934.1844
 128626444.66645 100228405.38942  24476815.4304                   24476827.7584
 115603665.17947  90080811.11845  21998644.4924                   21998652.0274
 104893762.91048  81735427.31147  19960617.3834                   19960622.3714
 11  7 23 17 15 30.0000000  0 11G03G13G07G19G10G08G20G16G32G06G23
 109694144.48447  85476088.46346  20874113.0704                   20874121.1454
 108124562.60148  84253031.78246  20575434.9924                   20575441.5944
 121601889.256 7                  23140062.570
 116907175.52747  91096536.15345  22246690.2424                   22246697.3594
 125981063.03247  98167018.08243  23973376.1174                   23973385.2424
 133112804.619 5                  25330536.297
 123586205.20347  96300953.44043  23517680.6954                   23517689.8094
 114170935.35048  88964394.76345  21726005.2664                   21726012.0984
 128720543.51846 100301728.99842  24494723.7584                   24494734.1954
 115614127.13447  90088963.30945  22000634.4304                   22000643.0274
 104898207.91748  81738890.93047  19961462.8594                   19961468.4384
 11  7 23 17 16  0.0000000  0 11G03G13G07G19G10G08G20G16G32G06G23
 109672483.28347  85459209.62745  20869990.8364                   20869998.9454
 108072330.80448  84212331.69646  20565495.4064                   20565502.4264
 121542287.107 7                  23128720.977
 116828134.81347  91034946.00945  22231649.0004                   22231655.9534
 125951210.77546  98143756.61843  23967694.7114                   23967703.8834
 133047768.537 5                  25318159.625
 123675474.68946  96370513.96144  23534667.8834                   23534677.3204
 114250410.27448  89026323.24145  21741129.2584                   21741135.6214
 128814581.42745 100375005.08442  24512617.8594                   24512630.3524
 115625144.75647  90097548.47245  22002731.5634                   22002740.0394
 104903198.04148  81742779.32547  19962412.8984                   19962418.1054
 11  7 23 17 16 30.0000000  0 11G03G13G07G19G10G08G20G16G32G06G23
 109651426.77147  85442801.94046  20865984.4144                   20865992.3674
 108020507.34448  84171949.76746  20555634.0864                   20555640.7114
 121482708.102 7                  23117382.781
 116749404.42247  90973597.68045  22216667.0004                   22216674.4774
 125921868.62446  98120892.58743  23962111.5704                   23962121.2974
 132982702.16915                  25305778.547
 123764790.11846  96440110.21343  23551665.7814                   23551673.5004
 114330120.77948  89088435.29745  21756297.5944                   21756304.4104
 128908556.63545 100448232.24442  24530500.7274                   24530513.5434
 115636718.41247  90106566.90245  22004934.5394                   22004941.7234
 104908734.64948  81747093.54546  19963466.0234                   19963471.4344
 11  7 23 17 17  0.0000000  0 11G03G13G07G19G10G08G20G16G32G06G23
 109630975.66747  85426866.03046  20862092.4534                   20862100.3714
 107969094.31848  84131887.67046  20545850.7034                   20545856.6134
 121423151.786 7                  23106049.852
 116670987.99647  90912494.00445  22201745.3444                   22201752.3284
 125893036.61547  98098426.11243  23956625.3204                   23956634.6214
 132917604.920 5                  25293390.984
 123854148.56747  96509740.08744  23568669.1334                   23568678.2424
 114410063.98948  89150728.67045  21771510.3984                   21771516.8404
 129002466.21945 100521408.27452  24548371.0314                   24548385.2854
 115648847.93947  90116018.46745  22007241.8524                   22007249.8594
 104914818.16448  81751833.93147  19964623.7814                   19964628.7544
 11  7 23 17 17 30.0000000  0 11G03G13G07G19G10G08G20G16G32G06G23
 109611131.18648  85411402.80745  20858316.1954                   20858323.9494
 107918094.27548  84092147.38746  20536145.3754                   20536152.2584
 121363618.160 7                  23094721.859
 116592888.05347  90851636.96645  22186883.2344                   22186890.2504
 125864715.03046  98076357.33943  23951235.5554                   23951244.8364
 132852476.56415                  25280997.555
 123943547.24147  96579401.22644  23585681.4534                   23585691.1804
 114490237.53848  89213201.52545  21786767.0784                   21786773.5004
 129096307.42845 100594530.96542  24566229.2734                   24566243.6094
 115661533.43747  90125903.26545  22009656.1174                   22009664.1454
 104921449.30048  81757001.03547  19965885.6094                   19965890.9964
 11  7 23 17 18  0.0000000  0 11G03G13G07G19G10G08G20G16G32G06G23
 109591894.82747  85396413.43445  20854655.5784                   20854663.6134
 107867509.31848  84052730.53246  20526519.2734                   20526526.3324
 121304106.943 7                  23083396.891
 116515107.99147  90791029.16845  22172081.8984                   22172088.7854
 125836904.40946  98054686.73043  23945942.9064                   23945952.1954
 132787316.40215                  25268599.305
 124032982.91747  96649091.23044  23602700.9614                   23602709.8914
 114570638.59848  89275851.69045  21802066.4304                   21802073.9144
 129190078.13946 100667598.81442  24584073.4774                   24584088.2854
 115674774.44547  90136220.93545  22012175.6024                   22012183.6994
 104928628.86448  81762595.48047  19967252.0474                   19967257.2274
 11  7 23 17 18 30.0000000  0 11G03G13G07G19G10G08G20G16G32G06G23
 109573267.81447  85381898.88046  20851110.9844                   20851119.1484
 107817342.01748  84013639.14346  20516972.5634                   20516979.4654
 121244618.562 7                  23072076.914
 116437651.21147  90730673.26245  22157342.2504                   22157349.2624
 125809604.73846  98033414.26943  23940747.9924                   23940758.1174
 132722123.71115                  25256192.133
 124122453.01346  96718808.04543  23619725.7734                   23619735.6644
 114651264.74448  89338677.21145  21817409.3134                   21817416.2974
 129283775.91146 100740609.80942  24601904.2664                   24601918.2624
 115688571.11947  90146971.59445  22014801.4924                   22014809.7544
 104936357.44848  81768617.74746  19968722.5314                   19968728.0554
 11  7 23 17 19  0.0000000  0 11G03G13G07G19G10G08G20G16G32G06G23
 109555251.33647  85367860.07346  20847682.3594                   20847690.6054
 107767595.19548  83974875.37746  20507506.3594                   20507513.0164
 121185152.600 7                  23060760.273
 116360520.63647  90670571.55445  22142665.3674                   22142672.2194
 125782817.17746  98012540.84743  23935651.3444                   23935660.3794
 132656898.392 4                  25243778.563
 124211954.46946  96788549.32743  23636757.2664                   23636765.9734
 114732113.24948  89401676.01645  21832794.8054                   21832801.6174
 129377398.28646 100813562.06442  24619720.6644                   24619733.6884
 115702923.39947  90158155.20045  22017532.6414                   22017541.1054
 104944635.96948  81775068.51647  19970298.2274                   19970303.1524
 11  7 23 17 19 30.0000000  0 11G03G13G07G19G10G08G20G16G32G06G23
 109537846.53047  85354297.89746  20844370.9454                   20844378.6684
 107718270.65948  83936440.68146  20498120.2734                   20498127.2464
 121125709.219 7                  23049448.695
 116283719.57647  90610726.61845  22128050.5864                   22128057.5354
 125756541.63446  97992066.38943  23930649.6954                   23930659.7154
 132591640.07015                  25231362.648
 124301484.81046  96858313.04444  23653794.5164                   23653804.5164
 114813181.83248  89464846.31945  21848221.3364                   21848227.8674
 129470942.81546 100886453.59142  24637521.7194                   24637534.6844
 115717831.26847  90169771.70745  22020369.2664                   22020377.5594
 104953465.19348  81781948.41647  19971978.3914                   19971983.0744
 11  7 23 17 20  0.0000000  0 11G03G13G07G19G10G08G20G16G32G06G23
 109521054.56947  85341213.26246  20841175.1564                   20841183.1174
 107669371.15548  83898337.17746  20488814.8524                   20488821.8554
 121066288.401 7                  23038140.859
 116207251.43047  90551141.10745  22113498.9144                   22113505.5204
 125730778.65847  97971991.34043  23925747.4144                   23925757.5274
                                  25218936.047
 124391041.26247  96928097.10744  23670837.4774                   23670846.9804
 114894468.03148  89528186.18445  21863689.3284                   21863696.2854
 129564407.11046 100959282.66742  24655306.9774                   24655319.8054
 115733294.64547  90181821.09245  22023311.5944                   22023320.3404
 104962846.18448  81789258.25347  19973763.8364                   19973768.1604
 11  7 23 17 20 30.0000000  0 11G03G13G07G19G10G08G20G16G32G06G23
 109504876.46448  85328606.94546  20838096.8364                   20838104.9454
 107620898.63148  83860566.39146  20479590.9064                   20479597.8364
 121006890.028 7                  23026837.945
 116131118.88847  90491817.10345  22099011.7034                   22099018.6564
 125705528.39746  97952315.83743  23920943.4534                   23920952.0744
 132461021.756 5                  25206505.164
 124480620.44146  96997898.91344  23687882.9844                   23687893.8364
 114975968.79948  89591693.24645  21879198.8524                   21879205.7814
 129657788.65345 101032047.24242  24673076.8594                   24673090.0204
 115749313.07247  90194302.98945  22026360.0474                   22026368.6374
 104972778.76048  81796997.91647  19975653.7424                   19975658.6804
 11  7 23 17 21  0.0000000  0 11G03G13G07G19G10G08G20G16G32G06G23
 109489313.77748  85316480.17845  20835135.0474                   20835142.7424
 107572855.96848  83823130.55246  20470448.4844                   20470455.6764
 120947514.329 7                  23015539.422
 116055325.59847  90432757.44545  22084588.3364                   22084595.3164
 125680791.48346  97933040.31943  23916235.3444                   23916245.3714
 132395661.290 5                  25194067.102
 124570219.90646  97067716.47743  23704933.9924                   23704943.2274
 115057682.29548  89655366.07945  21894748.0944                   21894755.1094
 129751085.49345 101104745.78042  24690830.0784                   24690844.6214
 115765886.80747  90207217.57245  22029514.0004                   22029522.5864
 104983264.25748  81805168.41046  19977648.8364                   19977653.7274
 11  7 23 17 21 30.0000000  0 11G03G13G07G19G10G08G20G16G32G06G23
 109474367.08247  85304833.40045  20832291.1174                   20832298.7584
 107525245.62648  83786031.58746  20461388.7814                   20461395.8204
 120888161.394 7                  23004244.617
 115979874.97747  90373964.79545  22070230.5084                   22070237.2384
 125656567.93146  97914164.80843  23911626.2344                   23911635.9454
 132330266.413 6                  25181622.555
 124659837.04847  97137547.90343  23721986.9844                   23721996.8874
 115139605.54048  89719202.31745  21910337.6564                   21910344.6294
 129844294.86845 101177376.15942  24708567.8284                   24708582.7384
 115783015.68847  90220564.74245  22032773.3914                   22032781.7894
 104994303.35248  81813770.29046  19979749.5474                   19979754.7344
 11  7 23 17 22  0.0000000  0 11G03G13G07G19G10G08G20G16G32G06G23
 109460037.94148  85293667.85645  20829564.0944                   20829572.0664
 107478069.82848  83749271.23646  20452411.4224                   20452418.5084
 120828831.196 7                  22992954.117
 115904769.70247  90315441.28345  22055938.4454                   22055945.6454
 125632858.39147  97895689.85443  23907114.0394                   23907123.7704
 132264836.206 6                  25169172.586
 124749468.80046  97207390.66443  23739044.5084                   23739053.1054
 115221736.28248  89783200.27345  21925967.1334                   21925973.6374
 129937414.76844 101249936.79942  24726287.0314                   24726302.8914
 115800699.40847  90234344.25945  22036138.4614                   22036146.7974
 105005896.82148  81822804.14446  19981955.8204                   19981960.9264
 11  7 23 17 22 30.0000000  0 10G03G13G07G19G10G08G20G16G06G23
 109446327.05148  85282984.03746  20826955.0474                   20826962.6294
 107431330.94448  83712851.34846  20443517.1254                   20443524.7074
 120769523.799 7                  22981668.688
 115830013.21847  90257189.52945  22041712.8594                   22041719.4264
 125609662.74447  97877615.33143  23902700.7194                   23902709.5554
 132199370.517 5                  25156713.336
 124839112.32547  97277242.61744  23756103.1174                   23756112.7074
 115304071.96248  89847357.93945  21941634.8284                   21941641.5314
 115818937.74447  90248555.94745  22039609.5004                   22039617.7854
 105018044.77248  81832270.04946  19984267.6564                   19984272.2464
 11  7 23 17 23  0.0000000  0 10G03G13G07G19G10G08G20G16G06G23
 109433235.40447  85272782.74545  20824463.7584                   20824471.5434
 107385031.02948  83676773.48246  20434706.7344                   20434713.1844
 120710238.755 7                  22970386.734
 115755608.46047  90199211.82745  22027554.0004                   22027560.6994
 125586981.21647  97859941.39543  23898384.1094                   23898393.8244
 132133868.656 6                  25144249.914
 124928765.11347  97347101.75443  23773163.0864                   23773173.1724
 115386609.82548  89911673.11445  21957341.1484                   21957348.3324
 115837730.19347  90263199.41845  22043185.4774                   22043193.5864
 105030747.87848  81842168.57546  19986684.6094                   19986690.1564
 11  7 23 17 23 30.0000000  0 10G03G13G07G19G10G08G20G16G06G23
 109420763.56148  85263064.43545  20822090.7584                   20822098.2344
 107339172.59648  83641039.65646  20425980.2034                   20425987.1684
 120650976.418 7                  22959109.445
 115681558.50747  90141510.60845  22013462.7974                   22013469.2274
 125564814.23147  97842668.39443  23894166.3594                   23894175.8714
 132068330.215 5                  25131778.258
 125018423.90246  97416965.57643  23790224.9924                   23790233.4574
 115469347.39247  89976143.90745  21973085.6484                   21973092.7384
 115857076.62147  90278274.55545  22046866.6954                   22046874.8834
 105044006.75548  81852500.13747  19989207.9384                   19989212.9024
 11  7 23 17 24  0.0000000  0 10G03G13G07G19G10G08G20G16G06G23
 109408912.10748  85253829.54946  20819834.9304                   20819843.2464
 107293756.62448  83605650.59046  20417337.7344                   20417344.9774
 120591736.046 7                  22947836.109
 115607865.96047  90084087.87845  21999439.3674                   21999446.0274
 125543160.85946  97825795.63143  23890045.1484                   23890054.2774
 132002754.362 6                  25119299.422
 125108085.15546  97486831.38343  23807286.7344                   23807295.7504
 115552281.81647  90040768.09345  21988867.3204                   21988874.0634
 115876975.84947  90293780.45645  22050653.1884                   22050661.4654
 105057821.00748  81863264.47447  19991836.6644                   19991842.0554
 11  7 23 17 24 30.0000000  0 11G03G13G07G19G10G08G20G16G32G06G23
 109397682.31448  85245079.05746  20817698.2344                   20817706.2544
 107248786.54748  83570608.97646  20408780.2344                   20408787.2464
 120532518.070 7                  22936567.813
 115534533.99247  90026946.10945  21985485.0864                   21985491.5434
 125522021.94547  97809323.78243  23886022.7664                   23886031.9774
 131937140.81446 102808245.46452  25106813.1484                   25106824.2424
 125197746.67646  97556697.35243  23824348.8444                   23824358.3914
 115635410.57347  90105543.72245  22004686.3524                   22004693.4104
                                  24814619.727
 115897428.00747  90309717.19045  22054545.3754                   22054554.2934
 105072191.55548  81874462.28546  19994571.0554                   19994576.5944
 11  7 23 17 25  0.0000000  0 11G03G13G07G19G10G08G20G16G32G06G23
 109387074.82847  85236813.48645  20815679.5084                   20815687.2734
 107204264.43348  83535916.43746  20400307.6644                   20400314.8364
 120473322.348 7                  22925303.336
 115461565.93947  89970087.91945  21971599.6254                   21971606.1294
 125501397.45447  97793252.74843  23882098.5394                   23882107.7894
 131871488.99346 102757088.27042  25094321.2584                   25094331.3834
 125287405.36646  97626561.07943  23841410.5474                   23841421.3094
 115718731.19547  90170468.82545  22020541.8594                   22020549.0744
 130494111.263 4                  24832227.359
 115918432.67547  90326084.47845  22058542.7424                   22058551.0704
 105087118.77148  81886093.85447  19997411.9454                   19997417.0554
 11  7 23 17 25 30.0000000  0 11G03G13G07G19G10G08G20G16G32G06G23
 109377090.86547  85229033.75645  20813779.5864                   20813787.5514
 107160192.90848  83501574.99446  20391921.5234                   20391928.3794
 120414149.517 7                  22914042.781
 115388965.11247  89913515.90445  21957783.7504                   21957790.8794
 125481287.26146  97777582.42843  23878271.6564                   23878280.5124
 131805798.62146 102705901.07043  25081819.6334                   25081830.7344
 125377059.20446  97696421.02043  23858471.4384                   23858481.4574
 115802241.34947  90235541.63145  22036433.7194                   22036440.2074
 130586535.073 5                  24849814.547
 115939989.57947  90342882.05645  22062644.6174                   22062653.4304
 105102603.40048  81898159.76547  20000358.6094                   20000363.5514
 11  7 23 17 26  0.0000000  0 11G03G13G07G19G10G08G20G16G32G06G23
 109367731.21948  85221740.53545  20811998.6484                   20812006.6994
 107116574.15748  83467586.36146  20383620.7424                   20383628.1334
 120354999.576 7                  22902787.461
 115316734.64747  89857232.48045  21944038.9454                   21944045.1414
 125461691.78246  97762313.23343  23874541.7734                   23874552.2774
 131740069.62446 102654683.65442  25069311.8524                   25069322.3634
 125466705.18646  97766274.83843  23875531.5864                   23875540.6764
 115885938.81647  90300760.41045  22052360.9774                   22052367.7584
 130678850.46115                  24867382.094
 115962098.67147  90360109.92045  22066851.6564                   22066860.6564
 105118646.04348  81910660.51446  20003411.3984                   20003416.7304
 11  7 23 17 26 30.0000000  0 11G03G13G07G19G10G08G20G16G32G06G23
 109358996.41447  85214934.18746  20810336.2194                   20810344.6914
 107073410.10048  83433952.03246  20375407.0004                   20375414.4104
 120295872.114 7                  22891535.164
 115244877.53447  89801239.95345  21930365.5004                   21930371.7274
 125442611.04147  97747445.11844  23870912.2584                   23870920.7234
 131674301.61646 102603435.89842  25056796.4144                   25056807.4024
 125556340.01546  97836119.96343  23892588.4144                   23892597.6054
 115969820.72847  90366122.91945  22068322.9694                   22068329.5984
 130771054.598 5                  24884928.828
 115984758.95947  90377767.29345  22071163.7274                   22071171.5944
 105135246.72648  81923596.07346  20006570.6024                   20006575.8444
 11  7 23 17 27  0.0000000  0 11G03G13G07G19G10G08G20G16G32G06G23
 109350887.84048  85208615.83646  20808793.4064                   20808801.8284
 107030703.61448  83400674.27446  20367280.2814                   20367287.5354
 120236767.938 7                  22880288.156
 115173397.10147  89745540.96345  21916762.4774                   21916769.0004
 125424045.26347  97732978.28544  23867378.3914                   23867388.3164
 131608494.58546 102552157.74243  25044273.9064                   25044284.9304
 125645961.77446  97905954.92343  23909642.2894                   23909652.5004
 116053885.25747  90431627.72045  22084319.6024                   22084326.4574
 130863145.82414                  24902451.734
 116007970.72347  90395854.37545  22075581.0474                   22075589.4964
 105152406.74848  81936967.49947  20009836.0554                   20009841.4264
 11  7 23 17 27 30.0000000  0 10G03G13G07G19G10G08G20G16G06G23
 109343406.75748  85202786.42446  20807369.8204                   20807378.1724
 106988457.38548  83367755.13046  20359241.3204                   20359247.8014
 120177687.563 7                  22869045.820
 115102296.81447  89690138.16745  21903232.7974                   21903239.3524
 125405994.82647  97718913.00843  23863943.1024                   23863953.0354
 131542648.13646 102500848.88843  25031744.8984                   25031754.3954
 125735568.12446  97975777.88143  23926693.4454                   23926703.3524
 116138130.31547  90497273.18045  22100351.2894                   22100358.1644
 116031733.61647  90414370.88745  22080102.6644                   22080111.6764
 105170126.35048  81950774.95647  20013207.6414                   20013213.1484
 11  7 23 17 28  0.0000000  0 10G03G13G07G19G10G08G20G16G06G23
 109336553.07648  85197445.88845  20806065.7974                   20806073.2304
 106946673.13248  83335195.98146  20351289.7734                   20351296.8754
 120118630.442 7                  22857807.844
 115031579.10447  89635033.50345  21889775.6174                   21889781.4884
 125388459.41047  97705249.05243  23860606.8134                   23860615.8554
 131476761.71046 102449508.85943  25019206.5864                   25019216.9144
 125825155.44146  98045585.99843  23943741.6644                   23943752.5634
 116222553.05647  90563057.10145  22116415.8054                   22116423.4144
 116056046.67247  90433316.11745  22084729.6094                   22084737.7504
 105188405.71648  81965018.59847  20016686.5314                   20016691.3164
 11  7 23 17 28 30.0000000  0 10G03G13G07G19G10G08G20G16G06G23
 109330326.87748  85192594.29645  20804881.0784                   20804888.8364
 106905352.56948  83302998.14046  20343426.8364                   20343433.5084
 120059596.349 7                  22846573.766
 114961246.88847  89580229.21545  21876391.0234                   21876397.7664
 125371438.98547  97691986.38443  23857367.8054                   23857377.5514
 131410834.13946 102398136.81943  25006660.5944                   25006670.9344
 125914720.90546  98115377.04143  23960785.9844                   23960795.9964
 116307150.22348  90628976.91745  22132514.5234                   22132521.5394
 116080909.03447  90452689.38145  22089460.7504                   22089469.1524
 105207244.25748  81979697.96446  20020271.2424                   20020276.4574
 11  7 23 17 29  0.0000000  0 10G03G13G07G19G10G08G20G16G06G23
 109324729.05048  85188232.35546  20803815.5554                   20803823.4924
 106864497.96248  83271163.38146  20335652.1724                   20335659.3714
 120000585.303 7                  22835343.969
 114891303.20047  89525727.68145  21863081.8834                   21863088.3984
 125354933.33147  97679124.83343  23854227.0784                   23854236.4264
 131344865.35346 102346732.63243  24994107.4844                   24994117.6914
 126004261.96746  98185149.08944  23977825.2894                   23977835.6414
 116391919.68247  90695031.00745  22148645.8984                   22148652.0634
 116106320.09747  90472490.21645  22094295.9064                   22094304.5234
 105226642.57948  81994813.51747  20023962.3914                   20023968.0164
 11  7 23 17 29 30.0000000  0 10G03G13G07G19G10G08G20G16G06G23
 109319760.33948  85184360.64046  20802870.2814                   20802878.2544
 106824111.57048  83239693.46246  20327967.4534                   20327974.0664
 119941597.489 7                  22824118.547
 114821750.96247  89471531.17645  21849846.3364                   21849852.7384
 125338941.73246  97666663.83243  23851183.2664                   23851193.5594
 131278855.07146 102295296.14343  24981544.5084                   24981555.6484
 126093775.64846  98254899.78143  23994859.0004                   23994869.9344
 116476859.30247  90761217.69445  22164809.5164                   22164815.9064
 116132279.38647  90492718.19845  22099236.1884                   22099244.5394
 105246601.21949  82010365.67846  20027760.9064                   20027766.0124
 11  7 23 17 30  0.0000000  0 10G03G13G07G19G10G08G20G16G06G23
 109315420.96448  85180979.31346  20802044.3674                   20802052.0824
 106784195.33248  83208589.89346  20320371.4384                   20320378.4804
 119882632.940 7                  22812898.609
 114752593.04947  89417641.90945  21836686.1954                   21836692.7774
 125323464.47347  97654603.62243  23848238.8134                   23848247.9064
 131212802.84746 102243826.93443  24968975.6334                   24968986.9694
 126183258.93746  98324626.82643  24011887.8834                   24011897.7304
 116561966.19547  90827534.71345  22181005.0704                   22181011.3594
 116158786.13347  90513372.77545  22104280.8284                   22104288.2504
 105267119.44248  82026353.88446  20031665.0634                   20031670.1564
 11  7 23 17 30 30.0000000  0 10G03G13G07G19G10G08G20G16G06G23
 109311711.54247  85178088.85946  20801338.5784                   20801346.4574
 106744751.81748  83177854.68846  20312865.8134                   20312872.3244
 119823691.881 7                  22801682.078
 114683833.24347  89364062.85445  21823601.5944                   21823607.5124
 125308501.60046  97642944.27243  23845390.9454                   23845400.8914
 131146708.37446 102192324.84243  24956399.3054                   24956409.2974
 126272709.73346  98394328.59443  24028909.3444                   24028919.9534
 116647238.20347  90893980.39745  22197230.8444                   22197238.1844
 116185839.84747  90534453.58245  22109428.1804                   22109436.9694
 105288198.43948  82042779.06546  20035676.2584                   20035681.8754
 11  7 23 17 31  0.0000000  0 10G03G13G07G19G10G08G20G16G06G23
 109308632.98447  85175689.98245  20800752.4924                   20800760.3134
 106705783.38248  83147489.66746  20305450.4304                   20305457.1764
 119764775.024 7                  22790470.789
 114615473.86848  89310795.83645  21810593.0944                   21810600.0434
 125294053.12747  97631685.69243  23842642.5634                   23842651.2114
 131080571.34246 102140789.58343  24943812.9304                   24943823.3014
 126362125.25046  98464002.84543  24045925.1334                   24045935.6844
 116732672.90147  90960552.86945  22213488.6884                   22213495.9964
 116213440.02747  90555960.18845  22114680.1564                   22114689.0944
 105309838.30748  82059641.26146  20039794.3284                   20039799.4494
 11  7 23 17 31 30.0000000  0 10G03G13G07G19G10G08G20G16G06G23
 109306185.67548  85173782.99145  20800287.4454                   20800294.9774
 106667291.65048  83117496.11146  20298125.8284                   20298132.4104
 119705881.622 7                  22779263.711
 114547517.85248  89257843.12946  21797661.8054                   21797667.8204
 125280118.25346  97620827.34143  23839990.0084                   23839999.9024
 131014391.13446 102089220.63443  24931219.6884                   24931230.1024
 126451502.74546  98533647.48443  24062933.7194                   24062943.4454
 116818268.01047  91027250.33745  22229776.9144                   22229783.7234
 116241585.80147  90577891.96345  22120035.8834                   22120045.1454
 105332038.88348  82076940.40446  20044018.7814                   20044023.8134
 11  7 23 17 32  0.0000000  0 10G03G13G07G19G10G08G20G16G06G23
 109304370.13347  85172368.26946  20799941.4454                   20799949.6334
 106629278.86048  83087875.74746  20290892.1564                   20290898.6804
 119647011.991 7                  22768061.133
 114479968.39947  89205207.22445  21784807.3914                   21784813.4774
 125266697.11446  97610369.29543  23837436.2814                   23837445.9574
 130948167.79546 102037618.05243  24918618.2504                   24918627.3364
 126540839.35446  98603260.26143  24079933.2814                   24079943.5204
 116904020.92547  91094070.76045  22246095.6334                   22246102.1254
 116270276.45447  90600248.29845  22125496.4224                   22125504.9344
 105354800.40248  82094676.62946  20048349.9844                   20048355.2584
 11  7 23 17 32 30.0000000  0 10G03G13G07G19G10G08G20G16G06G23
 109303186.54947  85171446.00246  20799716.2424                   20799723.7384
 106591747.36148  83058630.43346  20283749.8674                   20283756.8204
 119588166.721 7                  22756863.594
 114412828.46547  89152890.40245  21772030.3984                   21772037.1884
 125253789.51947  97600311.41043  23834980.5394                   23834989.5514
 130881900.84446 101985981.51643  24906007.2894                   24906017.9144
 126630132.42946  98672839.14043  24096925.6804                   24096935.9614
 116989929.58747  91161012.52545  22262443.0864                   22262449.5434
 116299511.62047  90623028.91945  22131059.4614                   22131067.5704
 105378123.11948  82112850.15246  20052788.4144                   20052793.8014
 11  7 23 17 33  0.0000000  0 10G03G13G07G19G10G08G20G16G06G23
 109302635.14848  85171016.34445  20799610.6644                   20799619.1804
 106554699.02648  83029761.58746  20276699.9924                   20276706.7544
 119529345.762 7                  22745670.125
 114346100.72047  89100894.79145  21759332.6484                   21759339.6764
 125241394.92747  97590653.29843  23832621.7344                   23832630.6374
 130815589.94746 101934310.78343  24893388.8524                   24893399.0904
 126719379.24246  98742381.93543  24113908.7734                   24113919.3404
 117075991.01547  91228073.36045  22278820.5234                   22278826.6524
 116329289.99347  90646232.84045  22136725.8524                   22136734.1564
 105402007.05148  82131460.98346  20057333.4224                   20057338.7384
 11  7 23 17 33 30.0000000  0 10G03G13G07G19G10G08G20G16G06G23
 109302716.58948  85171079.78846  20799627.2344                   20799634.6374
 106518135.68648  83001270.68346  20269742.2194                   20269749.2774
 119470549.243 7                  22734481.000
 114279788.32747  89049222.82946  21746714.3444                   21746720.9384
 125229513.08947  97581394.70143  23830360.4774                   23830369.9024
 130749234.50046 101882605.27243  24880761.4144                   24880772.5594
 126808576.91146  98811886.34443  24130882.1884                   24130893.0514
 117162203.27647  91295251.70845  22295225.8984                   22295232.2464
 116359610.84547  90669859.48345  22142495.8444                   22142504.4774
 105426451.91448  82150508.91346  20061985.3594                   20061990.5084
 11  7 23 17 34  0.0000000  0 10G03G13G07G19G10G08G20G16G06G23
 109303431.44647  85171636.82346  20799762.6174                   20799770.9574
 106482059.99148  82973159.74746  20262877.1484                   20262884.3324
 119411777.556 7                  22723297.875
 114213894.42247  88997876.96645  21734175.0704                   21734181.2974
 125218144.29347  97572535.86943  23828196.4064                   23828206.4064
 130682834.61546 101830865.19043  24868126.3134                   24868136.8484
 126897723.22846  98881350.87943  24147845.7194                   24147856.9734
 117248564.06447  91362545.79245  22311659.5944                   22311667.0354
 116390473.89347  90693908.60645  22148368.9534                   22148376.5784
 105451458.31648  82169994.39746  20066743.7504                   20066749.1844
 11  7 23 17 34 30.0000000  0 10G03G13G07G19G10G08G20G16G06G23
 109304779.69148  85172687.40146  20800019.1884                   20800027.4454
 106446473.90348  82945430.32846  20256105.2114                   20256112.0824
 119353030.829 7                  22712118.508
 114148421.62547  88946859.23045  21721715.6414                   21721722.7034
 125207287.66147  97564076.15043  23826130.8524                   23826140.4804
 130616389.83846 101779090.08743  24855481.5554                   24855492.2774
 126986815.61546  98950773.23443  24164800.6484                   24164811.3094
 117335070.99847  91429953.75445  22328121.1564                   22328128.8484
 116421878.09847  90718379.39045  22154345.3754                   22154353.0664
 105477026.24548  82189917.44046  20071609.1954                   20071614.9064
 11  7 23 17 35  0.0000000  0 10G03G13G07G19G10G08G20G16G06G23
 109306761.28648  85174231.48246  20800396.6334                   20800404.8674
 106411379.21747  82918083.82446  20249426.8204                   20249433.8874
 119294309.127 7                  22700944.805
 114083372.78247  88896171.84845  21709337.7274                   21709344.0554
 125196942.70547  97556015.13843  23824163.1094                   23824171.6844
 130549899.81846 101727279.65343  24842829.8674                   24842839.6214
 127075851.42846  99020151.59543  24181744.1334                   24181754.9924
 117421721.63747  91497473.67845  22344610.8204                   22344618.1094
 116453822.37547  90743271.02345  22160424.4774                   22160431.2934
 105503155.54348  82210277.90746  20076581.6954                   20076587.0824
 11  7 23 17 35 30.0000000  0 10G03G13G07G19G10G08G20G16G06G23
 109309376.91948  85176269.63245  20800894.1254                   20800902.1174
 106376778.27048  82891122.05146  20242842.4144                   20242849.8754
 119235612.919 7                  22689774.180
 114018751.15947  88845817.36445  21697040.5004                   21697047.4494
 125187109.83147  97548353.11343  23822291.3204                   23822301.0514
 130483364.14846 101675433.72543  24830167.8204                   24830178.0124
 127164827.61146  99089483.51543  24198675.1334                   24198686.1174
 117508513.90647  91565103.98845  22361127.0084                   22361133.8914
 116486306.36247  90768583.21145  22166604.8134                   22166613.6214
 105529846.41048  82231075.95946  20081660.9224                   20081665.7974
 11  7 23 17 36  0.0000000  0 10G03G13G07G19G10G08G20G16G06G23
 109312626.50647  85178801.77545  20801512.7034                   20801520.7504
 106342672.72448  82864546.29046  20236352.3524                   20236359.6334
 119176941.751 7                  22678609.781
 113954559.02947  88795797.53545  21684825.0084                   21684831.5394
 125177787.74247  97541089.16543  23820517.0864                   23820527.2504
 130416782.26846 101623551.80643  24817497.6174                   24817508.4224
 127253741.46046  99158766.79643  24215595.4614                   24215605.5474
 117595444.88647  91632842.37545  22377669.4924                   22377676.3484
 116519328.46747  90794314.69445  22172889.0784                   22172897.5554
 105557097.89048  82252310.86346  20086845.9924                   20086851.6054
 11  7 23 17 36 30.0000000  0 10G03G13G07G19G10G08G20G16G06G23
 109316510.24848  85181828.04145  20802251.4844                   20802259.3284
 106309064.92048  82838358.39946  20229957.4384                   20229964.6054
 119118296.300 7                  22667449.813
 113890799.80347  88746115.07845  21672691.8594                   21672698.6604
 125168976.64447  97534223.33643  23818840.6254                   23818850.6214
 130350154.12746 101571633.82944  24804819.0314                   24804829.6684
 127342590.58046  99227999.67643  24232502.7274                   24232513.4414
 117682512.73847  91700687.44044  22394237.4774                   22394244.3284
 116552888.17447  90820465.10845  22179275.6724                   22179283.2074
 105584910.66848  82273983.13346  20092138.9694                   20092144.2854
 11  7 23 17 37  0.0000000  0 10G03G13G07G19G10G08G20G16G06G23
 109321028.64148  85185348.86545  20803111.2894                   20803119.4924
 106275956.89747  82812559.93946  20223656.8594                   20223663.9304
 119059677.041 7                  22656295.320
 113827476.15747  88696772.00345  21660641.6644                   21660648.0664
 125160676.12847  97527755.35544  23817261.8364                   23817270.6174
 130283479.43146 101519679.56243  24792131.6564                   24792141.6844
 127431372.44646  99297180.15043  24249397.5634                   24249408.8984
 117769715.47247  91768637.58644  22410831.3284                   22410838.8324
 116586984.57247  90847033.71545  22185763.4384                   22185771.7114
 105613284.76648  82296092.79246  20097538.0554                   20097543.5354
 11  7 23 17 37 30.0000000  0 10G03G13G07G19G10G08G20G16G06G23
 109326181.52047  85189364.08445  20804091.7734                   20804100.2154
 106243350.38347  82787152.25446  20217451.9924                   20217458.6454
 119001083.806 7                  22645144.992
 113764590.79847  88647770.44945  21648675.0634                   21648681.3554
 125152885.62847  97521684.81544  23815779.0164                   23815789.0234
 130216757.86546 101467688.75543  24779434.3834                   24779444.6684
 127520084.55446  99366306.31043  24266279.2734                   24266290.8714
 117857050.10547  91836690.52044  22427450.3754                   22427457.8164
 116621616.83447  90874019.85645  22192353.8674                   22192362.3444
 105642220.12648  82318639.81346  20103044.5784                   20103049.4024
 11  7 23 17 38  0.0000000  0 10G03G13G07G19G10G08G20G16G06G23
 109331968.80148  85193873.66946  20805193.3674                   20805201.1884
 106211247.32948  82762136.88346  20211343.0164                   20211350.1374
 118942516.930 7                  22633999.727
 113702146.48747  88599112.60446  21636792.4064                   21636799.2704
 125145604.33547  97516011.06443  23814392.5554                   23814402.8324
 130149988.91346 101415661.02143  24766729.1174                   24766738.5274
 127608724.03946  99435375.81143  24283146.5394                   24283158.2934
 117944514.44147  91904844.48845  22444095.0634                   22444102.5744
 116656783.52847  90901422.46045  22199046.1954                   22199053.9574
 105671715.68348  82341623.32946  20108657.3914                   20108662.7774
 11  7 23 17 38 30.0000000  0 10G03G13G07G19G10G08G20G16G06G23
 109338391.12848  85198878.06246  20806415.9454                   20806423.3484
 106179649.74047  82737515.36446  20205330.5704                   20205336.9844
 118883976.668 7                  22622860.203
 113640145.87647  88550800.49246  21624994.1804                   21625000.6484
 125138831.86847  97510733.80243  23813104.7344                   23813114.2734
 130083172.72546 101363596.51743  24754013.5234                   24754024.1994
 127697288.21846  99504386.66943  24299999.2814                   24300011.2544
 118032106.44047  91973097.96745  22460763.3984                   22460770.3134
 116692483.94047  90929240.95545  22205839.5004                   22205848.3714
 105701771.87248  82365043.71046  20114376.7664                   20114381.8094
 11  7 23 17 39  0.0000000  0 10G03G13G07G19G10G08G20G16G06G23
 109345448.12348  85204377.01546  20807758.4064                   20807765.9964
 106148559.28048  82713289.03846  20199413.6414                   20199420.2114
 118825463.146 7                  22611725.336
 113578592.07247  88502836.51045  21613280.6724                   21613286.7154
 125132567.61747  97505852.52743  23811913.1254                   23811921.9804
 130016308.61346 101311494.66043  24741290.3134                   24741300.5354
 127785774.54146  99573336.77743  24316839.3754                   24316850.2034
 118119823.50347  92041448.88245  22477454.9694                   22477463.0124
 116728716.93147  90957474.41645  22212734.8914                   22212743.3714
 105732388.22648  82388900.59046  20120203.1564                   20120208.3984
 11  7 23 17 39 30.0000000  0 10G03G13G07G19G10G08G20G16G06G23
 109353139.88448  85210370.59945  20809221.8674                   20809229.6374
 106117978.11347  82689459.54146  20193594.5314                   20193601.4024
 118766976.775 7                  22600595.734
 113517487.73547  88455222.76945  21601652.6644                   21601659.0514
 125126811.24746  97501367.03243  23810817.3284                   23810826.2074
 129949396.22746 101259355.15343  24728558.1724                   24728567.0784
 127874180.41246  99642224.23143  24333662.5004                   24333673.0594
 118207663.48147  92109895.55345  22494171.0944                   22494178.1134
 116765481.39747  90986122.03345  22219730.4384                   22219738.2304
 105763564.72248  82413193.94146  20126135.8914                   20126141.1414
 11  7 23 17 40  0.0000000  0 10G03G13G07G19G10G08G20G16G06G23
 109361466.38048  85216858.77145  20810806.2664                   20810814.6334
 106087908.26947  82666028.48946  20187872.4454                   20187878.6804
 118708517.709 7                  22589471.727
 113456835.68247  88407961.47246  21590111.1254                   21590117.8594
 125121562.01647  97497276.66944  23809818.9064                   23809827.8834
 129882435.57146 101207178.07343  24715814.5784                   24715825.6604
 127962503.32846  99711047.05443  24350469.3284                   24350480.6294
 118295624.22647  92178436.35945  22510909.4774                   22510916.6374
 116802776.43747  91015183.11145  22226827.7734                   22226835.6604
 105795301.07148  82437923.53346  20132175.1644                   20132180.2424
 11  7 23 17 40 30.0000000  0 10G03G13G07G19G10G08G20G16G06G23
 109370427.67348  85223841.58945  20812511.6954                   20812519.3874
 106058351.62248  82642997.34346  20182247.8444                   20182254.5434
 118650086.587 7                  22578353.055
 113396638.68747  88361054.74346  21578655.6094                   21578662.3404
 125116819.54447  97493581.21844  23808916.2274                   23808925.5354
 129815426.26746 101154963.07043  24703063.7194                   24703074.2194
 128050740.99246  99779803.49442  24367260.1174                   24367270.1334
 118383703.81247  92247069.72044  22527670.2584                   22527677.5744
 116840601.09347  91044656.84245  22234025.5944                   22234033.9534
 105827597.37248  82463089.45046  20138321.0314                   20138326.1484
 11  7 23 17 41  0.0000000  0 10G03G13G07G19G10G08G20G16G06G23
 109380023.75648  85231319.05345  20814337.9454                   20814346.1024
 106029310.08747  82620367.58246  20176721.5394                   20176728.4224
 118591683.495 7                  22567238.789
 113336899.36747  88314504.65246  21567288.0554                   21567294.3364
 125112583.13747  97490280.12744  23808110.3754                   23808119.5204
 129748368.13946 101102710.04842  24690302.2504                   24690312.8984
 128138890.75746  99848491.39942  24384035.3284                   24384045.4534
 118471899.48847  92315793.58244  22544453.1334                   22544459.6914
 116878954.24447  91074542.39145  22241323.5314                   22241332.1374
 105860452.96448  82488691.18946  20144573.0944                   20144578.0664
 11  7 23 17 41 30.0000000  0 10G03G13G07G19G10G08G20G16G06G23
 109390253.92748  85239290.61245  20816284.2814                   20816292.4534
 106000785.24247  82598140.41846  20171293.7584                   20171300.4964
 118533308.636 7                  22556130.203
 113277620.30547  88268313.22646  21556007.2584                   21556013.5904
 125108852.11146  97487372.82443  23807399.1094                   23807409.8954
 129681260.95746 101050418.81142  24677532.3204                   24677543.5594
 128226949.93646  99917108.73142  24400792.4924                   24400802.9964
 118560209.09747  92384606.24444  22561257.9064                   22561264.2854
 116917834.46247  91104838.68745  22248722.3364                   22248730.5904
 105893867.34948  82514728.34346  20150931.6884                   20150937.0594
 11  7 23 17 42  0.0000000  0 10G03G13G07G19G10G08G20G16G06G23
 109401118.35448  85247756.40146  20818352.0234                   20818360.2734
 105972779.23648  82576317.56946  20165963.8984                   20165970.7814
 118474962.386 7                  22545027.250
 113218804.23547  88222482.54746  21544815.0164                   21544821.7344
 125105626.06647  97484858.99143  23806786.1254                   23806795.3794
 129614104.28846 100998088.95342  24664752.8834                   24664762.8134
 128314916.03946  99985653.52643  24417533.3204                   24417543.6054
 118648630.58547  92453506.09344  22578084.2034                   22578091.1134
 116957240.77747  91135544.87845  22256221.3834                   22256230.1684
 105927840.27548  82541200.73046  20157396.4774                   20157402.0554
 11  7 23 17 42 30.0000000  0 10G03G13G07G19G10G08G20G16G06G23
 109412616.55448  85256716.02445  20820539.9454                   20820548.3324
 105945293.15147  82554899.82146  20160734.0314                   20160740.2664
 118416644.691 7                  22533930.203
 113160453.73247  88177014.67046  21533711.2664                   21533718.1024
 125102903.77346  97482737.73143  23806267.8984                   23806277.2234
 129546897.84546 100945720.35643  24651964.4144                   24651974.4144
 128402786.12746 100054123.52743  24434253.2734                   24434265.2734
 118737161.57847  92522491.24644  22594931.1644                   22594938.5554
 116997171.78947  91166659.92145  22263819.6724                   22263828.7034
 105962371.07648  82568107.81246  20163967.4144                   20163973.4414
 11  7 23 17 43  0.0000000  0 10G03G13G07G19G10G08G20G16G06G23
 109424748.88848  85266169.78745  20822848.9694                   20822856.6214
 105918329.36148  82533889.07746  20155602.7194                   20155609.4574
 118358356.233 7                  22522837.773
 113102571.68647  88131911.80645  21522696.3204                   21522702.6684
 125100684.71747  97481008.58544  23805845.4774                   23805855.6844
 129479641.44446 100893312.80443  24639165.6724                   24639176.0594
 128490557.98246 100122516.95543  24450957.2664                   24450968.3404
 118825799.92447  92591560.03345  22611798.2974                   22611805.4844
 117037626.42247  91198183.00845  22271518.4694                   22271526.8244
 105997459.74148  82595449.60046  20170644.6094                   20170650.5634
 11  7 23 17 43 30.0000000  0 10G03G13G07G19G10G08G20G16G06G23
 109437515.27748  85276117.61546  20825278.3754                   20825286.2114
 105891889.79048  82513286.80546  20150571.3984                   20150578.0474
 118300097.322 7                  22511752.219
 113045160.64147  88087175.95346  21511772.1954                   21511777.8674
 125098968.42846  97479671.17143  23805519.2814                   23805527.9694
 129412334.82946 100840866.11742  24626357.0784                   24626367.7664
 128578229.27646 100190832.01442  24467640.2734                   24467651.3714
 118914543.38347  92660710.74945  22628685.7034                   22628693.1054
 117078603.53947  91230113.23145  22279316.0314                   22279324.6024
 106033106.11148  82623225.95846  20177427.7424                   20177433.2344
 11  7 23 17 44  0.0000000  0 10G03G13G07G19G10G08G20G16G06G23
 109450914.77048  85286558.76545  20827828.2814                   20827836.0044
 105865975.92147  82493094.17046  20145640.1094                   20145646.9454
 118241868.409 7                  22500670.992
 112988223.07847  88042809.05745  21500937.0864                   21500943.3054
 125097753.91446  97478724.79644  23805288.2194                   23805297.6414
 129344977.84146 100788380.24243  24613540.4694                   24613549.8364
 128665797.51546 100259066.78342  24484303.5314                   24484315.0514
 119003389.77847  92729941.65645  22645592.3914                   22645600.5514
 117120101.90147  91262449.57745  22287212.9844                   22287221.3954
 106069309.47048  82651436.34546  20184317.1334                   20184322.8284
 11  7 23 17 44 30.0000000  0 10G03G13G07G19G10G08G20G16G06G23
 109464947.40448  85297493.26845  20830498.2734                   20830506.1454
 105840589.34547  82473312.41446  20140808.8364                   20140815.9494
 118183669.626 7                  22489596.484
 112931761.90447  87998813.35045  21490192.7274                   21490198.5864
 125097040.39046  97478168.77644  23805152.2114                   23805161.6764
 129277570.16046 100735854.78743  24600712.8054                   24600722.7584
 128753259.74345 100327218.96142  24500946.3444                   24500958.4774
 119092337.06747  92799251.17944  22662518.6254                   22662526.1994
 117162120.13147  91295191.02945  22295209.2424                   22295216.7304
 106106069.35748  82680080.37946  20191312.5944                   20191317.6644
 11  7 23 17 45  0.0000000  0 10G03G13G07G19G10G08G20G16G06G23
 109479612.70848  85308920.78445  20833289.4774                   20833296.7154
 105815731.95748  82453943.02346  20136079.1094                   20136085.6604
 118125501.352 7                  22478527.125
 112875779.56748  87955190.77446  21479539.7814                   21479545.8914
 125096826.89047  97478002.43143  23805111.9844                   23805121.0124
 129210111.44146 100683289.56543  24587875.9304                   24587886.0234
 128840613.87746 100395286.87442  24517570.8364                   24517581.5634
 119181382.98347  92868637.53244  22679463.2274                   22679471.5904
 117204657.19547  91328336.79145  22303303.2664                   22303311.5234
 106143385.03648  82709157.51246  20198413.1174                   20198418.8164
 11  7 23 17 45 30.0000000  0 10G03G13G07G19G10G08G20G16G06G23
 109494910.46948  85320841.11245  20836200.0704                   20836208.3754
 105791405.61148  82434987.41946  20131449.8444                   20131457.0514
 118067364.040 7                  22467463.953
 112820278.66747  87911943.35246  21468978.0704                   21468984.4574
 125097112.95746  97478225.31144  23805166.2034                   23805175.6724
 129142601.65647 100630684.58143  24575029.0784                   24575038.5204
 128927857.30846 100463268.57643  24534170.9534                   24534183.8914
 119270525.21547  92938098.95244  22696427.1724                   22696434.4344
 117247711.61947  91361885.65945  22311496.1254                   22311505.2114
 106181256.22548  82738667.49846  20205620.0704                   20205625.5204
 11  7 23 17 46  0.0000000  0 10G03G13G07G19G10G08G20G16G06G23
 109510840.48448  85333254.11545  20839231.5944                   20839239.0274
 105767612.35848  82416447.21846  20126922.1254                   20126928.9264
 118009258.437 7                  22456406.617
 112765262.03848  87869073.28546  21458509.2114                   21458515.0204
 125097898.02446  97478836.99044  23805315.4064                   23805324.9414
 129075041.03646 100578040.01043  24562172.2664                   24562182.6884
 129014987.88846 100531162.27242  24550752.5084                   24550764.9184
 119359762.28147  93007634.27944  22713407.9304                   22713414.7504
 117291282.37147  91395836.89845  22319787.5864                   22319795.2974
 106219682.50148  82768610.02246  20212932.0234                   20212937.8594
 11  7 23 17 46 30.0000000  0 10G03G13G07G19G10G08G20G16G06G23
 109527402.22848  85346159.34845  20842382.9844                   20842390.9184
 105744353.69448  82398323.58646  20122496.2894                   20122503.1294
 117951184.655 7                  22445355.742
 112710731.90947  87826582.30446  21448131.8674                   21448137.9614
 125099180.72147  97479836.49743  23805559.4774                   23805568.6174
 129007428.92947 100525355.36743  24549305.5234                   24549316.3794
 129102003.04546 100598966.01743  24567311.4534                   24567323.5004
 119449091.71347  93077241.63044  22730407.2194                   22730413.7194
 117335367.91147  91430189.24445  22328176.6484                   22328185.2814
 106258663.41348  82798984.73546  20220350.1804                   20220355.1914
 11  7 23 17 47  0.0000000  0 10G03G13G07G19G10G08G20G16G06G23
 109544595.13648  85359556.40846  20845655.1884                   20845662.9654
 105721630.80847  82380617.44246  20118172.2584                   20118179.2154
 117893142.806 7                  22434310.781
 112656690.78447  87784472.36746  21437848.3364                   21437854.7584
 125100959.98446  97481222.90044  23805897.8444                   23805907.7234
 128939765.10247 100472630.32943  24536430.5474                   24536440.4964
 129188899.97846 100666677.70443  24583847.7504                   24583859.2974
 119538510.91947  93146918.90244  22747423.1564                   22747430.1024
 117379966.74147  91464941.53945  22336663.1724                   22336671.4614
 106298197.91748  82829790.81746  20227873.4774                   20227878.8014
